Logo
 


Wetterdaten - Sonntag, 26.06.2022 - Rheinberg-Annaberg     25 m ber NN private Wetterstation Rheinberg/Angaben ohne Gewhr!
Wetterdaten: aktuell Sonntag, 26.06.2022 20:11
Datum Zeit Temp. A. Feuchte A. Luftdruck Regen Wind Richtung Richtung Sonnenschein ET UV Solar Taupunkt Windchill Windben Empfang
26.06.2022 20:11 20,8 C 66 % 1014,8 hPa 0,0 l/m 0,0 km/h S 184 0 min 0,000 mm 0,0 UV-I 40 W/m 14,2 C 20,8 C 0,0 km/h 100,00 %
26.06.2022 20:10 20,8 C 66 % 1014,9 hPa 0,0 l/m 0,1 km/h S 184 0 min 0,000 mm 0,0 UV-I 42 W/m 14,2 C 20,8 C 1,9 km/h 100,00 %
26.06.2022 20:09 20,8 C 65 % 1014,8 hPa 0,0 l/m 0,3 km/h S 184 0 min 0,000 mm 0,0 UV-I 45 W/m 14,0 C 20,8 C 1,9 km/h 100,00 %
26.06.2022 20:08 20,8 C 66 % 1014,8 hPa 0,0 l/m 0,2 km/h S 184 0 min 0,000 mm 0,0 UV-I 46 W/m 14,2 C 20,8 C 1,9 km/h 100,00 %
26.06.2022 20:07 20,8 C 67 % 1014,9 hPa 0,0 l/m 0,0 km/h S 184 0 min 0,000 mm 0,0 UV-I 46 W/m 14,4 C 20,8 C 0,0 km/h 100,00 %
26.06.2022 20:06 20,8 C 67 % 1014,9 hPa 0,0 l/m 0,0 km/h S 184 0 min 0,000 mm 0,0 UV-I 44 W/m 14,4 C 20,8 C 0,0 km/h 100,00 %
26.06.2022 20:05 20,8 C 67 % 1014,9 hPa 0,0 l/m 0,1 km/h S 184 0 min 0,000 mm 0,0 UV-I 42 W/m 14,4 C 20,8 C 1,9 km/h 100,00 %
26.06.2022 20:04 20,8 C 67 % 1015,0 hPa 0,0 l/m 0,0 km/h S 184 0 min 0,000 mm 0,0 UV-I 40 W/m 14,4 C 20,8 C 0,0 km/h 100,00 %
26.06.2022 20:03 20,8 C 67 % 1015,0 hPa 0,0 l/m 0,1 km/h S 184 0 min 0,000 mm 0,0 UV-I 40 W/m 14,4 C 20,8 C 1,9 km/h 100,00 %
26.06.2022 20:02 20,8 C 68 % 1015,0 hPa 0,0 l/m 0,1 km/h S 184 0 min 0,000 mm 0,0 UV-I 40 W/m 14,7 C 20,8 C 1,9 km/h 100,00 %
26.06.2022 20:01 20,8 C 68 % 1015,0 hPa 0,0 l/m 0,0 km/h S 184 0 min 0,076 mm 0,0 UV-I 40 W/m 14,7 C 20,8 C 0,0 km/h 96,15 %
26.06.2022 20:00 20,8 C 68 % 1015,0 hPa 0,0 l/m 0,2 km/h S 184 0 min 0,000 mm 0,0 UV-I 40 W/m 14,7 C 20,8 C 1,9 km/h 100,00 %
26.06.2022 19:59 20,8 C 67 % 1015,0 hPa 0,0 l/m 2,6 km/h S 184 0 min 0,000 mm 0,0 UV-I 40 W/m 14,4 C 20,8 C 3,8 km/h 95,65 %
26.06.2022 19:58 20,8 C 67 % 1015,0 hPa 0,0 l/m 2,9 km/h S 184 0 min 0,000 mm 0,0 UV-I 40 W/m 14,4 C 20,8 C 5,7 km/h 100,00 %
26.06.2022 19:57 20,8 C 69 % 1015,1 hPa 0,0 l/m 1,8 km/h S 184 0 min 0,000 mm 0,0 UV-I 43 W/m 14,9 C 20,8 C 3,8 km/h 100,00 %
26.06.2022 19:56 20,8 C 68 % 1015,1 hPa 0,0 l/m 2,5 km/h S 184 0 min 0,000 mm 0,0 UV-I 45 W/m 14,7 C 20,8 C 3,8 km/h 100,00 %
26.06.2022 19:55 20,8 C 68 % 1015,1 hPa 0,0 l/m 0,4 km/h S 184 0 min 0,000 mm 0,0 UV-I 48 W/m 14,7 C 20,8 C 1,9 km/h 100,00 %
26.06.2022 19:54 20,8 C 69 % 1015,1 hPa 0,0 l/m 0,8 km/h S 184 0 min 0,000 mm 0,0 UV-I 52 W/m 14,9 C 20,8 C 1,9 km/h 100,00 %
26.06.2022 19:53 20,8 C 68 % 1015,2 hPa 0,0 l/m 2,2 km/h S 184 0 min 0,000 mm 0,0 UV-I 60 W/m 14,7 C 20,8 C 3,8 km/h 100,00 %
26.06.2022 19:52 20,7 C 68 % 1015,2 hPa 0,0 l/m 0,6 km/h S 184 0 min 0,000 mm 0,0 UV-I 66 W/m 14,6 C 20,7 C 3,8 km/h 100,00 %
26.06.2022 19:51 20,7 C 68 % 1015,2 hPa 0,0 l/m 1,2 km/h S 184 0 min 0,000 mm 0,0 UV-I 76 W/m 14,6 C 20,7 C 3,8 km/h 100,00 %
26.06.2022 19:50 20,8 C 68 % 1015,2 hPa 0,0 l/m 1,1 km/h S 184 0 min 0,000 mm 0,0 UV-I 84 W/m 14,7 C 20,8 C 3,8 km/h 95,83 %
26.06.2022 19:49 20,8 C 67 % 1015,2 hPa 0,0 l/m 0,7 km/h S 184 0 min 0,000 mm 0,0 UV-I 90 W/m 14,4 C 20,8 C 1,9 km/h 100,00 %
26.06.2022 19:48 20,8 C 68 % 1015,2 hPa 0,0 l/m 1,0 km/h S 184 0 min 0,000 mm 0,0 UV-I 93 W/m 14,7 C 20,8 C 1,9 km/h 100,00 %
26.06.2022 19:47 20,8 C 68 % 1015,2 hPa 0,0 l/m 1,1 km/h S 184 0 min 0,000 mm 0,0 UV-I 91 W/m 14,7 C 20,8 C 1,9 km/h 100,00 %
26.06.2022 19:46 20,8 C 68 % 1015,2 hPa 0,0 l/m 2,2 km/h S 184 0 min 0,000 mm 0,0 UV-I 88 W/m 14,7 C 20,8 C 3,8 km/h 100,00 %
26.06.2022 19:45 20,8 C 68 % 1015,2 hPa 0,0 l/m 0,3 km/h S 184 0 min 0,000 mm 0,0 UV-I 82 W/m 14,7 C 20,8 C 1,9 km/h 100,00 %
26.06.2022 19:44 20,8 C 68 % 1015,3 hPa 0,0 l/m 0,4 km/h S 184 0 min 0,000 mm 0,0 UV-I 78 W/m 14,7 C 20,8 C 1,9 km/h 100,00 %
26.06.2022 19:43 20,8 C 68 % 1015,2 hPa 0,0 l/m 1,9 km/h S 184 0 min 0,000 mm 0,0 UV-I 76 W/m 14,7 C 20,8 C 3,8 km/h 100,00 %
26.06.2022 19:42 20,8 C 67 % 1015,3 hPa 0,0 l/m 0,2 km/h S 184 0 min 0,000 mm 0,0 UV-I 76 W/m 14,4 C 20,8 C 1,9 km/h 100,00 %
26.06.2022 19:41 20,9 C 68 % 1015,3 hPa 0,0 l/m 1,0 km/h S 184 0 min 0,000 mm 0,0 UV-I 76 W/m 14,8 C 20,9 C 1,9 km/h 100,00 %
26.06.2022 19:40 20,8 C 67 % 1015,3 hPa 0,0 l/m 1,5 km/h S 184 0 min 0,000 mm 0,0 UV-I 80 W/m 14,4 C 20,8 C 3,8 km/h 100,00 %
26.06.2022 19:39 20,8 C 67 % 1015,3 hPa 0,0 l/m 0,4 km/h S 184 0 min 0,000 mm 0,0 UV-I 86 W/m 14,4 C 20,8 C 1,9 km/h 100,00 %
26.06.2022 19:38 20,9 C 67 % 1015,3 hPa 0,0 l/m 1,7 km/h S 184 0 min 0,000 mm 0,0 UV-I 91 W/m 14,5 C 20,9 C 3,8 km/h 100,00 %
26.06.2022 19:37 20,9 C 67 % 1015,3 hPa 0,0 l/m 1,6 km/h S 184 0 min 0,000 mm 0,0 UV-I 97 W/m 14,5 C 20,9 C 3,8 km/h 100,00 %
26.06.2022 19:36 20,9 C 67 % 1015,3 hPa 0,0 l/m 1,7 km/h S 184 0 min 0,000 mm 0,0 UV-I 101 W/m 14,5 C 20,9 C 3,8 km/h 96,30 %
26.06.2022 19:35 20,9 C 68 % 1015,3 hPa 0,0 l/m 1,6 km/h S 184 0 min 0,000 mm 0,0 UV-I 108 W/m 14,8 C 20,9 C 3,8 km/h 100,00 %
26.06.2022 19:34 21,0 C 67 % 1015,3 hPa 0,0 l/m 1,2 km/h S 184 0 min 0,000 mm 0,0 UV-I 114 W/m 14,6 C 21,0 C 3,8 km/h 100,00 %
26.06.2022 19:33 21,0 C 67 % 1015,3 hPa 0,0 l/m 2,6 km/h S 184 0 min 0,000 mm 0,0 UV-I 120 W/m 14,6 C 21,0 C 3,8 km/h 100,00 %
26.06.2022 19:32 21,0 C 68 % 1015,3 hPa 0,0 l/m 2,1 km/h S 184 0 min 0,000 mm 0,0 UV-I 124 W/m 14,9 C 21,0 C 3,8 km/h 100,00 %
26.06.2022 19:31 21,0 C 68 % 1015,3 hPa 0,0 l/m 1,8 km/h S 184 0 min 0,000 mm 0,0 UV-I 127 W/m 14,9 C 21,0 C 3,8 km/h 100,00 %
26.06.2022 19:30 21,0 C 68 % 1015,2 hPa 0,0 l/m 3,5 km/h S 184 0 min 0,000 mm 0,0 UV-I 132 W/m 14,9 C 21,0 C 5,7 km/h 100,00 %
26.06.2022 19:29 21,0 C 68 % 1015,3 hPa 0,0 l/m 0,2 km/h S 184 0 min 0,000 mm 0,0 UV-I 138 W/m 14,9 C 21,0 C 1,9 km/h 100,00 %
26.06.2022 19:28 21,0 C 68 % 1015,2 hPa 0,0 l/m 0,2 km/h S 184 0 min 0,000 mm 0,2 UV-I 144 W/m 14,9 C 21,0 C 1,9 km/h 100,00 %
26.06.2022 19:27 21,0 C 67 % 1015,2 hPa 0,0 l/m 1,2 km/h S 184 0 min 0,000 mm 0,5 UV-I 149 W/m 14,6 C 21,0 C 3,8 km/h 100,00 %
26.06.2022 19:26 21,0 C 68 % 1015,2 hPa 0,0 l/m 1,1 km/h S 184 0 min 0,000 mm 0,5 UV-I 153 W/m 14,9 C 21,0 C 3,8 km/h 100,00 %
26.06.2022 19:25 21,0 C 67 % 1015,2 hPa 0,0 l/m 0,6 km/h S 184 0 min 0,000 mm 0,5 UV-I 156 W/m 14,6 C 21,0 C 1,9 km/h 100,00 %
26.06.2022 19:24 21,0 C 67 % 1015,2 hPa 0,0 l/m 2,2 km/h S 184 0 min 0,000 mm 0,5 UV-I 158 W/m 14,6 C 21,0 C 3,8 km/h 100,00 %
26.06.2022 19:23 21,0 C 67 % 1015,2 hPa 0,0 l/m 1,2 km/h S 184 0 min 0,000 mm 0,5 UV-I 158 W/m 14,6 C 21,0 C 3,8 km/h 91,30 %
26.06.2022 19:22 20,9 C 67 % 1015,2 hPa 0,0 l/m 0,0 km/h S 184 0 min 0,000 mm 0,5 UV-I 162 W/m 14,5 C 20,9 C 0,0 km/h 95,83 %
26.06.2022 19:21 21,0 C 67 % 1015,2 hPa 0,0 l/m 0,1 km/h S 184 0 min 0,000 mm 0,5 UV-I 170 W/m 14,6 C 21,0 C 1,9 km/h 100,00 %
26.06.2022 19:20 20,9 C 67 % 1015,2 hPa 0,0 l/m 0,0 km/h S 184 0 min 0,000 mm 0,6 UV-I 174 W/m 14,5 C 20,9 C 0,0 km/h 100,00 %
26.06.2022 19:19 20,9 C 68 % 1015,2 hPa 0,0 l/m 1,1 km/h S 184 0 min 0,000 mm 0,6 UV-I 175 W/m 14,8 C 20,9 C 3,8 km/h 96,55 %
26.06.2022 19:18 20,9 C 68 % 1015,3 hPa 0,0 l/m 1,4 km/h S 184 0 min 0,000 mm 0,5 UV-I 162 W/m 14,8 C 20,9 C 3,8 km/h 100,00 %
26.06.2022 19:17 20,9 C 67 % 1015,3 hPa 0,0 l/m 2,2 km/h S 184 0 min 0,000 mm 0,5 UV-I 152 W/m 14,5 C 20,9 C 5,7 km/h 91,30 %
26.06.2022 19:16 20,9 C 67 % 1015,3 hPa 0,0 l/m 0,6 km/h S 184 0 min 0,000 mm 0,5 UV-I 144 W/m 14,5 C 20,9 C 1,9 km/h 100,00 %
26.06.2022 19:15 20,9 C 67 % 1015,3 hPa 0,0 l/m 0,8 km/h S 184 0 min 0,000 mm 0,5 UV-I 140 W/m 14,5 C 20,9 C 1,9 km/h 95,65 %
26.06.2022 19:14 20,9 C 66 % 1015,3 hPa 0,0 l/m 0,7 km/h S 184 0 min 0,000 mm 0,5 UV-I 142 W/m 14,3 C 20,9 C 1,9 km/h 88,89 %
26.06.2022 19:13 20,9 C 67 % 1015,3 hPa 0,0 l/m 2,4 km/h S 184 0 min 0,000 mm 0,5 UV-I 144 W/m 14,5 C 20,9 C 3,8 km/h 100,00 %
26.06.2022 19:12 20,9 C 66 % 1015,3 hPa 0,0 l/m 3,1 km/h S 184 0 min 0,000 mm 0,5 UV-I 161 W/m 14,3 C 20,9 C 5,7 km/h 95,83 %
26.06.2022 19:11 21,0 C 67 % 1015,3 hPa 0,0 l/m 1,4 km/h S 184 0 min 0,000 mm 0,6 UV-I 186 W/m 14,6 C 21,0 C 5,7 km/h 100,00 %
26.06.2022 19:10 21,0 C 66 % 1015,3 hPa 0,0 l/m 1,0 km/h S 184 0 min 0,000 mm 0,6 UV-I 192 W/m 14,4 C 21,0 C 1,9 km/h 95,83 %
26.06.2022 19:09 21,1 C 66 % 1015,2 hPa 0,0 l/m 2,3 km/h S 184 0 min 0,000 mm 0,7 UV-I 221 W/m 14,5 C 21,1 C 3,8 km/h 100,00 %
26.06.2022 19:08 21,1 C 65 % 1015,2 hPa 0,0 l/m 3,5 km/h S 184 0 min 0,000 mm 0,8 UV-I 272 W/m 14,3 C 21,1 C 5,7 km/h 96,30 %
26.06.2022 19:07 21,2 C 65 % 1015,2 hPa 0,0 l/m 4,1 km/h S 184 1 min 0,000 mm 0,8 UV-I 295 W/m 14,4 C 21,2 C 5,7 km/h 95,65 %
26.06.2022 19:06 21,2 C 65 % 1015,1 hPa 0,0 l/m 3,3 km/h S 184 0 min 0,000 mm 0,8 UV-I 280 W/m 14,4 C 21,2 C 5,7 km/h 100,00 %
26.06.2022 19:05 21,3 C 65 % 1015,1 hPa 0,0 l/m 3,2 km/h S 184 0 min 0,000 mm 0,8 UV-I 245 W/m 14,4 C 21,3 C 3,8 km/h 100,00 %
26.06.2022 19:04 21,3 C 65 % 1015,1 hPa 0,0 l/m 2,9 km/h S 184 0 min 0,000 mm 0,9 UV-I 267 W/m 14,4 C 21,3 C 3,8 km/h 95,65 %
26.06.2022 19:03 21,2 C 66 % 1015,1 hPa 0,0 l/m 0,4 km/h S 184 0 min 0,000 mm 0,9 UV-I 269 W/m 14,6 C 21,2 C 1,9 km/h 95,83 %
26.06.2022 19:02 21,2 C 65 % 1015,1 hPa 0,0 l/m 0,0 km/h S 184 0 min 0,000 mm 0,9 UV-I 275 W/m 14,4 C 21,2 C 0,0 km/h 100,00 %
26.06.2022 19:01 21,1 C 65 % 1015,1 hPa 0,0 l/m 0,0 km/h S 184 0 min 0,102 mm 0,9 UV-I 265 W/m 14,3 C 21,1 C 0,0 km/h 96,30 %
26.06.2022 19:00 21,1 C 66 % 1015,1 hPa 0,0 l/m 0,2 km/h S 184 1 min 0,000 mm 0,9 UV-I 289 W/m 14,5 C 21,1 C 1,9 km/h 95,65 %
26.06.2022 18:59 21,0 C 66 % 1015,1 hPa 0,0 l/m 0,4 km/h S 184 1 min 0,000 mm 0,9 UV-I 288 W/m 14,4 C 21,0 C 1,9 km/h 95,83 %
26.06.2022 18:58 20,9 C 66 % 1015,1 hPa 0,0 l/m 0,0 km/h S 184 0 min 0,000 mm 0,9 UV-I 283 W/m 14,3 C 20,9 C 0,0 km/h 100,00 %
26.06.2022 18:57 20,9 C 65 % 1015,2 hPa 0,0 l/m 0,0 km/h S 184 0 min 0,000 mm 0,9 UV-I 266 W/m 14,1 C 20,9 C 0,0 km/h 95,83 %
26.06.2022 18:56 20,8 C 66 % 1015,2 hPa 0,0 l/m 0,1 km/h S 184 0 min 0,000 mm 0,9 UV-I 239 W/m 14,2 C 20,8 C 1,9 km/h 91,30 %
26.06.2022 18:55 20,8 C 66 % 1015,2 hPa 0,0 l/m 1,2 km/h S 184 0 min 0,000 mm 0,8 UV-I 234 W/m 14,2 C 20,8 C 3,8 km/h 100,00 %
26.06.2022 18:54 20,7 C 65 % 1015,2 hPa 0,0 l/m 0,0 km/h S 184 0 min 0,000 mm 0,8 UV-I 220 W/m 13,9 C 20,7 C 0,0 km/h 95,83 %
26.06.2022 18:53 20,7 C 65 % 1015,2 hPa 0,0 l/m 0,0 km/h S 184 0 min 0,000 mm 0,8 UV-I 213 W/m 13,9 C 20,7 C 0,0 km/h 100,00 %
26.06.2022 18:52 20,6 C 66 % 1015,2 hPa 0,0 l/m 0,0 km/h S 184 0 min 0,000 mm 0,8 UV-I 203 W/m 14,0 C 20,6 C 0,0 km/h 92,86 %
26.06.2022 18:51 20,6 C 65 % 1015,2 hPa 0,0 l/m 0,0 km/h S 184 0 min 0,000 mm 0,7 UV-I 190 W/m 13,8 C 20,6 C 0,0 km/h 100,00 %
26.06.2022 18:50 20,6 C 64 % 1015,2 hPa 0,0 l/m 0,0 km/h S 184 0 min 0,000 mm 0,7 UV-I 177 W/m 13,5 C 20,6 C 0,0 km/h 95,65 %
26.06.2022 18:49 20,5 C 64 % 1015,2 hPa 0,0 l/m 0,0 km/h S 184 0 min 0,000 mm 0,5 UV-I 168 W/m 13,5 C 20,5 C 0,0 km/h 100,00 %
26.06.2022 18:48 20,5 C 64 % 1015,3 hPa 0,0 l/m 0,2 km/h S 184 0 min 0,000 mm 0,6 UV-I 161 W/m 13,5 C 20,5 C 1,9 km/h 93,10 %
26.06.2022 18:47 20,4 C 66 % 1015,2 hPa 0,0 l/m 0,2 km/h S 184 0 min 0,000 mm 0,6 UV-I 156 W/m 13,8 C 20,4 C 1,9 km/h 100,00 %
26.06.2022 18:46 20,4 C 66 % 1015,3 hPa 0,0 l/m 0,1 km/h S 184 0 min 0,000 mm 0,6 UV-I 151 W/m 13,8 C 20,4 C 1,9 km/h 95,83 %
26.06.2022 18:45 20,4 C 65 % 1015,3 hPa 0,0 l/m 0,0 km/h S 184 0 min 0,000 mm 0,5 UV-I 141 W/m 13,6 C 20,4 C 0,0 km/h 91,30 %
26.06.2022 18:44 20,4 C 65 % 1015,3 hPa 0,0 l/m 1,1 km/h S 184 0 min 0,000 mm 0,5 UV-I 126 W/m 13,6 C 20,4 C 3,8 km/h 100,00 %
26.06.2022 18:43 20,4 C 66 % 1015,4 hPa 0,0 l/m 2,1 km/h S 184 0 min 0,000 mm 0,0 UV-I 115 W/m 13,8 C 20,4 C 5,7 km/h 95,65 %
26.06.2022 18:42 20,4 C 66 % 1015,4 hPa 0,0 l/m 0,1 km/h S 184 0 min 0,000 mm 0,0 UV-I 104 W/m 13,8 C 20,4 C 1,9 km/h 96,00 %
26.06.2022 18:41 20,4 C 67 % 1015,5 hPa 0,0 l/m 0,1 km/h S 184 0 min 0,000 mm 0,0 UV-I 96 W/m 14,1 C 20,4 C 1,9 km/h 96,15 %
26.06.2022 18:40 20,4 C 66 % 1015,5 hPa 0,0 l/m 1,2 km/h S 184 0 min 0,000 mm 0,0 UV-I 89 W/m 13,8 C 20,4 C 3,8 km/h 91,67 %
26.06.2022 18:39 20,4 C 66 % 1015,4 hPa 0,0 l/m 1,4 km/h S 184 0 min 0,000 mm 0,0 UV-I 87 W/m 13,8 C 20,4 C 3,8 km/h 91,30 %
26.06.2022 18:38 20,5 C 68 % 1015,4 hPa 0,0 l/m 1,1 km/h S 184 0 min 0,000 mm 0,0 UV-I 82 W/m 14,4 C 20,5 C 3,8 km/h 96,30 %
26.06.2022 18:37 20,6 C 67 % 1015,4 hPa 0,0 l/m 1,1 km/h S 184 0 min 0,000 mm 0,0 UV-I 81 W/m 14,3 C 20,6 C 3,8 km/h 100,00 %
26.06.2022 18:36 20,6 C 67 % 1015,4 hPa 0,0 l/m 1,0 km/h S 184 0 min 0,000 mm 0,0 UV-I 79 W/m 14,3 C 20,6 C 3,8 km/h 95,83 %
26.06.2022 18:35 20,6 C 67 % 1015,4 hPa 0,0 l/m 1,1 km/h S 184 0 min 0,000 mm 0,0 UV-I 79 W/m 14,3 C 20,6 C 3,8 km/h 100,00 %
26.06.2022 18:34 20,6 C 66 % 1015,4 hPa 0,0 l/m 3,8 km/h S 184 0 min 0,000 mm 0,0 UV-I 80 W/m 14,0 C 20,6 C 5,7 km/h 96,30 %
26.06.2022 18:33 20,7 C 68 % 1015,4 hPa 0,0 l/m 4,5 km/h S 184 0 min 0,000 mm 0,0 UV-I 81 W/m 14,6 C 20,7 C 7,7 km/h 100,00 %
26.06.2022 18:32 20,7 C 67 % 1015,4 hPa 0,0 l/m 1,7 km/h S 184 0 min 0,000 mm 0,0 UV-I 83 W/m 14,3 C 20,7 C 3,8 km/h 95,83 %
26.06.2022 18:31 20,7 C 67 % 1015,4 hPa 0,0 l/m 3,9 km/h S 184 0 min 0,000 mm 0,0 UV-I 83 W/m 14,3 C 20,7 C 5,7 km/h 100,00 %
26.06.2022 18:30 20,7 C 68 % 1015,4 hPa 0,0 l/m 1,3 km/h S 184 0 min 0,000 mm 0,0 UV-I 83 W/m 14,6 C 20,7 C 3,8 km/h 96,30 %
26.06.2022 18:29 20,7 C 68 % 1015,5 hPa 0,0 l/m 4,1 km/h S 184 0 min 0,000 mm 0,0 UV-I 80 W/m 14,6 C 20,7 C 5,7 km/h 96,15 %
26.06.2022 18:28 20,7 C 68 % 1015,5 hPa 0,0 l/m 1,7 km/h S 184 0 min 0,000 mm 0,0 UV-I 79 W/m 14,6 C 20,7 C 3,8 km/h 100,00 %
26.06.2022 18:27 20,7 C 68 % 1015,5 hPa 0,0 l/m 1,3 km/h S 184 0 min 0,000 mm 0,0 UV-I 82 W/m 14,6 C 20,7 C 3,8 km/h 95,65 %
26.06.2022 18:26 20,8 C 68 % 1015,5 hPa 0,0 l/m 2,1 km/h S 184 0 min 0,000 mm 0,0 UV-I 87 W/m 14,7 C 20,8 C 3,8 km/h 100,00 %
26.06.2022 18:25 20,7 C 68 % 1015,5 hPa 0,0 l/m 3,9 km/h S 184 0 min 0,000 mm 0,0 UV-I 95 W/m 14,6 C 20,7 C 7,7 km/h 95,83 %
26.06.2022 18:24 20,8 C 68 % 1015,5 hPa 0,0 l/m 3,6 km/h S 184 0 min 0,000 mm 0,2 UV-I 106 W/m 14,7 C 20,8 C 5,7 km/h 100,00 %
26.06.2022 18:23 20,7 C 70 % 1015,5 hPa 0,0 l/m 2,1 km/h S 184 0 min 0,000 mm 0,5 UV-I 117 W/m 15,0 C 20,7 C 5,7 km/h 95,83 %
26.06.2022 18:22 20,7 C 69 % 1015,5 hPa 0,0 l/m 1,5 km/h S 184 0 min 0,000 mm 0,6 UV-I 127 W/m 14,8 C 20,7 C 3,8 km/h 92,31 %
26.06.2022 18:21 20,7 C 68 % 1015,5 hPa 0,0 l/m 1,0 km/h S 184 0 min 0,000 mm 0,6 UV-I 132 W/m 14,6 C 20,7 C 1,9 km/h 100,00 %
26.06.2022 18:20 20,7 C 69 % 1015,6 hPa 0,0 l/m 2,0 km/h S 184 0 min 0,000 mm 0,6 UV-I 152 W/m 14,8 C 20,7 C 5,7 km/h 96,15 %
26.06.2022 18:19 20,7 C 69 % 1015,6 hPa 0,0 l/m 3,2 km/h S 184 0 min 0,000 mm 0,7 UV-I 157 W/m 14,8 C 20,7 C 3,8 km/h 100,00 %
26.06.2022 18:18 20,7 C 69 % 1015,6 hPa 0,0 l/m 1,1 km/h S 184 0 min 0,000 mm 0,7 UV-I 165 W/m 14,8 C 20,7 C 3,8 km/h 90,91 %
26.06.2022 18:17 20,7 C 70 % 1015,6 hPa 0,0 l/m 1,0 km/h S 184 0 min 0,000 mm 0,7 UV-I 163 W/m 15,0 C 20,7 C 3,8 km/h 94,87 %
26.06.2022 18:16 20,7 C 69 % 1015,6 hPa 0,0 l/m 3,3 km/h S 184 0 min 0,000 mm 0,7 UV-I 158 W/m 14,8 C 20,7 C 5,7 km/h 100,00 %
26.06.2022 18:15 20,7 C 70 % 1015,6 hPa 0,0 l/m 4,8 km/h S 184 0 min 0,000 mm 0,7 UV-I 153 W/m 15,0 C 20,7 C 7,7 km/h 100,00 %
26.06.2022 18:14 20,7 C 70 % 1015,6 hPa 0,0 l/m 4,9 km/h S 184 0 min 0,000 mm 0,7 UV-I 150 W/m 15,0 C 20,7 C 5,7 km/h 92,86 %
26.06.2022 18:13 20,7 C 71 % 1015,6 hPa 0,0 l/m 1,4 km/h S 183 0 min 0,000 mm 0,7 UV-I 149 W/m 15,2 C 20,7 C 5,7 km/h 100,00 %
26.06.2022 18:12 20,7 C 71 % 1015,6 hPa 0,0 l/m 2,2 km/h S 183 0 min 0,000 mm 0,7 UV-I 149 W/m 15,2 C 20,7 C 3,8 km/h 95,65 %
26.06.2022 18:11 20,6 C 70 % 1015,6 hPa 0,0 l/m 4,2 km/h S 183 0 min 0,000 mm 0,8 UV-I 150 W/m 14,9 C 20,6 C 5,7 km/h 95,83 %
26.06.2022 18:10 20,7 C 70 % 1015,5 hPa 0,0 l/m 3,2 km/h S 183 0 min 0,000 mm 0,8 UV-I 153 W/m 15,0 C 20,7 C 5,7 km/h 100,00 %
26.06.2022 18:09 20,6 C 71 % 1015,6 hPa 0,0 l/m 3,9 km/h S 183 0 min 0,000 mm 0,8 UV-I 154 W/m 15,2 C 20,6 C 7,7 km/h 96,15 %
26.06.2022 18:08 20,6 C 71 % 1015,6 hPa 0,0 l/m 2,7 km/h S 183 0 min 0,000 mm 0,7 UV-I 150 W/m 15,2 C 20,6 C 5,7 km/h 95,83 %
26.06.2022 18:07 20,6 C 71 % 1015,6 hPa 0,0 l/m 2,0 km/h S 183 0 min 0,000 mm 0,7 UV-I 143 W/m 15,2 C 20,6 C 3,8 km/h 95,65 %
26.06.2022 18:06 20,6 C 71 % 1015,6 hPa 0,0 l/m 3,3 km/h S 183 0 min 0,000 mm 0,7 UV-I 138 W/m 15,2 C 20,6 C 3,8 km/h 100,00 %
26.06.2022 18:05 20,6 C 71 % 1015,7 hPa 0,0 l/m 3,6 km/h S 183 0 min 0,000 mm 0,6 UV-I 132 W/m 15,2 C 20,6 C 5,7 km/h 91,30 %
26.06.2022 18:04 20,6 C 71 % 1015,6 hPa 0,0 l/m 2,0 km/h S 183 0 min 0,000 mm 0,6 UV-I 130 W/m 15,2 C 20,6 C 5,7 km/h 96,55 %
26.06.2022 18:03 20,6 C 70 % 1015,6 hPa 0,0 l/m 1,0 km/h S 183 0 min 0,000 mm 0,6 UV-I 128 W/m 14,9 C 20,6 C 3,8 km/h 100,00 %
26.06.2022 18:02 20,6 C 69 % 1015,6 hPa 0,0 l/m 0,1 km/h S 183 0 min 0,000 mm 0,6 UV-I 121 W/m 14,7 C 20,6 C 1,9 km/h 91,67 %
26.06.2022 18:01 20,7 C 71 % 1015,6 hPa 0,0 l/m 0,8 km/h S 183 0 min 0,076 mm 0,6 UV-I 121 W/m 15,2 C 20,7 C 1,9 km/h 100,00 %
26.06.2022 18:00 20,6 C 71 % 1015,6 hPa 0,0 l/m 0,7 km/h S 183 0 min 0,000 mm 0,5 UV-I 113 W/m 15,2 C 20,6 C 1,9 km/h 95,83 %
26.06.2022 17:59 20,6 C 71 % 1015,5 hPa 0,0 l/m 0,1 km/h S 183 0 min 0,000 mm 0,5 UV-I 109 W/m 15,2 C 20,6 C 1,9 km/h 100,00 %
26.06.2022 17:58 20,6 C 69 % 1015,6 hPa 0,0 l/m 0,1 km/h S 183 0 min 0,000 mm 0,5 UV-I 105 W/m 14,7 C 20,6 C 1,9 km/h 95,83 %
26.06.2022 17:57 20,6 C 71 % 1015,6 hPa 0,0 l/m 0,2 km/h S 183 0 min 0,000 mm 0,0 UV-I 100 W/m 15,2 C 20,6 C 1,9 km/h 100,00 %
26.06.2022 17:56 20,6 C 70 % 1015,6 hPa 0,0 l/m 0,0 km/h S 183 0 min 0,000 mm 0,0 UV-I 95 W/m 14,9 C 20,6 C 0,0 km/h 95,83 %
26.06.2022 17:55 20,7 C 70 % 1015,6 hPa 0,0 l/m 0,0 km/h S 183 0 min 0,000 mm 0,0 UV-I 90 W/m 15,0 C 20,7 C 0,0 km/h 95,65 %
26.06.2022 17:54 20,7 C 70 % 1015,6 hPa 0,0 l/m 0,0 km/h S 183 0 min 0,000 mm 0,0 UV-I 88 W/m 15,0 C 20,7 C 0,0 km/h 100,00 %
26.06.2022 17:53 20,7 C 71 % 1015,6 hPa 0,0 l/m 0,1 km/h S 183 0 min 0,000 mm 0,0 UV-I 87 W/m 15,2 C 20,7 C 1,9 km/h 92,31 %
26.06.2022 17:52 20,7 C 70 % 1015,7 hPa 0,0 l/m 1,1 km/h S 183 0 min 0,000 mm 0,0 UV-I 85 W/m 15,0 C 20,7 C 1,9 km/h 100,00 %
26.06.2022 17:51 20,7 C 70 % 1015,7 hPa 0,0 l/m 0,7 km/h S 183 0 min 0,000 mm 0,0 UV-I 83 W/m 15,0 C 20,7 C 1,9 km/h 95,83 %
26.06.2022 17:50 20,7 C 70 % 1015,7 hPa 0,0 l/m 0,4 km/h S 183 0 min 0,000 mm 0,0 UV-I 81 W/m 15,0 C 20,7 C 1,9 km/h 100,00 %
26.06.2022 17:49 20,7 C 70 % 1015,7 hPa 0,0 l/m 0,2 km/h S 183 0 min 0,000 mm 0,0 UV-I 78 W/m 15,0 C 20,7 C 1,9 km/h 95,65 %
26.06.2022 17:48 20,7 C 70 % 1015,7 hPa 0,0 l/m 0,1 km/h S 183 0 min 0,000 mm 0,0 UV-I 77 W/m 15,0 C 20,7 C 1,9 km/h 87,50 %
26.06.2022 17:47 20,7 C 70 % 1015,7 hPa 0,0 l/m 0,1 km/h S 183 0 min 0,000 mm 0,0 UV-I 75 W/m 15,0 C 20,7 C 1,9 km/h 100,00 %
26.06.2022 17:46 20,7 C 70 % 1015,8 hPa 0,0 l/m 0,0 km/h S 183 0 min 0,000 mm 0,0 UV-I 72 W/m 15,0 C 20,7 C 0,0 km/h 100,00 %
26.06.2022 17:45 20,7 C 69 % 1015,8 hPa 0,0 l/m 0,7 km/h S 183 0 min 0,000 mm 0,0 UV-I 72 W/m 14,8 C 20,7 C 1,9 km/h 95,83 %
26.06.2022 17:44 20,7 C 69 % 1015,8 hPa 0,0 l/m 0,4 km/h S 183 0 min 0,000 mm 0,0 UV-I 74 W/m 14,8 C 20,7 C 1,9 km/h 96,15 %
26.06.2022 17:43 20,8 C 69 % 1015,8 hPa 0,0 l/m 0,7 km/h S 183 0 min 0,000 mm 0,0 UV-I 75 W/m 14,9 C 20,8 C 3,8 km/h 96,30 %
26.06.2022 17:42 20,8 C 69 % 1015,8 hPa 0,0 l/m 2,9 km/h S 183 0 min 0,000 mm 0,0 UV-I 76 W/m 14,9 C 20,8 C 5,7 km/h 95,65 %
26.06.2022 17:41 20,8 C 69 % 1015,8 hPa 0,0 l/m 2,2 km/h S 183 0 min 0,000 mm 0,0 UV-I 80 W/m 14,9 C 20,8 C 3,8 km/h 100,00 %
26.06.2022 17:40 20,8 C 70 % 1015,8 hPa 0,0 l/m 1,6 km/h S 183 0 min 0,000 mm 0,0 UV-I 85 W/m 15,1 C 20,8 C 3,8 km/h 94,12 %
26.06.2022 17:39 20,8 C 70 % 1015,8 hPa 0,0 l/m 1,0 km/h S 183 0 min 0,000 mm 0,0 UV-I 91 W/m 15,1 C 20,8 C 3,8 km/h 96,67 %
26.06.2022 17:38 20,8 C 69 % 1015,8 hPa 0,0 l/m 3,2 km/h S 183 0 min 0,000 mm 0,5 UV-I 98 W/m 14,9 C 20,8 C 7,7 km/h 100,00 %
26.06.2022 17:37 20,8 C 69 % 1015,8 hPa 0,0 l/m 2,6 km/h S 183 0 min 0,000 mm 0,5 UV-I 100 W/m 14,9 C 20,8 C 5,7 km/h 91,67 %
26.06.2022 17:36 20,8 C 69 % 1015,8 hPa 0,0 l/m 1,6 km/h S 183 0 min 0,000 mm 0,5 UV-I 101 W/m 14,9 C 20,8 C 5,7 km/h 100,00 %
26.06.2022 17:35 20,8 C 69 % 1015,8 hPa 0,0 l/m 4,0 km/h S 183 0 min 0,000 mm 0,5 UV-I 100 W/m 14,9 C 20,8 C 5,7 km/h 96,00 %
26.06.2022 17:34 20,8 C 70 % 1015,8 hPa 0,0 l/m 4,5 km/h S 183 0 min 0,000 mm 0,5 UV-I 101 W/m 15,1 C 20,8 C 7,7 km/h 100,00 %
26.06.2022 17:33 20,8 C 69 % 1015,8 hPa 0,0 l/m 4,0 km/h S 183 0 min 0,000 mm 0,5 UV-I 102 W/m 14,9 C 20,8 C 5,7 km/h 96,43 %
26.06.2022 17:32 20,8 C 68 % 1015,8 hPa 0,0 l/m 4,8 km/h S 183 0 min 0,000 mm 0,5 UV-I 104 W/m 14,7 C 20,8 C 5,7 km/h 96,15 %
26.06.2022 17:31 20,7 C 68 % 1015,8 hPa 0,0 l/m 1,5 km/h S 182 0 min 0,000 mm 0,5 UV-I 101 W/m 14,6 C 20,7 C 1,9 km/h 100,00 %
26.06.2022 17:30 20,7 C 67 % 1015,8 hPa 0,0 l/m 0,2 km/h S 182 0 min 0,000 mm 0,5 UV-I 98 W/m 14,3 C 20,7 C 1,9 km/h 100,00 %
26.06.2022 17:29 20,7 C 67 % 1015,8 hPa 0,0 l/m 1,9 km/h S 182 0 min 0,000 mm 0,5 UV-I 99 W/m 14,3 C 20,7 C 3,8 km/h 96,30 %
26.06.2022 17:28 20,7 C 66 % 1015,9 hPa 0,0 l/m 2,6 km/h S 182 0 min 0,000 mm 0,5 UV-I 101 W/m 14,1 C 20,7 C 5,7 km/h 95,65 %
26.06.2022 17:27 20,7 C 67 % 1015,8 hPa 0,0 l/m 1,5 km/h S 182 0 min 0,000 mm 0,5 UV-I 104 W/m 14,3 C 20,7 C 3,8 km/h 100,00 %
26.06.2022 17:26 20,7 C 67 % 1015,9 hPa 0,0 l/m 3,3 km/h S 182 0 min 0,000 mm 0,5 UV-I 98 W/m 14,3 C 20,7 C 5,7 km/h 95,65 %
26.06.2022 17:25 20,7 C 68 % 1015,9 hPa 0,0 l/m 2,9 km/h S 182 0 min 0,000 mm 0,5 UV-I 97 W/m 14,6 C 20,7 C 7,7 km/h 100,00 %
26.06.2022 17:24 20,7 C 68 % 1015,9 hPa 0,0 l/m 4,0 km/h S 182 0 min 0,000 mm 0,5 UV-I 91 W/m 14,6 C 20,7 C 5,7 km/h 92,31 %
26.06.2022 17:23 20,7 C 67 % 1015,9 hPa 0,0 l/m 2,7 km/h S 182 0 min 0,000 mm 0,5 UV-I 85 W/m 14,3 C 20,7 C 5,7 km/h 93,33 %
26.06.2022 17:22 20,7 C 66 % 1015,9 hPa 0,0 l/m 4,8 km/h S 182 0 min 0,000 mm 0,5 UV-I 84 W/m 14,1 C 20,7 C 5,7 km/h 96,30 %
26.06.2022 17:21 20,8 C 67 % 1016,0 hPa 0,0 l/m 6,3 km/h S 183 0 min 0,000 mm 0,5 UV-I 88 W/m 14,4 C 20,8 C 9,6 km/h 96,15 %
26.06.2022 17:20 20,8 C 66 % 1015,9 hPa 0,0 l/m 5,4 km/h S 178 0 min 0,000 mm 0,5 UV-I 91 W/m 14,2 C 20,8 C 7,7 km/h 100,00 %
26.06.2022 17:19 20,8 C 67 % 1015,9 hPa 0,0 l/m 2,5 km/h S 180 0 min 0,000 mm 0,5 UV-I 94 W/m 14,4 C 20,8 C 3,8 km/h 95,65 %
26.06.2022 17:18 20,8 C 66 % 1015,9 hPa 0,0 l/m 4,1 km/h S 180 0 min 0,000 mm 0,5 UV-I 96 W/m 14,2 C 20,8 C 7,7 km/h 100,00 %
26.06.2022 17:17 20,8 C 67 % 1015,9 hPa 0,0 l/m 4,9 km/h S 180 0 min 0,000 mm 0,6 UV-I 101 W/m 14,4 C 20,8 C 9,6 km/h 92,31 %
26.06.2022 17:16 20,8 C 67 % 1015,9 hPa 0,0 l/m 3,3 km/h S 180 0 min 0,000 mm 0,6 UV-I 111 W/m 14,4 C 20,8 C 5,7 km/h 100,00 %
26.06.2022 17:15 20,9 C 67 % 1015,8 hPa 0,0 l/m 3,9 km/h S 180 0 min 0,000 mm 0,6 UV-I 118 W/m 14,5 C 20,9 C 5,7 km/h 95,65 %
26.06.2022 17:14 20,8 C 66 % 1015,9 hPa 0,0 l/m 3,4 km/h S 180 0 min 0,000 mm 0,6 UV-I 117 W/m 14,2 C 20,8 C 7,7 km/h 100,00 %
26.06.2022 17:13 20,9 C 67 % 1015,9 hPa 0,0 l/m 4,8 km/h S 180 0 min 0,000 mm 0,6 UV-I 110 W/m 14,5 C 20,9 C 7,7 km/h 96,15 %
26.06.2022 17:12 21,0 C 67 % 1015,9 hPa 0,0 l/m 3,4 km/h S 180 0 min 0,000 mm 0,5 UV-I 101 W/m 14,6 C 21,0 C 5,7 km/h 100,00 %
26.06.2022 17:11 21,0 C 66 % 1016,0 hPa 0,0 l/m 2,4 km/h S 179 0 min 0,000 mm 0,5 UV-I 93 W/m 14,4 C 21,0 C 3,8 km/h 93,10 %
26.06.2022 17:10 21,1 C 65 % 1016,0 hPa 0,0 l/m 5,6 km/h S 179 0 min 0,000 mm 0,5 UV-I 85 W/m 14,3 C 21,1 C 7,7 km/h 95,83 %
26.06.2022 17:09 21,1 C 65 % 1016,1 hPa 0,0 l/m 3,2 km/h S 175 0 min 0,000 mm 0,5 UV-I 83 W/m 14,3 C 21,1 C 7,7 km/h 100,00 %
26.06.2022 17:08 21,2 C 65 % 1016,1 hPa 0,0 l/m 5,9 km/h S 174 0 min 0,000 mm 0,5 UV-I 84 W/m 14,4 C 21,2 C 9,6 km/h 100,00 %
26.06.2022 17:07 21,2 C 64 % 1016,0 hPa 0,0 l/m 3,7 km/h S 174 0 min 0,000 mm 0,6 UV-I 92 W/m 14,1 C 21,2 C 9,6 km/h 100,00 %
26.06.2022 17:06 21,2 C 64 % 1016,0 hPa 0,0 l/m 5,4 km/h S 174 0 min 0,000 mm 0,6 UV-I 103 W/m 14,1 C 21,2 C 9,6 km/h 100,00 %
26.06.2022 17:05 21,2 C 63 % 1016,0 hPa 0,0 l/m 6,8 km/h S 174 0 min 0,000 mm 0,7 UV-I 114 W/m 13,9 C 21,1 C 11,5 km/h 100,00 %
26.06.2022 17:04 21,2 C 64 % 1015,9 hPa 0,0 l/m 4,7 km/h S 183 0 min 0,000 mm 0,7 UV-I 127 W/m 14,1 C 21,2 C 7,7 km/h 100,00 %
26.06.2022 17:03 21,2 C 64 % 1015,9 hPa 0,0 l/m 1,4 km/h S 183 0 min 0,000 mm 0,8 UV-I 135 W/m 14,1 C 21,2 C 5,7 km/h 100,00 %
26.06.2022 17:02 21,2 C 63 % 1015,9 hPa 0,0 l/m 1,8 km/h S 183 0 min 0,000 mm 0,8 UV-I 137 W/m 13,9 C 21,2 C 5,7 km/h 100,00 %
26.06.2022 17:01 21,2 C 63 % 1015,9 hPa 0,0 l/m 1,7 km/h S 183 0 min 0,152 mm 0,7 UV-I 136 W/m 13,9 C 21,2 C 5,7 km/h 91,67 %
26.06.2022 17:00 21,2 C 63 % 1015,9 hPa 0,0 l/m 2,2 km/h S 183 0 min 0,000 mm 0,7 UV-I 131 W/m 13,9 C 21,2 C 5,7 km/h 100,00 %
26.06.2022 16:59 21,2 C 63 % 1015,9 hPa 0,0 l/m 2,3 km/h S 183 0 min 0,000 mm 0,7 UV-I 126 W/m 13,9 C 21,2 C 5,7 km/h 95,83 %
26.06.2022 16:58 21,2 C 63 % 1015,9 hPa 0,0 l/m 2,8 km/h S 183 0 min 0,000 mm 0,7 UV-I 122 W/m 13,9 C 21,2 C 5,7 km/h 100,00 %
26.06.2022 16:57 21,3 C 62 % 1016,0 hPa 0,0 l/m 5,2 km/h S 183 0 min 0,000 mm 0,7 UV-I 120 W/m 13,7 C 21,3 C 7,7 km/h 100,00 %
26.06.2022 16:56 21,3 C 62 % 1016,0 hPa 0,0 l/m 5,2 km/h S 180 0 min 0,000 mm 0,6 UV-I 120 W/m 13,7 C 21,3 C 9,6 km/h 100,00 %
26.06.2022 16:55 21,3 C 61 % 1016,0 hPa 0,0 l/m 5,2 km/h S 169 0 min 0,000 mm 0,6 UV-I 120 W/m 13,5 C 21,3 C 9,6 km/h 100,00 %
26.06.2022 16:54 21,3 C 61 % 1016,0 hPa 0,0 l/m 7,2 km/h S-SO 168 0 min 0,000 mm 0,6 UV-I 121 W/m 13,5 C 21,0 C 13,4 km/h 100,00 %
26.06.2022 16:53 21,4 C 60 % 1016,0 hPa 0,0 l/m 4,5 km/h S 184 0 min 0,000 mm 0,6 UV-I 124 W/m 13,3 C 21,4 C 7,7 km/h 95,65 %
26.06.2022 16:52 21,4 C 59 % 1016,0 hPa 0,0 l/m 4,7 km/h S 183 0 min 0,000 mm 0,7 UV-I 128 W/m 13,0 C 21,4 C 7,7 km/h 95,83 %
26.06.2022 16:51 21,6 C 60 % 1016,0 hPa 0,0 l/m 5,3 km/h S 183 0 min 0,000 mm 0,7 UV-I 132 W/m 13,5 C 21,6 C 7,7 km/h 100,00 %
26.06.2022 16:50 21,6 C 62 % 1016,0 hPa 0,0 l/m 3,9 km/h S 182 0 min 0,000 mm 0,7 UV-I 139 W/m 14,0 C 21,6 C 9,6 km/h 100,00 %
26.06.2022 16:49 21,6 C 62 % 1015,9 hPa 0,0 l/m 3,9 km/h S-SO 165 0 min 0,000 mm 0,8 UV-I 146 W/m 14,0 C 21,6 C 7,7 km/h 100,00 %
26.06.2022 16:48 21,6 C 61 % 1016,0 hPa 0,0 l/m 2,7 km/h S-SW 192 0 min 0,000 mm 0,9 UV-I 159 W/m 13,7 C 21,6 C 5,7 km/h 100,00 %
26.06.2022 16:47 21,7 C 60 % 1015,9 hPa 0,0 l/m 6,4 km/h S-SW 192 0 min 0,000 mm 0,9 UV-I 167 W/m 13,6 C 21,7 C 9,6 km/h 100,00 %
26.06.2022 16:46 21,7 C 61 % 1016,0 hPa 0,0 l/m 4,0 km/h S-SO 159 0 min 0,000 mm 1,0 UV-I 173 W/m 13,8 C 21,7 C 7,7 km/h 100,00 %
26.06.2022 16:45 21,8 C 61 % 1015,9 hPa 0,0 l/m 2,3 km/h S-SO 155 0 min 0,000 mm 1,0 UV-I 176 W/m 13,9 C 21,8 C 3,8 km/h 100,00 %
26.06.2022 16:44 21,8 C 60 % 1016,0 hPa 0,0 l/m 4,2 km/h S-SO 155 0 min 0,000 mm 1,0 UV-I 180 W/m 13,7 C 21,8 C 7,7 km/h 100,00 %
26.06.2022 16:43 21,8 C 59 % 1016,1 hPa 0,0 l/m 6,3 km/h S-SO 152 0 min 0,000 mm 1,1 UV-I 185 W/m 13,4 C 21,8 C 9,6 km/h 92,31 %
26.06.2022 16:42 21,9 C 62 % 1016,0 hPa 0,0 l/m 4,1 km/h S-SO 153 0 min 0,000 mm 1,1 UV-I 194 W/m 14,3 C 21,9 C 5,7 km/h 100,00 %
26.06.2022 16:41 21,9 C 62 % 1016,0 hPa 0,0 l/m 5,0 km/h S-SO 153 0 min 0,000 mm 1,2 UV-I 209 W/m 14,3 C 21,9 C 7,7 km/h 100,00 %
26.06.2022 16:40 21,9 C 60 % 1016,0 hPa 0,0 l/m 1,1 km/h S-SO 163 0 min 0,000 mm 1,3 UV-I 223 W/m 13,8 C 21,9 C 3,8 km/h 100,00 %
26.06.2022 16:39 21,9 C 61 % 1016,0 hPa 0,0 l/m 1,8 km/h S-SO 163 0 min 0,000 mm 1,3 UV-I 234 W/m 14,0 C 21,9 C 3,8 km/h 100,00 %
26.06.2022 16:38 21,9 C 60 % 1016,0 hPa 0,0 l/m 0,8 km/h S-SO 163 0 min 0,000 mm 1,4 UV-I 239 W/m 13,8 C 21,9 C 3,8 km/h 100,00 %
26.06.2022 16:37 22,0 C 59 % 1016,0 hPa 0,0 l/m 3,0 km/h S-SO 163 0 min 0,000 mm 1,4 UV-I 244 W/m 13,6 C 22,0 C 3,8 km/h 99,44 %
26.06.2022 16:36 22,0 C 59 % 1016,0 hPa 0,0 l/m 4,0 km/h S-SO 163 0 min 0,000 mm 1,4 UV-I 248 W/m 13,6 C 22,0 C 7,7 km/h 100,00 %
26.06.2022 16:35 22,0 C 60 % 1016,0 hPa 0,0 l/m 8,1 km/h S-SO 163 0 min 0,000 mm 1,5 UV-I 254 W/m 13,9 C 21,4 C 9,6 km/h 100,00 %
26.06.2022 16:34 21,9 C 60 % 1016,0 hPa 0,0 l/m 3,1 km/h S-SO 167 0 min 0,000 mm 1,5 UV-I 260 W/m 13,8 C 21,9 C 7,7 km/h 96,30 %
26.06.2022 16:33 21,9 C 61 % 1016,0 hPa 0,0 l/m 5,1 km/h S-SO 167 0 min 0,000 mm 1,5 UV-I 269 W/m 14,0 C 21,9 C 7,7 km/h 100,00 %
26.06.2022 16:32 21,9 C 59 % 1016,0 hPa 0,0 l/m 1,7 km/h S-SO 157 0 min 0,000 mm 1,5 UV-I 279 W/m 13,5 C 21,9 C 3,8 km/h 100,00 %
26.06.2022 16:31 21,9 C 59 % 1016,0 hPa 0,0 l/m 1,5 km/h S-SO 157 1 min 0,000 mm 1,6 UV-I 293 W/m 13,5 C 21,9 C 3,8 km/h 100,00 %
26.06.2022 16:30 21,9 C 60 % 1016,0 hPa 0,0 l/m 1,4 km/h S-SO 157 1 min 0,000 mm 1,6 UV-I 309 W/m 13,8 C 21,9 C 3,8 km/h 100,00 %
26.06.2022 16:29 21,9 C 60 % 1016,1 hPa 0,0 l/m 0,2 km/h S-SO 157 1 min 0,000 mm 1,6 UV-I 321 W/m 13,8 C 21,9 C 1,9 km/h 100,00 %
26.06.2022 16:28 21,8 C 60 % 1016,1 hPa 0,0 l/m 0,1 km/h S-SO 157 1 min 0,000 mm 1,6 UV-I 292 W/m 13,7 C 21,8 C 1,9 km/h 100,00 %
26.06.2022 16:27 21,8 C 61 % 1016,1 hPa 0,0 l/m 0,5 km/h S-SO 157 0 min 0,000 mm 1,5 UV-I 270 W/m 13,9 C 21,8 C 1,9 km/h 100,00 %
26.06.2022 16:26 21,8 C 60 % 1016,1 hPa 0,0 l/m 1,0 km/h S-SO 157 0 min 0,000 mm 1,4 UV-I 260 W/m 13,7 C 21,8 C 3,8 km/h 95,65 %
26.06.2022 16:25 21,8 C 60 % 1016,2 hPa 0,0 l/m 0,8 km/h S-SO 157 0 min 0,000 mm 1,3 UV-I 244 W/m 13,7 C 21,8 C 1,9 km/h 95,83 %
26.06.2022 16:24 21,8 C 59 % 1016,2 hPa 0,0 l/m 0,3 km/h S-SO 157 0 min 0,000 mm 1,3 UV-I 230 W/m 13,4 C 21,8 C 1,9 km/h 100,00 %
26.06.2022 16:23 21,8 C 60 % 1016,2 hPa 0,0 l/m 2,8 km/h S-SO 157 0 min 0,000 mm 1,3 UV-I 227 W/m 13,7 C 21,8 C 3,8 km/h 100,00 %
26.06.2022 16:22 21,7 C 61 % 1016,1 hPa 0,0 l/m 0,5 km/h S-SO 157 0 min 0,000 mm 1,3 UV-I 232 W/m 13,8 C 21,7 C 1,9 km/h 100,00 %
26.06.2022 16:21 21,8 C 60 % 1016,1 hPa 0,0 l/m 0,5 km/h S-SO 157 0 min 0,000 mm 1,3 UV-I 242 W/m 13,7 C 21,8 C 1,9 km/h 100,00 %
26.06.2022 16:20 21,8 C 60 % 1016,2 hPa 0,0 l/m 2,1 km/h S-SO 157 0 min 0,000 mm 1,4 UV-I 244 W/m 13,7 C 21,8 C 3,8 km/h 100,00 %
26.06.2022 16:19 21,8 C 61 % 1016,1 hPa 0,0 l/m 0,8 km/h S-SO 157 0 min 0,000 mm 1,4 UV-I 243 W/m 13,9 C 21,8 C 1,9 km/h 100,00 %
26.06.2022 16:18 21,8 C 60 % 1016,1 hPa 0,0 l/m 1,3 km/h S-SO 157 0 min 0,000 mm 1,4 UV-I 241 W/m 13,7 C 21,8 C 1,9 km/h 100,00 %
26.06.2022 16:17 21,8 C 60 % 1016,2 hPa 0,0 l/m 1,3 km/h S-SO 157 0 min 0,000 mm 1,4 UV-I 246 W/m 13,7 C 21,8 C 5,7 km/h 96,30 %
26.06.2022 16:16 21,9 C 59 % 1016,1 hPa 0,0 l/m 1,5 km/h S-SO 157 0 min 0,000 mm 1,4 UV-I 250 W/m 13,5 C 21,9 C 3,8 km/h 95,65 %
26.06.2022 16:15 21,9 C 59 % 1016,1 hPa 0,0 l/m 1,8 km/h S-SO 157 0 min 0,000 mm 1,3 UV-I 238 W/m 13,5 C 21,9 C 3,8 km/h 100,00 %
26.06.2022 16:14 22,0 C 59 % 1016,1 hPa 0,0 l/m 0,8 km/h S-SO 157 0 min 0,000 mm 1,3 UV-I 216 W/m 13,6 C 22,0 C 3,8 km/h 100,00 %
26.06.2022 16:13 22,0 C 58 % 1016,1 hPa 0,0 l/m 0,2 km/h S-SO 157 0 min 0,000 mm 1,3 UV-I 221 W/m 13,3 C 22,0 C 1,9 km/h 100,00 %
26.06.2022 16:12 22,1 C 60 % 1016,1 hPa 0,0 l/m 0,2 km/h S-SO 157 0 min 0,000 mm 1,5 UV-I 261 W/m 14,0 C 22,1 C 1,9 km/h 100,00 %
26.06.2022 16:11 22,1 C 59 % 1016,0 hPa 0,0 l/m 4,0 km/h S-SO 157 1 min 0,000 mm 1,6 UV-I 289 W/m 13,7 C 22,1 C 9,6 km/h 100,00 %
26.06.2022 16:10 22,1 C 59 % 1016,0 hPa 0,0 l/m 3,2 km/h S-SO 157 1 min 0,000 mm 1,7 UV-I 301 W/m 13,7 C 22,1 C 9,6 km/h 100,00 %
26.06.2022 16:09 22,1 C 58 % 1016,1 hPa 0,0 l/m 4,2 km/h O-SO 109 1 min 0,000 mm 1,7 UV-I 300 W/m 13,4 C 22,1 C 7,7 km/h 100,00 %
26.06.2022 16:08 22,1 C 58 % 1016,1 hPa 0,0 l/m 5,3 km/h O-SO 109 1 min 0,000 mm 1,8 UV-I 304 W/m 13,4 C 22,1 C 7,7 km/h 100,00 %
26.06.2022 16:07 22,0 C 57 % 1016,1 hPa 0,0 l/m 4,0 km/h O-SO 109 1 min 0,000 mm 1,8 UV-I 313 W/m 13,1 C 22,0 C 7,7 km/h 100,00 %
26.06.2022 16:06 22,0 C 57 % 1016,1 hPa 0,0 l/m 5,7 km/h O-SO 107 1 min 0,000 mm 1,9 UV-I 324 W/m 13,1 C 22,0 C 7,7 km/h 100,00 %
26.06.2022 16:05 22,1 C 57 % 1016,1 hPa 0,0 l/m 5,9 km/h O-SO 121 1 min 0,000 mm 2,0 UV-I 436 W/m 13,2 C 22,1 C 7,7 km/h 100,00 %
26.06.2022 16:04 22,0 C 58 % 1016,1 hPa 0,0 l/m 5,9 km/h O-SO 119 1 min 0,000 mm 2,2 UV-I 444 W/m 13,3 C 22,0 C 9,6 km/h 100,00 %
26.06.2022 16:03 21,9 C 59 % 1016,1 hPa 0,0 l/m 1,1 km/h SO 137 1 min 0,000 mm 2,3 UV-I 411 W/m 13,5 C 21,9 C 1,9 km/h 100,00 %
26.06.2022 16:02 21,9 C 59 % 1016,1 hPa 0,0 l/m 1,8 km/h SO 137 1 min 0,001 mm 2,5 UV-I 446 W/m 13,5 C 21,9 C 3,8 km/h 100,00 %
26.06.2022 16:01 21,9 C 61 % 1016,1 hPa 0,0 l/m 3,9 km/h SO 137 1 min 0,279 mm 2,7 UV-I 517 W/m 14,0 C 21,9 C 7,7 km/h 100,00 %
26.06.2022 16:00 21,8 C 59 % 1016,1 hPa 0,0 l/m 2,6 km/h SO 136 1 min 0,000 mm 2,6 UV-I 507 W/m 13,4 C 21,8 C 5,7 km/h 100,00 %
26.06.2022 15:59 21,8 C 59 % 1016,2 hPa 0,0 l/m 5,7 km/h SO 129 1 min 0,000 mm 2,7 UV-I 478 W/m 13,4 C 21,8 C 7,7 km/h 100,00 %
26.06.2022 15:58 21,8 C 58 % 1016,1 hPa 0,0 l/m 1,9 km/h SO 130 1 min 0,000 mm 2,9 UV-I 476 W/m 13,2 C 21,8 C 3,8 km/h 100,00 %
26.06.2022 15:57 21,8 C 58 % 1016,1 hPa 0,0 l/m 3,7 km/h SO 130 1 min 0,000 mm 2,8 UV-I 614 W/m 13,2 C 21,8 C 5,7 km/h 100,00 %
26.06.2022 15:56 21,8 C 59 % 1016,1 hPa 0,0 l/m 6,7 km/h SO 130 1 min 0,000 mm 3,3 UV-I 891 W/m 13,4 C 21,7 C 9,6 km/h 100,00 %
26.06.2022 15:55 21,7 C 60 % 1016,0 hPa 0,0 l/m 6,0 km/h SO 134 1 min 0,000 mm 3,9 UV-I 675 W/m 13,6 C 21,7 C 7,7 km/h 100,00 %
26.06.2022 15:54 21,7 C 59 % 1016,1 hPa 0,0 l/m 2,6 km/h SO 134 1 min 0,000 mm 3,6 UV-I 545 W/m 13,3 C 21,7 C 3,8 km/h 100,00 %
26.06.2022 15:53 21,6 C 61 % 1016,0 hPa 0,0 l/m 1,2 km/h SO 134 1 min 0,000 mm 3,1 UV-I 542 W/m 13,7 C 21,6 C 3,8 km/h 100,00 %
26.06.2022 15:52 21,5 C 61 % 1016,0 hPa 0,0 l/m 1,1 km/h SO 134 1 min 0,000 mm 2,9 UV-I 477 W/m 13,7 C 21,5 C 3,8 km/h 100,00 %
26.06.2022 15:51 21,4 C 60 % 1016,1 hPa 0,0 l/m 4,5 km/h SO 136 1 min 0,000 mm 2,7 UV-I 459 W/m 13,3 C 21,4 C 7,7 km/h 100,00 %
26.06.2022 15:50 21,4 C 59 % 1016,1 hPa 0,0 l/m 2,9 km/h SO 138 1 min 0,000 mm 2,6 UV-I 425 W/m 13,0 C 21,4 C 5,7 km/h 100,00 %
26.06.2022 15:49 21,5 C 59 % 1016,1 hPa 0,0 l/m 3,7 km/h SO 138 1 min 0,000 mm 2,6 UV-I 418 W/m 13,1 C 21,5 C 5,7 km/h 100,00 %
26.06.2022 15:48 21,6 C 59 % 1016,2 hPa 0,0 l/m 4,2 km/h SO 138 1 min 0,000 mm 2,6 UV-I 440 W/m 13,2 C 21,6 C 5,7 km/h 93,33 %
26.06.2022 15:47 21,5 C 61 % 1016,2 hPa 0,0 l/m 0,7 km/h SO 128 1 min 0,000 mm 2,6 UV-I 432 W/m 13,7 C 21,5 C 1,9 km/h 100,00 %
26.06.2022 15:46 21,6 C 60 % 1016,2 hPa 0,0 l/m 1,1 km/h SO 128 1 min 0,000 mm 2,4 UV-I 406 W/m 13,5 C 21,6 C 3,8 km/h 100,00 %
26.06.2022 15:45 21,6 C 59 % 1016,2 hPa 0,0 l/m 3,6 km/h SO 128 1 min 0,000 mm 2,2 UV-I 334 W/m 13,2 C 21,6 C 5,7 km/h 96,30 %
26.06.2022 15:44 21,6 C 61 % 1016,2 hPa 0,0 l/m 2,2 km/h SO 128 1 min 0,000 mm 2,1 UV-I 317 W/m 13,7 C 21,6 C 7,7 km/h 100,00 %
26.06.2022 15:43 21,7 C 60 % 1016,2 hPa 0,0 l/m 0,1 km/h SO 128 1 min 0,000 mm 2,2 UV-I 327 W/m 13,6 C 21,7 C 1,9 km/h 100,00 %
26.06.2022 15:42 21,7 C 60 % 1016,2 hPa 0,0 l/m 0,8 km/h SO 128 1 min 0,000 mm 2,2 UV-I 344 W/m 13,6 C 21,7 C 1,9 km/h 95,65 %
26.06.2022 15:41 21,7 C 60 % 1016,2 hPa 0,0 l/m 0,0 km/h SO 128 1 min 0,000 mm 2,2 UV-I 357 W/m 13,6 C 21,7 C 0,0 km/h 100,00 %
26.06.2022 15:40 21,6 C 59 % 1016,2 hPa 0,0 l/m 0,1 km/h SO 128 1 min 0,000 mm 2,3 UV-I 368 W/m 13,2 C 21,6 C 1,9 km/h 100,00 %
26.06.2022 15:39 21,6 C 59 % 1016,2 hPa 0,0 l/m 0,0 km/h SO 128 1 min 0,000 mm 2,5 UV-I 377 W/m 13,2 C 21,6 C 0,0 km/h 100,00 %
26.06.2022 15:38 21,5 C 59 % 1016,2 hPa 0,0 l/m 0,1 km/h SO 128 1 min 0,000 mm 2,6 UV-I 536 W/m 13,1 C 21,5 C 1,9 km/h 100,00 %
26.06.2022 15:37 21,4 C 60 % 1016,3 hPa 0,0 l/m 3,0 km/h SO 128 1 min 0,000 mm 2,9 UV-I 666 W/m 13,3 C 21,4 C 5,7 km/h 100,00 %
26.06.2022 15:36 21,3 C 60 % 1016,3 hPa 0,0 l/m 2,5 km/h SO 128 1 min 0,000 mm 3,4 UV-I 666 W/m 13,2 C 21,3 C 3,8 km/h 100,00 %
26.06.2022 15:35 21,2 C 62 % 1016,2 hPa 0,0 l/m 3,9 km/h SO 128 1 min 0,000 mm 3,3 UV-I 657 W/m 13,6 C 21,2 C 5,7 km/h 100,00 %
26.06.2022 15:34 21,2 C 63 % 1016,3 hPa 0,0 l/m 6,0 km/h SO 128 1 min 0,000 mm 3,4 UV-I 639 W/m 13,9 C 21,2 C 9,6 km/h 100,00 %
26.06.2022 15:33 21,1 C 64 % 1016,3 hPa 0,0 l/m 3,9 km/h SO 128 1 min 0,000 mm 3,3 UV-I 626 W/m 14,0 C 21,1 C 5,7 km/h 100,00 %
26.06.2022 15:32 21,1 C 61 % 1016,3 hPa 0,0 l/m 6,8 km/h SO 128 1 min 0,000 mm 3,2 UV-I 611 W/m 13,3 C 21,0 C 7,7 km/h 99,44 %
26.06.2022 15:31 21,2 C 63 % 1016,3 hPa 0,0 l/m 6,2 km/h SO 130 1 min 0,000 mm 3,2 UV-I 597 W/m 13,9 C 21,2 C 7,7 km/h 100,00 %
26.06.2022 15:30 21,2 C 64 % 1016,3 hPa 0,0 l/m 6,6 km/h SO 129 1 min 0,000 mm 3,2 UV-I 594 W/m 14,1 C 21,1 C 9,6 km/h 100,00 %
26.06.2022 15:29 21,1 C 65 % 1016,3 hPa 0,0 l/m 4,1 km/h SO 132 1 min 0,000 mm 3,1 UV-I 569 W/m 14,3 C 21,1 C 7,7 km/h 100,00 %
26.06.2022 15:28 21,0 C 66 % 1016,4 hPa 0,0 l/m 4,1 km/h SO 138 1 min 0,000 mm 2,9 UV-I 527 W/m 14,4 C 21,0 C 9,6 km/h 100,00 %
26.06.2022 15:27 20,9 C 66 % 1016,4 hPa 0,0 l/m 1,6 km/h SO 138 1 min 0,000 mm 2,8 UV-I 499 W/m 14,3 C 20,9 C 3,8 km/h 100,00 %
26.06.2022 15:26 20,9 C 66 % 1016,4 hPa 0,0 l/m 5,2 km/h SO 138 1 min 0,000 mm 2,7 UV-I 478 W/m 14,3 C 20,9 C 7,7 km/h 100,00 %
26.06.2022 15:25 20,9 C 66 % 1016,4 hPa 0,0 l/m 3,4 km/h SO 139 1 min 0,000 mm 2,7 UV-I 492 W/m 14,3 C 20,9 C 5,7 km/h 95,65 %
26.06.2022 15:24 21,1 C 67 % 1016,4 hPa 0,0 l/m 5,8 km/h SO 139 1 min 0,000 mm 2,6 UV-I 464 W/m 14,7 C 21,1 C 9,6 km/h 95,83 %
26.06.2022 15:23 21,1 C 66 % 1016,4 hPa 0,0 l/m 3,8 km/h SO 143 1 min 0,000 mm 2,5 UV-I 437 W/m 14,5 C 21,1 C 5,7 km/h 100,00 %
26.06.2022 15:22 21,1 C 67 % 1016,4 hPa 0,0 l/m 4,9 km/h SO 143 1 min 0,000 mm 2,5 UV-I 457 W/m 14,7 C 21,1 C 7,7 km/h 100,00 %
26.06.2022 15:21 21,0 C 68 % 1016,4 hPa 0,0 l/m 6,6 km/h S-SO 153 1 min 0,000 mm 2,7 UV-I 499 W/m 14,9 C 20,9 C 9,6 km/h 100,00 %
26.06.2022 15:20 20,9 C 67 % 1016,4 hPa 0,0 l/m 3,1 km/h O-SO 110 1 min 0,000 mm 2,6 UV-I 494 W/m 14,5 C 20,9 C 5,7 km/h 100,00 %
26.06.2022 15:19 20,9 C 66 % 1016,5 hPa 0,0 l/m 3,3 km/h O-SO 111 1 min 0,000 mm 2,5 UV-I 462 W/m 14,3 C 20,9 C 5,7 km/h 100,00 %
26.06.2022 15:18 20,9 C 67 % 1016,4 hPa 0,0 l/m 3,8 km/h O-SO 111 1 min 0,000 mm 2,4 UV-I 425 W/m 14,5 C 20,9 C 7,7 km/h 100,00 %
26.06.2022 15:17 20,9 C 67 % 1016,5 hPa 0,0 l/m 6,0 km/h O-SO 111 1 min 0,000 mm 2,3 UV-I 401 W/m 14,5 C 20,9 C 7,7 km/h 100,00 %
26.06.2022 15:16 20,8 C 67 % 1016,5 hPa 0,0 l/m 5,6 km/h O-SO 109 1 min 0,000 mm 2,2 UV-I 383 W/m 14,4 C 20,8 C 7,7 km/h 100,00 %
26.06.2022 15:15 20,8 C 67 % 1016,5 hPa 0,0 l/m 4,5 km/h O-SO 115 1 min 0,000 mm 2,1 UV-I 367 W/m 14,4 C 20,8 C 7,7 km/h 92,31 %
26.06.2022 15:14 20,8 C 67 % 1016,6 hPa 0,0 l/m 3,2 km/h SO 128 1 min 0,000 mm 2,1 UV-I 352 W/m 14,4 C 20,8 C 5,7 km/h 100,00 %
26.06.2022 15:13 20,9 C 67 % 1016,5 hPa 0,0 l/m 7,1 km/h SO 128 1 min 0,000 mm 2,0 UV-I 341 W/m 14,5 C 20,6 C 9,6 km/h 100,00 %
26.06.2022 15:12 20,9 C 67 % 1016,6 hPa 0,0 l/m 5,3 km/h SO 130 1 min 0,000 mm 2,0 UV-I 338 W/m 14,5 C 20,9 C 7,7 km/h 100,00 %
26.06.2022 15:11 20,9 C 67 % 1016,6 hPa 0,0 l/m 6,2 km/h SO 133 1 min 0,000 mm 2,0 UV-I 338 W/m 14,5 C 20,9 C 9,6 km/h 100,00 %
26.06.2022 15:10 20,9 C 67 % 1016,5 hPa 0,0 l/m 5,2 km/h S 183 1 min 0,000 mm 2,0 UV-I 332 W/m 14,5 C 20,9 C 7,7 km/h 100,00 %
26.06.2022 15:09 20,9 C 67 % 1016,5 hPa 0,0 l/m 1,4 km/h S-SW 194 1 min 0,000 mm 1,9 UV-I 317 W/m 14,5 C 20,9 C 5,7 km/h 100,00 %
26.06.2022 15:08 20,9 C 66 % 1016,6 hPa 0,0 l/m 1,2 km/h SW 232 1 min 0,000 mm 1,8 UV-I 301 W/m 14,3 C 20,9 C 3,8 km/h 100,00 %
26.06.2022 15:07 20,8 C 66 % 1016,6 hPa 0,0 l/m 0,0 km/h SW 232 1 min 0,000 mm 1,8 UV-I 292 W/m 14,2 C 20,8 C 0,0 km/h 100,00 %
26.06.2022 15:06 20,8 C 67 % 1016,5 hPa 0,0 l/m 0,0 km/h SW 232 0 min 0,000 mm 1,7 UV-I 287 W/m 14,4 C 20,8 C 0,0 km/h 100,00 %
26.06.2022 15:05 20,7 C 66 % 1016,5 hPa 0,0 l/m 0,1 km/h SW 232 0 min 0,000 mm 1,7 UV-I 285 W/m 14,1 C 20,7 C 1,9 km/h 100,00 %
26.06.2022 15:04 20,7 C 65 % 1016,5 hPa 0,0 l/m 2,7 km/h SW 232 0 min 0,000 mm 1,7 UV-I 282 W/m 13,9 C 20,7 C 3,8 km/h 95,65 %
26.06.2022 15:03 20,6 C 65 % 1016,5 hPa 0,0 l/m 3,3 km/h SW 232 0 min 0,000 mm 1,7 UV-I 280 W/m 13,8 C 20,6 C 3,8 km/h 96,30 %
26.06.2022 15:02 20,6 C 64 % 1016,5 hPa 0,0 l/m 0,8 km/h SW 232 0 min 0,000 mm 1,6 UV-I 277 W/m 13,5 C 20,6 C 3,8 km/h 100,00 %
26.06.2022 15:01 20,6 C 65 % 1016,6 hPa 0,0 l/m 0,0 km/h SW 232 0 min 0,152 mm 1,6 UV-I 273 W/m 13,8 C 20,6 C 0,0 km/h 100,00 %
26.06.2022 15:00 20,5 C 65 % 1016,5 hPa 0,0 l/m 0,0 km/h SW 232 0 min 0,000 mm 1,6 UV-I 265 W/m 13,7 C 20,5 C 0,0 km/h 100,00 %
26.06.2022 14:59 20,5 C 65 % 1016,6 hPa 0,0 l/m 0,1 km/h SW 232 0 min 0,000 mm 1,6 UV-I 258 W/m 13,7 C 20,5 C 1,9 km/h 100,00 %
26.06.2022 14:58 20,4 C 64 % 1016,5 hPa 0,0 l/m 0,0 km/h SW 232 0 min 0,000 mm 1,4 UV-I 247 W/m 13,4 C 20,4 C 0,0 km/h 100,00 %
26.06.2022 14:57 20,4 C 64 % 1016,5 hPa 0,0 l/m 0,0 km/h SW 232 0 min 0,000 mm 1,4 UV-I 236 W/m 13,4 C 20,4 C 0,0 km/h 100,00 %
26.06.2022 14:56 20,4 C 65 % 1016,6 hPa 0,0 l/m 0,0 km/h SW 232 0 min 0,000 mm 1,4 UV-I 230 W/m 13,6 C 20,4 C 0,0 km/h 100,00 %
26.06.2022 14:55 20,4 C 65 % 1016,6 hPa 0,0 l/m 0,2 km/h SW 232 0 min 0,000 mm 1,4 UV-I 229 W/m 13,6 C 20,4 C 1,9 km/h 100,00 %
26.06.2022 14:54 20,4 C 64 % 1016,6 hPa 0,0 l/m 0,2 km/h SW 232 0 min 0,000 mm 1,4 UV-I 230 W/m 13,4 C 20,4 C 1,9 km/h 100,00 %
26.06.2022 14:53 20,4 C 65 % 1016,6 hPa 0,0 l/m 0,1 km/h SW 232 0 min 0,000 mm 1,4 UV-I 233 W/m 13,6 C 20,4 C 1,9 km/h 100,00 %
26.06.2022 14:52 20,4 C 65 % 1016,5 hPa 0,0 l/m 0,0 km/h SW 232 0 min 0,000 mm 1,3 UV-I 224 W/m 13,6 C 20,4 C 0,0 km/h 100,00 %
26.06.2022 14:51 20,3 C 64 % 1016,6 hPa 0,0 l/m 0,0 km/h SW 232 0 min 0,000 mm 1,3 UV-I 208 W/m 13,3 C 20,3 C 0,0 km/h 100,00 %
26.06.2022 14:50 20,3 C 64 % 1016,6 hPa 0,0 l/m 0,0 km/h SW 232 0 min 0,000 mm 1,2 UV-I 191 W/m 13,3 C 20,3 C 0,0 km/h 100,00 %
26.06.2022 14:49 20,3 C 65 % 1016,6 hPa 0,0 l/m 0,0 km/h SW 232 0 min 0,000 mm 1,1 UV-I 178 W/m 13,5 C 20,3 C 0,0 km/h 100,00 %
26.06.2022 14:48 20,3 C 64 % 1016,6 hPa 0,0 l/m 0,5 km/h SW 232 0 min 0,000 mm 1,1 UV-I 171 W/m 13,3 C 20,3 C 1,9 km/h 100,00 %
26.06.2022 14:47 20,3 C 66 % 1016,6 hPa 0,0 l/m 2,5 km/h SW 232 0 min 0,000 mm 1,1 UV-I 174 W/m 13,7 C 20,3 C 3,8 km/h 100,00 %
26.06.2022 14:46 20,3 C 66 % 1016,6 hPa 0,0 l/m 0,3 km/h SW 232 0 min 0,000 mm 1,2 UV-I 180 W/m 13,7 C 20,3 C 1,9 km/h 100,00 %
26.06.2022 14:45 20,3 C 64 % 1016,6 hPa 0,0 l/m 2,9 km/h SW 232 0 min 0,000 mm 1,2 UV-I 185 W/m 13,3 C 20,3 C 3,8 km/h 100,00 %
26.06.2022 14:44 20,3 C 65 % 1016,6 hPa 0,0 l/m 0,8 km/h SW 232 0 min 0,000 mm 1,2 UV-I 186 W/m 13,5 C 20,3 C 1,9 km/h 100,00 %
26.06.2022 14:43 20,3 C 65 % 1016,5 hPa 0,0 l/m 0,1 km/h SW 232 0 min 0,000 mm 1,1 UV-I 182 W/m 13,5 C 20,3 C 1,9 km/h 100,00 %
26.06.2022 14:42 20,3 C 65 % 1016,5 hPa 0,0 l/m 3,2 km/h SW 232 0 min 0,000 mm 1,1 UV-I 171 W/m 13,5 C 20,3 C 5,7 km/h 100,00 %
26.06.2022 14:41 20,4 C 64 % 1016,5 hPa 0,0 l/m 3,7 km/h SW 232 0 min 0,000 mm 1,0 UV-I 159 W/m 13,4 C 20,4 C 5,7 km/h 100,00 %
26.06.2022 14:40 20,4 C 64 % 1016,4 hPa 0,0 l/m 3,3 km/h SW 232 0 min 0,000 mm 1,0 UV-I 151 W/m 13,4 C 20,4 C 5,7 km/h 100,00 %
26.06.2022 14:39 20,4 C 65 % 1016,4 hPa 0,0 l/m 2,5 km/h SW 232 0 min 0,000 mm 1,0 UV-I 148 W/m 13,6 C 20,4 C 3,8 km/h 100,00 %
26.06.2022 14:38 20,4 C 65 % 1016,4 hPa 0,0 l/m 1,1 km/h SW 232 0 min 0,000 mm 1,0 UV-I 149 W/m 13,6 C 20,4 C 3,8 km/h 100,00 %
26.06.2022 14:37 20,4 C 65 % 1016,3 hPa 0,0 l/m 1,8 km/h SW 232 0 min 0,000 mm 1,0 UV-I 151 W/m 13,6 C 20,4 C 3,8 km/h 100,00 %
26.06.2022 14:36 20,4 C 64 % 1016,4 hPa 0,0 l/m 3,3 km/h SW 232 0 min 0,000 mm 1,0 UV-I 157 W/m 13,4 C 20,4 C 5,7 km/h 100,00 %
26.06.2022 14:35 20,4 C 64 % 1016,4 hPa 0,0 l/m 1,0 km/h SW 232 0 min 0,000 mm 1,1 UV-I 164 W/m 13,4 C 20,4 C 1,9 km/h 95,65 %
26.06.2022 14:34 20,4 C 64 % 1016,4 hPa 0,0 l/m 2,6 km/h SW 232 0 min 0,000 mm 1,1 UV-I 172 W/m 13,4 C 20,4 C 5,7 km/h 100,00 %
26.06.2022 14:33 20,4 C 65 % 1016,3 hPa 0,0 l/m 1,3 km/h SW 232 0 min 0,000 mm 1,2 UV-I 181 W/m 13,6 C 20,4 C 3,8 km/h 96,15 %
26.06.2022 14:32 20,4 C 65 % 1016,3 hPa 0,0 l/m 0,3 km/h SW 232 0 min 0,000 mm 1,2 UV-I 185 W/m 13,6 C 20,4 C 1,9 km/h 100,00 %
26.06.2022 14:31 20,4 C 64 % 1016,4 hPa 0,0 l/m 2,1 km/h SW 232 0 min 0,000 mm 1,2 UV-I 188 W/m 13,4 C 20,4 C 3,8 km/h 100,00 %
26.06.2022 14:30 20,4 C 64 % 1016,3 hPa 0,0 l/m 2,1 km/h SW 232 0 min 0,000 mm 1,2 UV-I 188 W/m 13,4 C 20,4 C 3,8 km/h 100,00 %
26.06.2022 14:29 20,4 C 63 % 1016,3 hPa 0,0 l/m 1,6 km/h SW 232 0 min 0,000 mm 1,2 UV-I 191 W/m 13,1 C 20,4 C 3,8 km/h 100,00 %
26.06.2022 14:28 20,4 C 64 % 1016,3 hPa 0,0 l/m 0,2 km/h SW 232 0 min 0,000 mm 1,3 UV-I 196 W/m 13,4 C 20,4 C 1,9 km/h 100,00 %
26.06.2022 14:27 20,4 C 63 % 1016,3 hPa 0,0 l/m 1,1 km/h SW 232 0 min 0,000 mm 1,3 UV-I 204 W/m 13,1 C 20,4 C 1,9 km/h 91,67 %
26.06.2022 14:26 20,5 C 66 % 1016,3 hPa 0,0 l/m 3,3 km/h SW 232 0 min 0,000 mm 1,4 UV-I 212 W/m 13,9 C 20,5 C 5,7 km/h 100,00 %
26.06.2022 14:25 20,5 C 65 % 1016,3 hPa 0,0 l/m 1,3 km/h SW 232 0 min 0,000 mm 1,4 UV-I 218 W/m 13,7 C 20,5 C 3,8 km/h 100,00 %
26.06.2022 14:24 20,4 C 65 % 1016,3 hPa 0,0 l/m 0,0 km/h SW 232 0 min 0,000 mm 1,5 UV-I 224 W/m 13,6 C 20,4 C 0,0 km/h 100,00 %
26.06.2022 14:23 20,4 C 65 % 1016,3 hPa 0,0 l/m 0,0 km/h SW 232 0 min 0,000 mm 1,6 UV-I 235 W/m 13,6 C 20,4 C 0,0 km/h 100,00 %
26.06.2022 14:22 20,4 C 65 % 1016,3 hPa 0,0 l/m 0,4 km/h SW 232 0 min 0,000 mm 1,7 UV-I 251 W/m 13,6 C 20,4 C 1,9 km/h 100,00 %
26.06.2022 14:21 20,3 C 66 % 1016,3 hPa 0,0 l/m 1,3 km/h SW 232 0 min 0,000 mm 1,8 UV-I 266 W/m 13,7 C 20,3 C 3,8 km/h 100,00 %
26.06.2022 14:20 20,3 C 65 % 1016,4 hPa 0,0 l/m 4,5 km/h SW 232 0 min 0,000 mm 1,9 UV-I 282 W/m 13,5 C 20,3 C 9,6 km/h 100,00 %
26.06.2022 14:19 20,3 C 67 % 1016,4 hPa 0,0 l/m 1,5 km/h S-SW 201 1 min 0,000 mm 1,9 UV-I 297 W/m 14,0 C 20,3 C 5,7 km/h 100,00 %
26.06.2022 14:18 20,3 C 66 % 1016,4 hPa 0,0 l/m 4,1 km/h S-SW 201 1 min 0,000 mm 2,0 UV-I 314 W/m 13,7 C 20,3 C 7,7 km/h 100,00 %
26.06.2022 14:17 20,3 C 67 % 1016,4 hPa 0,0 l/m 3,7 km/h S-SW 198 1 min 0,000 mm 2,2 UV-I 329 W/m 14,0 C 20,3 C 7,7 km/h 100,00 %
26.06.2022 14:16 20,3 C 68 % 1016,5 hPa 0,0 l/m 2,2 km/h S-SW 196 1 min 0,000 mm 2,3 UV-I 344 W/m 14,2 C 20,3 C 5,7 km/h 100,00 %
26.06.2022 14:15 20,3 C 67 % 1016,5 hPa 0,0 l/m 1,3 km/h S-SW 196 1 min 0,000 mm 2,3 UV-I 362 W/m 14,0 C 20,3 C 3,8 km/h 100,00 %
26.06.2022 14:14 20,3 C 67 % 1016,5 hPa 0,0 l/m 3,5 km/h S-SW 196 1 min 0,000 mm 2,3 UV-I 407 W/m 14,0 C 20,3 C 5,7 km/h 100,00 %
26.06.2022 14:13 20,4 C 68 % 1016,5 hPa 0,0 l/m 3,7 km/h S-SW 196 1 min 0,000 mm 2,4 UV-I 415 W/m 14,3 C 20,4 C 7,7 km/h 93,33 %
26.06.2022 14:12 20,4 C 68 % 1016,5 hPa 0,0 l/m 3,3 km/h W-SW 237 1 min 0,000 mm 2,2 UV-I 360 W/m 14,3 C 20,4 C 5,7 km/h 100,00 %
26.06.2022 14:11 20,4 C 68 % 1016,5 hPa 0,0 l/m 6,5 km/h W-SW 240 1 min 0,000 mm 2,0 UV-I 337 W/m 14,3 C 20,4 C 9,6 km/h 100,00 %
26.06.2022 14:10 20,4 C 68 % 1016,5 hPa 0,0 l/m 6,0 km/h SW 233 1 min 0,000 mm 1,9 UV-I 295 W/m 14,3 C 20,4 C 9,6 km/h 100,00 %
26.06.2022 14:09 20,4 C 67 % 1016,5 hPa 0,0 l/m 3,4 km/h SW 230 0 min 0,000 mm 1,6 UV-I 260 W/m 14,1 C 20,4 C 9,6 km/h 95,65 %
26.06.2022 14:08 20,5 C 67 % 1016,5 hPa 0,0 l/m 7,3 km/h SW 223 0 min 0,000 mm 1,5 UV-I 239 W/m 14,2 C 20,1 C 9,6 km/h 95,83 %
26.06.2022 14:07 20,6 C 67 % 1016,5 hPa 0,0 l/m 6,0 km/h SW 221 0 min 0,000 mm 1,4 UV-I 228 W/m 14,3 C 20,6 C 11,5 km/h 100,00 %
26.06.2022 14:06 20,6 C 66 % 1016,5 hPa 0,0 l/m 4,1 km/h S-SW 199 0 min 0,000 mm 1,4 UV-I 220 W/m 14,0 C 20,6 C 7,7 km/h 100,00 %
26.06.2022 14:05 20,7 C 65 % 1016,5 hPa 0,0 l/m 8,0 km/h SW 231 0 min 0,000 mm 1,4 UV-I 216 W/m 13,9 C 20,1 C 11,5 km/h 100,00 %
26.06.2022 14:04 20,7 C 64 % 1016,5 hPa 0,0 l/m 8,1 km/h SW 215 0 min 0,000 mm 1,4 UV-I 211 W/m 13,6 C 20,0 C 11,5 km/h 100,00 %
26.06.2022 14:03 20,7 C 65 % 1016,5 hPa 0,0 l/m 7,6 km/h S-SW 207 0 min 0,000 mm 1,3 UV-I 206 W/m 13,9 C 20,2 C 11,5 km/h 100,00 %
26.06.2022 14:02 20,7 C 66 % 1016,5 hPa 0,0 l/m 5,5 km/h SW 226 0 min 0,000 mm 1,3 UV-I 204 W/m 14,1 C 20,7 C 11,5 km/h 100,00 %
26.06.2022 14:01 20,7 C 66 % 1016,5 hPa 0,0 l/m 3,8 km/h SW 229 0 min 0,000 mm 1,4 UV-I 211 W/m 14,1 C 20,7 C 9,6 km/h 91,30 %
26.06.2022 14:00 20,7 C 66 % 1016,5 hPa 0,0 l/m 3,4 km/h SW 230 0 min 0,203 mm 1,5 UV-I 225 W/m 14,1 C 20,7 C 9,6 km/h 100,00 %
26.06.2022 13:59 20,7 C 65 % 1016,5 hPa 0,0 l/m 4,4 km/h SW 223 0 min 0,000 mm 1,7 UV-I 246 W/m 13,9 C 20,7 C 7,7 km/h 100,00 %
26.06.2022 13:58 20,7 C 64 % 1016,5 hPa 0,0 l/m 5,8 km/h SW 220 0 min 0,000 mm 1,8 UV-I 268 W/m 13,6 C 20,7 C 9,6 km/h 100,00 %
26.06.2022 13:57 20,7 C 64 % 1016,5 hPa 0,0 l/m 4,1 km/h S-SW 203 1 min 0,000 mm 1,9 UV-I 289 W/m 13,6 C 20,7 C 9,6 km/h 100,00 %
26.06.2022 13:56 20,7 C 64 % 1016,5 hPa 0,0 l/m 6,0 km/h S-SW 203 1 min 0,000 mm 1,9 UV-I 298 W/m 13,6 C 20,7 C 9,6 km/h 100,00 %
26.06.2022 13:55 20,7 C 65 % 1016,5 hPa 0,0 l/m 6,4 km/h S-SW 196 1 min 0,000 mm 1,9 UV-I 296 W/m 13,9 C 20,7 C 11,5 km/h 100,00 %
26.06.2022 13:54 20,7 C 66 % 1016,5 hPa 0,0 l/m 4,5 km/h SW 219 1 min 0,000 mm 1,9 UV-I 289 W/m 14,1 C 20,7 C 9,6 km/h 100,00 %
26.06.2022 13:53 20,7 C 65 % 1016,5 hPa 0,0 l/m 5,8 km/h SW 227 0 min 0,000 mm 1,8 UV-I 286 W/m 13,9 C 20,7 C 9,6 km/h 100,00 %
26.06.2022 13:52 20,7 C 66 % 1016,5 hPa 0,0 l/m 9,1 km/h SW 227 0 min 0,000 mm 1,8 UV-I 286 W/m 14,1 C 19,7 C 15,3 km/h 100,00 %
26.06.2022 13:51 20,7 C 65 % 1016,5 hPa 0,0 l/m 6,5 km/h SW 217 2 min 0,000 mm 1,9 UV-I 294 W/m 13,9 C 20,7 C 13,4 km/h 100,00 %
26.06.2022 13:49 20,7 C 67 % 1016,5 hPa 0,0 l/m 5,6 km/h S-SW 213 1 min 0,000 mm 2,0 UV-I 309 W/m 14,3 C 20,7 C 15,3 km/h 100,00 %
26.06.2022 13:48 20,7 C 68 % 1016,5 hPa 0,0 l/m 3,8 km/h S-SW 207 1 min 0,000 mm 2,1 UV-I 325 W/m 14,6 C 20,7 C 7,7 km/h 100,00 %
26.06.2022 13:47 20,7 C 66 % 1016,5 hPa 0,0 l/m 4,5 km/h S-SW 200 1 min 0,000 mm 2,2 UV-I 337 W/m 14,1 C 20,7 C 5,7 km/h 100,00 %
26.06.2022 13:46 20,7 C 66 % 1016,5 hPa 0,0 l/m 7,8 km/h S 176 1 min 0,000 mm 2,2 UV-I 350 W/m 14,1 C 20,2 C 13,4 km/h 95,65 %
26.06.2022 13:45 20,7 C 65 % 1016,5 hPa 0,0 l/m 6,7 km/h SW 217 1 min 0,000 mm 2,3 UV-I 361 W/m 13,9 C 20,6 C 9,6 km/h 100,00 %
26.06.2022 13:44 20,8 C 66 % 1016,4 hPa 0,0 l/m 4,6 km/h S-SW 198 1 min 0,000 mm 2,3 UV-I 372 W/m 14,2 C 20,8 C 7,7 km/h 100,00 %
26.06.2022 13:43 20,8 C 66 % 1016,4 hPa 0,0 l/m 5,5 km/h S-SW 195 1 min 0,000 mm 2,3 UV-I 360 W/m 14,2 C 20,8 C 7,7 km/h 100,00 %
26.06.2022 13:42 20,8 C 66 % 1016,4 hPa 0,0 l/m 4,6 km/h S 186 1 min 0,000 mm 2,1 UV-I 340 W/m 14,2 C 20,8 C 9,6 km/h 100,00 %
26.06.2022 13:41 20,8 C 66 % 1016,4 hPa 0,0 l/m 7,0 km/h S 184 1 min 0,000 mm 2,0 UV-I 325 W/m 14,2 C 20,6 C 9,6 km/h 100,00 %
26.06.2022 13:40 20,8 C 66 % 1016,4 hPa 0,0 l/m 4,6 km/h S-SW 206 1 min 0,000 mm 1,9 UV-I 299 W/m 14,2 C 20,8 C 9,6 km/h 100,00 %
26.06.2022 13:39 20,8 C 66 % 1016,4 hPa 0,0 l/m 3,7 km/h S-SW 207 0 min 0,000 mm 1,7 UV-I 278 W/m 14,2 C 20,8 C 5,7 km/h 100,00 %
26.06.2022 13:38 20,8 C 67 % 1016,4 hPa 0,0 l/m 4,4 km/h S-SW 211 0 min 0,000 mm 1,6 UV-I 259 W/m 14,4 C 20,8 C 7,7 km/h 100,00 %
26.06.2022 13:37 20,8 C 66 % 1016,3 hPa 0,0 l/m 4,1 km/h S-SW 200 0 min 0,000 mm 1,6 UV-I 251 W/m 14,2 C 20,8 C 5,7 km/h 100,00 %
26.06.2022 13:36 20,8 C 66 % 1016,3 hPa 0,0 l/m 7,4 km/h S-SW 201 0 min 0,000 mm 1,6 UV-I 250 W/m 14,2 C 20,4 C 9,6 km/h 100,00 %
26.06.2022 13:35 20,8 C 65 % 1016,3 hPa 0,0 l/m 3,1 km/h S 182 0 min 0,000 mm 1,6 UV-I 251 W/m 14,0 C 20,8 C 5,7 km/h 100,00 %
26.06.2022 13:34 20,8 C 65 % 1016,3 hPa 0,0 l/m 2,0 km/h S 182 0 min 0,000 mm 1,6 UV-I 256 W/m 14,0 C 20,8 C 5,7 km/h 100,00 %
26.06.2022 13:33 20,8 C 65 % 1016,3 hPa 0,0 l/m 3,7 km/h S 181 0 min 0,000 mm 1,7 UV-I 263 W/m 14,0 C 20,8 C 5,7 km/h 100,00 %
26.06.2022 13:32 20,8 C 65 % 1016,3 hPa 0,0 l/m 5,6 km/h S 181 0 min 0,000 mm 1,7 UV-I 269 W/m 14,0 C 20,8 C 9,6 km/h 100,00 %
26.06.2022 13:31 20,9 C 65 % 1016,3 hPa 0,0 l/m 6,5 km/h S-SW 207 0 min 0,000 mm 1,7 UV-I 276 W/m 14,1 C 20,9 C 9,6 km/h 100,00 %
26.06.2022 13:30 20,9 C 65 % 1016,4 hPa 0,0 l/m 6,3 km/h S-SW 208 0 min 0,000 mm 1,8 UV-I 283 W/m 14,1 C 20,9 C 9,6 km/h 100,00 %
26.06.2022 13:29 20,9 C 65 % 1016,4 hPa 0,0 l/m 5,3 km/h S-SW 197 1 min 0,000 mm 1,9 UV-I 291 W/m 14,1 C 20,9 C 7,7 km/h 91,30 %
26.06.2022 13:28 21,0 C 65 % 1016,3 hPa 0,0 l/m 4,9 km/h S 187 1 min 0,000 mm 1,9 UV-I 295 W/m 14,2 C 21,0 C 7,7 km/h 100,00 %
26.06.2022 13:27 21,1 C 65 % 1016,3 hPa 0,0 l/m 5,2 km/h S 187 1 min 0,000 mm 1,9 UV-I 298 W/m 14,3 C 21,1 C 9,6 km/h 100,00 %
26.06.2022 13:26 21,1 C 64 % 1016,3 hPa 0,0 l/m 7,1 km/h SW 217 1 min 0,000 mm 1,9 UV-I 304 W/m 14,0 C 20,8 C 11,5 km/h 100,00 %
26.06.2022 13:25 21,1 C 63 % 1016,3 hPa 0,0 l/m 5,9 km/h SW 219 1 min 0,000 mm 2,0 UV-I 311 W/m 13,8 C 21,1 C 7,7 km/h 96,15 %
26.06.2022 13:24 21,1 C 64 % 1016,4 hPa 0,0 l/m 4,7 km/h SW 236 1 min 0,000 mm 2,0 UV-I 318 W/m 14,0 C 21,1 C 7,7 km/h 100,00 %
26.06.2022 13:23 21,0 C 63 % 1016,4 hPa 0,0 l/m 2,9 km/h SW 236 1 min 0,000 mm 2,0 UV-I 324 W/m 13,7 C 21,0 C 3,8 km/h 100,00 %
26.06.2022 13:22 21,1 C 63 % 1016,4 hPa 0,0 l/m 5,8 km/h W 263 1 min 0,000 mm 2,0 UV-I 325 W/m 13,8 C 21,1 C 7,7 km/h 100,00 %
26.06.2022 13:21 21,1 C 63 % 1016,3 hPa 0,0 l/m 3,8 km/h SW 226 1 min 0,000 mm 2,0 UV-I 323 W/m 13,8 C 21,1 C 9,6 km/h 100,00 %
26.06.2022 13:20 21,1 C 63 % 1016,4 hPa 0,0 l/m 2,9 km/h SW 225 1 min 0,000 mm 2,0 UV-I 318 W/m 13,8 C 21,1 C 5,7 km/h 100,00 %
26.06.2022 13:19 21,1 C 63 % 1016,4 hPa 0,0 l/m 2,6 km/h SW 225 1 min 0,000 mm 1,9 UV-I 315 W/m 13,8 C 21,1 C 3,8 km/h 100,00 %
26.06.2022 13:18 21,0 C 62 % 1016,3 hPa 0,0 l/m 3,0 km/h SW 225 1 min 0,000 mm 1,9 UV-I 312 W/m 13,4 C 21,0 C 5,7 km/h 100,00 %
26.06.2022 13:17 21,1 C 62 % 1016,3 hPa 0,0 l/m 4,0 km/h SW 225 1 min 0,000 mm 1,9 UV-I 309 W/m 13,5 C 21,1 C 7,7 km/h 100,00 %
26.06.2022 13:16 21,1 C 61 % 1016,3 hPa 0,0 l/m 4,7 km/h SW 234 1 min 0,000 mm 1,9 UV-I 304 W/m 13,3 C 21,1 C 7,7 km/h 100,00 %
26.06.2022 13:15 21,1 C 61 % 1016,3 hPa 0,0 l/m 8,1 km/h W-SW 238 1 min 0,000 mm 1,9 UV-I 301 W/m 13,3 C 20,5 C 11,5 km/h 100,00 %
26.06.2022 13:14 21,2 C 61 % 1016,4 hPa 0,0 l/m 8,7 km/h SW 236 1 min 0,000 mm 1,8 UV-I 299 W/m 13,4 C 20,4 C 13,4 km/h 100,00 %
26.06.2022 13:13 21,2 C 61 % 1016,4 hPa 0,0 l/m 6,9 km/h SW 231 1 min 0,000 mm 1,9 UV-I 299 W/m 13,4 C 21,0 C 11,5 km/h 100,00 %
26.06.2022 13:12 21,3 C 62 % 1016,4 hPa 0,0 l/m 7,5 km/h SW 225 1 min 0,000 mm 1,9 UV-I 301 W/m 13,7 C 20,9 C 11,5 km/h 100,00 %
26.06.2022 13:11 21,3 C 63 % 1016,3 hPa 0,0 l/m 9,4 km/h SW 220 1 min 0,000 mm 1,9 UV-I 306 W/m 14,0 C 20,3 C 15,3 km/h 100,00 %
26.06.2022 13:10 21,2 C 64 % 1016,3 hPa 0,0 l/m 5,2 km/h S-SW 202 1 min 0,000 mm 1,6 UV-I 312 W/m 14,1 C 21,2 C 7,7 km/h 100,00 %
26.06.2022 13:09 21,2 C 63 % 1016,3 hPa 0,0 l/m 3,7 km/h S-SW 201 1 min 0,000 mm 2,0 UV-I 323 W/m 13,9 C 21,2 C 5,7 km/h 100,00 %
26.06.2022 13:08 21,2 C 64 % 1016,4 hPa 0,0 l/m 3,1 km/h S-SW 201 1 min 0,000 mm 2,1 UV-I 332 W/m 14,1 C 21,2 C 5,7 km/h 100,00 %
26.06.2022 13:07 21,2 C 64 % 1016,3 hPa 0,0 l/m 4,9 km/h S-SW 194 1 min 0,000 mm 2,1 UV-I 343 W/m 14,1 C 21,2 C 11,5 km/h 100,00 %
26.06.2022 13:06 21,2 C 64 % 1016,3 hPa 0,0 l/m 7,9 km/h SW 236 1 min 0,000 mm 2,2 UV-I 355 W/m 14,1 C 20,6 C 11,5 km/h 100,00 %
26.06.2022 13:05 21,1 C 65 % 1016,3 hPa 0,0 l/m 3,7 km/h SW 221 1 min 0,000 mm 2,2 UV-I 364 W/m 14,3 C 21,1 C 7,7 km/h 100,00 %
26.06.2022 13:04 21,1 C 64 % 1016,3 hPa 0,0 l/m 1,3 km/h SW 228 1 min 0,000 mm 2,3 UV-I 370 W/m 14,0 C 21,1 C 1,9 km/h 100,00 %
26.06.2022 13:03 21,1 C 64 % 1016,3 hPa 0,0 l/m 5,7 km/h SW 228 1 min 0,000 mm 2,3 UV-I 375 W/m 14,0 C 21,1 C 7,7 km/h 100,00 %
26.06.2022 13:02 21,1 C 63 % 1016,3 hPa 0,0 l/m 6,9 km/h SW 227 1 min 0,000 mm 2,2 UV-I 372 W/m 13,8 C 20,9 C 13,4 km/h 100,00 %
26.06.2022 13:01 21,1 C 63 % 1016,3 hPa 0,0 l/m 8,5 km/h SW 234 1 min 0,356 mm 2,2 UV-I 362 W/m 13,8 C 20,3 C 11,5 km/h 100,00 %
26.06.2022 13:00 21,1 C 63 % 1016,3 hPa 0,0 l/m 9,7 km/h SW 218 1 min 0,000 mm 2,1 UV-I 352 W/m 13,8 C 19,9 C 11,5 km/h 96,15 %
26.06.2022 12:59 21,1 C 64 % 1016,3 hPa 0,0 l/m 6,1 km/h SW 227 1 min 0,000 mm 2,1 UV-I 344 W/m 14,0 C 21,1 C 19,1 km/h 100,00 %
26.06.2022 12:58 21,1 C 63 % 1016,2 hPa 0,0 l/m 7,9 km/h S-SW 209 1 min 0,000 mm 2,1 UV-I 340 W/m 13,8 C 20,5 C 13,4 km/h 100,00 %
26.06.2022 12:57 21,1 C 64 % 1016,2 hPa 0,0 l/m 6,9 km/h W-SW 248 1 min 0,000 mm 2,1 UV-I 341 W/m 14,0 C 20,9 C 13,4 km/h 100,00 %
26.06.2022 12:56 21,1 C 64 % 1016,3 hPa 0,0 l/m 6,9 km/h S-SW 210 1 min 0,000 mm 2,1 UV-I 348 W/m 14,0 C 20,9 C 9,6 km/h 100,00 %
26.06.2022 12:55 21,1 C 64 % 1016,2 hPa 0,0 l/m 6,0 km/h W-SW 244 1 min 0,000 mm 2,2 UV-I 353 W/m 14,0 C 21,1 C 9,6 km/h 100,00 %
26.06.2022 12:54 21,1 C 64 % 1016,2 hPa 0,0 l/m 9,5 km/h SW 225 1 min 0,000 mm 2,1 UV-I 354 W/m 14,0 C 20,0 C 13,4 km/h 100,00 %
26.06.2022 12:53 21,2 C 63 % 1016,3 hPa 0,0 l/m 10,8 km/h W-SW 240 1 min 0,000 mm 2,1 UV-I 350 W/m 13,9 C 19,7 C 17,2 km/h 100,00 %
26.06.2022 12:52 21,2 C 64 % 1016,2 hPa 0,0 l/m 6,7 km/h SW 223 1 min 0,000 mm 2,1 UV-I 342 W/m 14,1 C 21,1 C 11,5 km/h 100,00 %
26.06.2022 12:51 21,2 C 63 % 1016,2 hPa 0,0 l/m 7,8 km/h SW 219 1 min 0,000 mm 2,0 UV-I 336 W/m 13,9 C 20,7 C 11,5 km/h 95,65 %
26.06.2022 12:50 21,3 C 63 % 1016,2 hPa 0,0 l/m 7,2 km/h SW 220 1 min 0,000 mm 2,0 UV-I 328 W/m 14,0 C 21,0 C 9,6 km/h 95,83 %
26.06.2022 12:49 21,2 C 63 % 1016,2 hPa 0,0 l/m 8,0 km/h SW 215 1 min 0,000 mm 2,0 UV-I 324 W/m 13,9 C 20,6 C 11,5 km/h 100,00 %
26.06.2022 12:48 21,3 C 65 % 1016,2 hPa 0,0 l/m 8,2 km/h SW 214 1 min 0,000 mm 2,0 UV-I 323 W/m 14,4 C 20,6 C 11,5 km/h 100,00 %
26.06.2022 12:47 21,3 C 64 % 1016,2 hPa 0,0 l/m 7,7 km/h S-SW 211 1 min 0,000 mm 2,0 UV-I 323 W/m 14,2 C 20,8 C 11,5 km/h 100,00 %
26.06.2022 12:46 21,3 C 63 % 1016,2 hPa 0,0 l/m 7,7 km/h S-SW 210 1 min 0,000 mm 1,8 UV-I 322 W/m 14,0 C 20,8 C 11,5 km/h 100,00 %
26.06.2022 12:45 21,3 C 64 % 1016,2 hPa 0,0 l/m 4,0 km/h S-SW 197 1 min 0,000 mm 1,9 UV-I 322 W/m 14,2 C 21,3 C 7,7 km/h 100,00 %
26.06.2022 12:44 21,3 C 63 % 1016,2 hPa 0,0 l/m 7,8 km/h SW 216 1 min 0,000 mm 2,1 UV-I 324 W/m 14,0 C 20,8 C 11,5 km/h 100,00 %
26.06.2022 12:43 21,3 C 63 % 1016,2 hPa 0,0 l/m 2,6 km/h SW 221 1 min 0,000 mm 2,1 UV-I 332 W/m 14,0 C 21,3 C 5,7 km/h 100,00 %
26.06.2022 12:42 21,3 C 63 % 1016,2 hPa 0,0 l/m 6,6 km/h SW 221 1 min 0,000 mm 2,2 UV-I 348 W/m 14,0 C 21,2 C 9,6 km/h 100,00 %
26.06.2022 12:41 21,4 C 63 % 1016,2 hPa 0,0 l/m 8,3 km/h W-SW 252 1 min 0,000 mm 2,3 UV-I 375 W/m 14,1 C 20,7 C 11,5 km/h 100,00 %
26.06.2022 12:40 21,4 C 62 % 1016,2 hPa 0,0 l/m 7,3 km/h S-SW 205 1 min 0,000 mm 2,5 UV-I 405 W/m 13,8 C 21,1 C 13,4 km/h 100,00 %
26.06.2022 12:39 21,4 C 63 % 1016,3 hPa 0,0 l/m 5,9 km/h S 188 1 min 0,000 mm 2,6 UV-I 437 W/m 14,1 C 21,4 C 7,7 km/h 100,00 %
26.06.2022 12:38 21,4 C 64 % 1016,2 hPa 0,0 l/m 3,8 km/h S 180 2 min 0,000 mm 2,6 UV-I 443 W/m 14,3 C 21,4 C 5,7 km/h 100,00 %
26.06.2022 12:36 21,4 C 63 % 1016,2 hPa 0,0 l/m 4,4 km/h S 180 1 min 0,000 mm 2,6 UV-I 431 W/m 14,1 C 21,4 C 7,7 km/h 96,15 %
26.06.2022 12:35 21,4 C 63 % 1016,2 hPa 0,0 l/m 3,1 km/h S 178 1 min 0,000 mm 2,5 UV-I 424 W/m 14,1 C 21,4 C 7,7 km/h 100,00 %
26.06.2022 12:34 21,4 C 62 % 1016,2 hPa 0,0 l/m 4,1 km/h S 178 1 min 0,000 mm 2,5 UV-I 412 W/m 13,8 C 21,4 C 5,7 km/h 100,00 %
26.06.2022 12:33 21,6 C 61 % 1016,2 hPa 0,0 l/m 7,0 km/h S 178 1 min 0,000 mm 2,5 UV-I 406 W/m 13,7 C 21,4 C 11,5 km/h 100,00 %
26.06.2022 12:32 21,6 C 63 % 1016,2 hPa 0,0 l/m 3,1 km/h S 180 1 min 0,000 mm 2,5 UV-I 407 W/m 14,2 C 21,6 C 9,6 km/h 100,00 %
26.06.2022 12:31 21,6 C 61 % 1016,2 hPa 0,0 l/m 4,0 km/h S 180 1 min 0,000 mm 2,5 UV-I 410 W/m 13,7 C 21,6 C 7,7 km/h 100,00 %
26.06.2022 12:30 21,7 C 62 % 1016,2 hPa 0,0 l/m 5,7 km/h S-SW 208 1 min 0,000 mm 2,6 UV-I 418 W/m 14,1 C 21,7 C 7,7 km/h 96,30 %
26.06.2022 12:29 21,7 C 63 % 1016,2 hPa 0,0 l/m 7,1 km/h S-SW 208 1 min 0,000 mm 2,6 UV-I 424 W/m 14,3 C 21,5 C 11,5 km/h 100,00 %
26.06.2022 12:28 21,7 C 62 % 1016,1 hPa 0,0 l/m 2,2 km/h SW 233 1 min 0,000 mm 2,6 UV-I 421 W/m 14,1 C 21,7 C 5,7 km/h 100,00 %
26.06.2022 12:27 21,7 C 61 % 1016,1 hPa 0,0 l/m 4,8 km/h SW 233 1 min 0,000 mm 2,6 UV-I 429 W/m 13,8 C 21,7 C 7,7 km/h 100,00 %
26.06.2022 12:26 21,7 C 59 % 1016,1 hPa 0,0 l/m 4,9 km/h SW 231 1 min 0,000 mm 2,7 UV-I 435 W/m 13,3 C 21,7 C 7,7 km/h 95,65 %
26.06.2022 12:25 21,8 C 61 % 1016,1 hPa 0,0 l/m 9,3 km/h SW 231 1 min 0,000 mm 2,8 UV-I 441 W/m 13,9 C 20,8 C 11,5 km/h 100,00 %
26.06.2022 12:24 21,8 C 62 % 1016,1 hPa 0,0 l/m 8,0 km/h SW 219 1 min 0,000 mm 3,0 UV-I 560 W/m 14,2 C 21,2 C 11,5 km/h 92,86 %
26.06.2022 12:23 21,7 C 62 % 1016,1 hPa 0,0 l/m 10,9 km/h SW 220 1 min 0,000 mm 3,4 UV-I 640 W/m 14,1 C 20,3 C 15,3 km/h 100,00 %
26.06.2022 12:22 21,7 C 60 % 1016,1 hPa 0,0 l/m 5,3 km/h SW 220 1 min 0,000 mm 3,7 UV-I 674 W/m 13,6 C 21,7 C 9,6 km/h 100,00 %
26.06.2022 12:21 21,7 C 61 % 1016,0 hPa 0,0 l/m 5,8 km/h W-NW 300 1 min 0,000 mm 3,7 UV-I 605 W/m 13,8 C 21,7 C 9,6 km/h 100,00 %
26.06.2022 12:20 21,7 C 61 % 1016,1 hPa 0,0 l/m 0,6 km/h SO 128 1 min 0,000 mm 3,7 UV-I 619 W/m 13,8 C 21,7 C 1,9 km/h 100,00 %
26.06.2022 12:19 21,7 C 60 % 1016,1 hPa 0,0 l/m 2,9 km/h S-SO 149 1 min 0,000 mm 3,7 UV-I 633 W/m 13,6 C 21,7 C 3,8 km/h 100,00 %
26.06.2022 12:18 21,8 C 61 % 1016,0 hPa 0,0 l/m 6,1 km/h S-SO 149 1 min 0,000 mm 3,8 UV-I 639 W/m 13,9 C 21,8 C 11,5 km/h 100,00 %
26.06.2022 12:17 21,8 C 62 % 1016,0 hPa 0,0 l/m 6,0 km/h S 176 1 min 0,000 mm 4,2 UV-I 723 W/m 14,2 C 21,8 C 11,5 km/h 100,00 %
26.06.2022 12:16 21,8 C 61 % 1016,0 hPa 0,0 l/m 6,2 km/h SW 217 1 min 0,000 mm 4,5 UV-I 795 W/m 13,9 C 21,8 C 13,4 km/h 100,00 %
26.06.2022 12:15 21,8 C 61 % 1016,0 hPa 0,0 l/m 4,6 km/h SW 229 1 min 0,000 mm 4,4 UV-I 903 W/m 13,9 C 21,8 C 11,5 km/h 100,00 %
26.06.2022 12:14 21,8 C 60 % 1016,0 hPa 0,0 l/m 4,7 km/h S 173 1 min 0,000 mm 4,7 UV-I 1004 W/m 13,7 C 21,8 C 9,6 km/h 100,00 %
26.06.2022 12:13 21,9 C 61 % 1016,0 hPa 0,0 l/m 4,8 km/h S 169 1 min 0,000 mm 4,6 UV-I 1004 W/m 14,0 C 21,9 C 11,5 km/h 100,00 %
26.06.2022 12:12 21,9 C 60 % 1016,0 hPa 0,0 l/m 7,3 km/h SW 215 1 min 0,000 mm 5,2 UV-I 1004 W/m 13,8 C 21,6 C 11,5 km/h 100,00 %
26.06.2022 12:11 21,8 C 62 % 1016,0 hPa 0,0 l/m 7,6 km/h SW 227 1 min 0,000 mm 5,1 UV-I 960 W/m 14,2 C 21,4 C 13,4 km/h 100,00 %
26.06.2022 12:10 21,8 C 63 % 1015,9 hPa 0,0 l/m 7,9 km/h SW 217 1 min 0,000 mm 5,1 UV-I 960 W/m 14,4 C 21,3 C 9,6 km/h 100,00 %
26.06.2022 12:09 21,7 C 62 % 1015,9 hPa 0,0 l/m 6,1 km/h S-SO 148 1 min 0,000 mm 5,1 UV-I 954 W/m 14,1 C 21,7 C 11,5 km/h 100,00 %
26.06.2022 12:08 21,6 C 64 % 1016,0 hPa 0,0 l/m 1,3 km/h SW 226 1 min 0,000 mm 5,0 UV-I 928 W/m 14,5 C 21,6 C 1,9 km/h 100,00 %
26.06.2022 12:07 21,6 C 65 % 1016,0 hPa 0,0 l/m 5,6 km/h SW 226 1 min 0,000 mm 5,1 UV-I 959 W/m 14,7 C 21,6 C 9,6 km/h 100,00 %
26.06.2022 12:06 21,4 C 65 % 1015,9 hPa 0,0 l/m 6,1 km/h SW 236 1 min 0,000 mm 5,0 UV-I 956 W/m 14,5 C 21,4 C 9,6 km/h 100,00 %
26.06.2022 12:05 21,3 C 65 % 1015,9 hPa 0,0 l/m 6,2 km/h SW 227 1 min 0,000 mm 4,8 UV-I 929 W/m 14,4 C 21,3 C 11,5 km/h 100,00 %
26.06.2022 12:04 21,2 C 65 % 1015,9 hPa 0,0 l/m 5,0 km/h SW 231 1 min 0,000 mm 4,9 UV-I 916 W/m 14,4 C 21,2 C 7,7 km/h 100,00 %
26.06.2022 12:03 21,2 C 65 % 1015,9 hPa 0,0 l/m 4,7 km/h SW 221 1 min 0,000 mm 4,6 UV-I 464 W/m 14,4 C 21,2 C 7,7 km/h 95,65 %
26.06.2022 12:02 21,0 C 64 % 1015,9 hPa 0,0 l/m 4,5 km/h SW 221 1 min 0,000 mm 4,0 UV-I 464 W/m 13,9 C 21,0 C 7,7 km/h 100,00 %
26.06.2022 12:01 21,0 C 63 % 1016,0 hPa 0,0 l/m 7,2 km/h SW 221 1 min 0,356 mm 3,1 UV-I 464 W/m 13,7 C 20,7 C 9,6 km/h 100,00 %
26.06.2022 12:00 20,9 C 64 % 1015,9 hPa 0,0 l/m 5,6 km/h SW 228 1 min 0,000 mm 2,9 UV-I 466 W/m 13,8 C 20,9 C 9,6 km/h 100,00 %
26.06.2022 11:59 20,9 C 64 % 1015,9 hPa 0,0 l/m 5,2 km/h W-SW 243 1 min 0,000 mm 2,8 UV-I 463 W/m 13,8 C 20,9 C 9,6 km/h 100,00 %
26.06.2022 11:58 20,9 C 64 % 1015,9 hPa 0,0 l/m 5,9 km/h SW 223 1 min 0,000 mm 2,7 UV-I 458 W/m 13,8 C 20,9 C 13,4 km/h 100,00 %
26.06.2022 11:57 20,9 C 64 % 1016,0 hPa 0,0 l/m 8,5 km/h W-SW 257 1 min 0,000 mm 2,6 UV-I 422 W/m 13,8 C 20,1 C 13,4 km/h 96,30 %
26.06.2022 11:56 20,9 C 62 % 1016,0 hPa 0,0 l/m 7,4 km/h SW 218 1 min 0,000 mm 2,4 UV-I 417 W/m 13,3 C 20,5 C 11,5 km/h 100,00 %
26.06.2022 11:55 20,9 C 64 % 1015,9 hPa 0,0 l/m 6,7 km/h W-SW 237 1 min 0,000 mm 2,4 UV-I 408 W/m 13,8 C 20,8 C 11,5 km/h 100,00 %
26.06.2022 11:54 21,1 C 63 % 1015,9 hPa 0,0 l/m 8,3 km/h S-SW 192 1 min 0,000 mm 2,4 UV-I 411 W/m 13,8 C 20,4 C 11,5 km/h 100,00 %
26.06.2022 11:53 21,1 C 63 % 1016,0 hPa 0,0 l/m 8,8 km/h S 173 1 min 0,000 mm 2,4 UV-I 402 W/m 13,8 C 20,2 C 13,4 km/h 100,00 %
26.06.2022 11:52 21,1 C 63 % 1016,0 hPa 0,0 l/m 5,7 km/h S 187 1 min 0,000 mm 2,4 UV-I 390 W/m 13,8 C 21,1 C 11,5 km/h 100,00 %
26.06.2022 11:51 21,1 C 63 % 1016,0 hPa 0,0 l/m 3,7 km/h S-SW 196 1 min 0,000 mm 2,4 UV-I 388 W/m 13,8 C 21,1 C 5,7 km/h 100,00 %
26.06.2022 11:50 21,1 C 62 % 1016,0 hPa 0,0 l/m 7,2 km/h SW 229 1 min 0,000 mm 2,4 UV-I 396 W/m 13,5 C 20,8 C 9,6 km/h 100,00 %
26.06.2022 11:49 21,1 C 63 % 1016,0 hPa 0,0 l/m 6,3 km/h W-SW 256 1 min 0,000 mm 2,6 UV-I 435 W/m 13,8 C 21,1 C 13,4 km/h 100,00 %
26.06.2022 11:48 21,1 C 62 % 1016,0 hPa 0,0 l/m 4,9 km/h SW 229 1 min 0,000 mm 2,8 UV-I 481 W/m 13,5 C 21,1 C 9,6 km/h 96,00 %
26.06.2022 11:47 21,1 C 66 % 1015,9 hPa 0,0 l/m 5,1 km/h SW 223 1 min 0,000 mm 3,0 UV-I 537 W/m 14,5 C 21,1 C 11,5 km/h 100,00 %
26.06.2022 11:46 21,1 C 65 % 1015,9 hPa 0,0 l/m 5,7 km/h SW 215 1 min 0,000 mm 3,1 UV-I 576 W/m 14,3 C 21,1 C 15,3 km/h 97,37 %
26.06.2022 11:45 21,1 C 64 % 1015,9 hPa 0,0 l/m 6,6 km/h S-SO 164 1 min 0,000 mm 3,2 UV-I 612 W/m 14,0 C 21,0 C 11,5 km/h 100,00 %
26.06.2022 11:44 21,1 C 64 % 1015,9 hPa 0,0 l/m 9,1 km/h S 173 1 min 0,000 mm 3,1 UV-I 560 W/m 14,0 C 20,1 C 13,4 km/h 100,00 %
26.06.2022 11:43 21,2 C 64 % 1015,9 hPa 0,0 l/m 9,1 km/h SW 219 1 min 0,000 mm 2,9 UV-I 531 W/m 14,1 C 20,2 C 13,4 km/h 92,59 %
26.06.2022 11:42 21,2 C 65 % 1015,9 hPa 0,0 l/m 9,9 km/h SW 219 1 min 0,000 mm 2,7 UV-I 480 W/m 14,4 C 20,0 C 19,1 km/h 100,00 %
26.06.2022 11:41 21,2 C 64 % 1015,9 hPa 0,0 l/m 4,6 km/h S-SW 202 1 min 0,000 mm 2,5 UV-I 433 W/m 14,1 C 21,2 C 11,5 km/h 100,00 %
26.06.2022 11:40 21,2 C 63 % 1015,9 hPa 0,0 l/m 5,7 km/h SW 226 1 min 0,000 mm 2,4 UV-I 403 W/m 13,9 C 21,2 C 9,6 km/h 100,00 %
26.06.2022 11:39 21,3 C 63 % 1015,9 hPa 0,0 l/m 8,0 km/h SW 227 1 min 0,000 mm 2,3 UV-I 384 W/m 14,0 C 20,7 C 9,6 km/h 96,30 %
26.06.2022 11:38 21,3 C 66 % 1015,9 hPa 0,0 l/m 6,2 km/h SW 225 1 min 0,000 mm 2,2 UV-I 374 W/m 14,7 C 21,3 C 11,5 km/h 100,00 %
26.06.2022 11:37 21,3 C 65 % 1016,0 hPa 0,0 l/m 4,0 km/h S 176 1 min 0,000 mm 2,2 UV-I 373 W/m 14,4 C 21,3 C 5,7 km/h 100,00 %
26.06.2022 11:36 21,3 C 64 % 1016,0 hPa 0,0 l/m 3,7 km/h S 173 1 min 0,000 mm 2,2 UV-I 370 W/m 14,2 C 21,3 C 9,6 km/h 100,00 %
26.06.2022 11:35 21,5 C 66 % 1015,9 hPa 0,0 l/m 6,7 km/h S 174 1 min 0,000 mm 2,3 UV-I 376 W/m 14,9 C 21,4 C 11,5 km/h 92,86 %
26.06.2022 11:34 21,4 C 66 % 1015,9 hPa 0,0 l/m 5,8 km/h SW 233 1 min 0,000 mm 2,4 UV-I 479 W/m 14,8 C 21,4 C 9,6 km/h 100,00 %
26.06.2022 11:33 21,5 C 66 % 1015,8 hPa 0,0 l/m 9,9 km/h S 171 1 min 0,000 mm 2,7 UV-I 731 W/m 14,9 C 20,3 C 17,2 km/h 100,00 %
26.06.2022 11:32 21,5 C 65 % 1015,8 hPa 0,0 l/m 7,4 km/h S 180 1 min 0,000 mm 3,2 UV-I 731 W/m 14,6 C 21,1 C 9,6 km/h 100,00 %
26.06.2022 11:31 21,6 C 66 % 1015,8 hPa 0,0 l/m 4,9 km/h S-SW 195 1 min 0,000 mm 3,6 UV-I 731 W/m 15,0 C 21,6 C 9,6 km/h 95,65 %
26.06.2022 11:30 21,4 C 68 % 1015,8 hPa 0,0 l/m 1,7 km/h S 180 1 min 0,000 mm 3,9 UV-I 799 W/m 15,2 C 21,4 C 7,7 km/h 100,00 %
26.06.2022 11:29 21,3 C 66 % 1015,8 hPa 0,0 l/m 2,6 km/h S 173 1 min 0,000 mm 4,2 UV-I 840 W/m 14,7 C 21,3 C 5,7 km/h 100,00 %
26.06.2022 11:28 21,3 C 65 % 1015,8 hPa 0,0 l/m 6,5 km/h S 173 1 min 0,000 mm 4,2 UV-I 848 W/m 14,4 C 21,3 C 9,6 km/h 100,00 %
26.06.2022 11:27 21,3 C 65 % 1015,9 hPa 0,0 l/m 10,1 km/h S-SO 165 1 min 0,000 mm 4,5 UV-I 956 W/m 14,4 C 20,0 C 13,4 km/h 100,00 %
26.06.2022 11:26 21,3 C 64 % 1015,9 hPa 0,0 l/m 7,4 km/h S 190 1 min 0,000 mm 4,7 UV-I 999 W/m 14,2 C 20,9 C 11,5 km/h 100,00 %
26.06.2022 11:25 21,3 C 64 % 1015,9 hPa 0,0 l/m 4,8 km/h S 182 1 min 0,000 mm 4,2 UV-I 972 W/m 14,2 C 21,3 C 5,7 km/h 95,65 %
26.06.2022 11:24 21,3 C 65 % 1015,9 hPa 0,0 l/m 5,0 km/h S 180 1 min 0,000 mm 4,2 UV-I 893 W/m 14,4 C 21,3 C 7,7 km/h 100,00 %
26.06.2022 11:23 21,3 C 65 % 1015,8 hPa 0,0 l/m 8,0 km/h S-SO 153 1 min 0,000 mm 4,1 UV-I 821 W/m 14,4 C 20,7 C 13,4 km/h 100,00 %
26.06.2022 11:22 21,3 C 66 % 1015,8 hPa 0,0 l/m 11,5 km/h SW 215 1 min 0,000 mm 4,0 UV-I 824 W/m 14,7 C 19,7 C 15,3 km/h 100,00 %
26.06.2022 11:21 21,3 C 68 % 1015,8 hPa 0,0 l/m 4,2 km/h W-SW 257 1 min 0,000 mm 3,9 UV-I 775 W/m 15,1 C 21,3 C 13,4 km/h 100,00 %
26.06.2022 11:20 21,2 C 67 % 1015,8 hPa 0,0 l/m 6,8 km/h W-SW 250 1 min 0,000 mm 3,7 UV-I 775 W/m 14,8 C 21,1 C 17,2 km/h 100,00 %
26.06.2022 11:19 21,2 C 69 % 1015,9 hPa 0,0 l/m 4,5 km/h S-SW 203 1 min 0,000 mm 3,4 UV-I 747 W/m 15,3 C 21,2 C 7,7 km/h 95,83 %
26.06.2022 11:18 21,1 C 67 % 1015,8 hPa 0,0 l/m 2,6 km/h S-SW 201 1 min 0,000 mm 3,4 UV-I 673 W/m 14,7 C 21,1 C 7,7 km/h 95,65 %
26.06.2022 11:17 21,1 C 67 % 1015,8 hPa 0,0 l/m 2,6 km/h S-SW 199 1 min 0,000 mm 3,1 UV-I 601 W/m 14,7 C 21,1 C 5,7 km/h 100,00 %
26.06.2022 11:16 21,1 C 68 % 1015,8 hPa 0,0 l/m 4,0 km/h S-SW 199 1 min 0,000 mm 3,0 UV-I 621 W/m 15,0 C 21,1 C 7,7 km/h 100,00 %
26.06.2022 11:15 21,0 C 67 % 1015,8 hPa 0,0 l/m 3,3 km/h S-SW 198 1 min 0,000 mm 3,0 UV-I 575 W/m 14,6 C 21,0 C 5,7 km/h 100,00 %
26.06.2022 11:14 21,1 C 66 % 1015,8 hPa 0,0 l/m 5,9 km/h S-SW 199 1 min 0,000 mm 3,0 UV-I 522 W/m 14,5 C 21,1 C 9,6 km/h 100,00 %
26.06.2022 11:13 21,1 C 68 % 1015,8 hPa 0,0 l/m 5,3 km/h S 190 1 min 0,000 mm 2,9 UV-I 524 W/m 15,0 C 21,1 C 7,7 km/h 100,00 %
26.06.2022 11:12 21,0 C 68 % 1015,8 hPa 0,0 l/m 4,4 km/h S-SW 206 1 min 0,000 mm 3,0 UV-I 579 W/m 14,9 C 21,0 C 7,7 km/h 100,00 %
26.06.2022 11:11 21,0 C 69 % 1015,7 hPa 0,0 l/m 1,8 km/h W-SW 237 1 min 0,000 mm 2,8 UV-I 504 W/m 15,1 C 21,0 C 7,7 km/h 96,67 %
26.06.2022 11:10 20,9 C 69 % 1015,8 hPa 0,0 l/m 2,9 km/h W-SW 238 1 min 0,000 mm 2,6 UV-I 441 W/m 15,0 C 20,9 C 5,7 km/h 90,91 %
26.06.2022 11:09 20,9 C 68 % 1015,8 hPa 0,0 l/m 4,6 km/h W-SW 238 1 min 0,000 mm 2,7 UV-I 455 W/m 14,8 C 20,9 C 7,7 km/h 100,00 %
26.06.2022 11:08 20,8 C 67 % 1015,7 hPa 0,0 l/m 5,3 km/h W-SW 237 2 min 0,000 mm 2,9 UV-I 530 W/m 14,4 C 20,8 C 9,6 km/h 100,00 %
26.06.2022 11:06 20,7 C 69 % 1015,7 hPa 0,0 l/m 1,4 km/h SW 229 1 min 0,000 mm 2,9 UV-I 533 W/m 14,8 C 20,7 C 3,8 km/h 100,00 %
26.06.2022 11:05 20,7 C 68 % 1015,6 hPa 0,0 l/m 3,8 km/h SW 229 1 min 0,000 mm 3,0 UV-I 584 W/m 14,6 C 20,7 C 7,7 km/h 100,00 %
26.06.2022 11:04 20,6 C 67 % 1015,6 hPa 0,0 l/m 4,6 km/h SW 225 1 min 0,000 mm 2,8 UV-I 533 W/m 14,3 C 20,6 C 5,7 km/h 100,00 %
26.06.2022 11:03 20,6 C 69 % 1015,7 hPa 0,0 l/m 7,0 km/h SW 220 1 min 0,000 mm 3,0 UV-I 598 W/m 14,7 C 20,4 C 9,6 km/h 95,65 %
26.06.2022 11:02 20,6 C 68 % 1015,7 hPa 0,0 l/m 6,0 km/h SW 217 1 min 0,000 mm 2,8 UV-I 682 W/m 14,5 C 20,6 C 9,6 km/h 100,00 %
26.06.2022 11:01 20,5 C 68 % 1015,7 hPa 0,0 l/m 2,7 km/h SW 215 1 min 0,355 mm 3,2 UV-I 682 W/m 14,4 C 20,5 C 5,7 km/h 100,00 %
26.06.2022 11:00 20,4 C 68 % 1015,7 hPa 0,0 l/m 6,9 km/h SW 215 1 min 0,000 mm 3,2 UV-I 704 W/m 14,3 C 20,2 C 11,5 km/h 100,00 %
26.06.2022 10:59 20,5 C 68 % 1015,6 hPa 0,0 l/m 5,1 km/h S 184 1 min 0,000 mm 3,0 UV-I 612 W/m 14,4 C 20,5 C 7,7 km/h 96,15 %
26.06.2022 10:58 20,5 C 69 % 1015,7 hPa 0,0 l/m 7,6 km/h S 180 1 min 0,000 mm 3,0 UV-I 592 W/m 14,6 C 20,0 C 9,6 km/h 100,00 %
26.06.2022 10:57 20,4 C 71 % 1015,7 hPa 0,0 l/m 4,3 km/h S-SW 196 1 min 0,000 mm 3,1 UV-I 624 W/m 15,0 C 20,4 C 7,7 km/h 96,15 %
26.06.2022 10:56 20,3 C 71 % 1015,7 hPa 0,0 l/m 5,3 km/h SW 219 1 min 0,000 mm 2,9 UV-I 579 W/m 14,9 C 20,3 C 7,7 km/h 100,00 %
26.06.2022 10:55 20,3 C 70 % 1015,6 hPa 0,0 l/m 6,1 km/h SW 218 1 min 0,000 mm 2,7 UV-I 561 W/m 14,6 C 20,3 C 9,6 km/h 100,00 %
26.06.2022 10:54 20,3 C 70 % 1015,6 hPa 0,0 l/m 3,4 km/h S 182 1 min 0,000 mm 2,5 UV-I 445 W/m 14,6 C 20,3 C 5,7 km/h 100,00 %
26.06.2022 10:53 20,3 C 70 % 1015,7 hPa 0,0 l/m 4,6 km/h S 182 1 min 0,000 mm 2,3 UV-I 422 W/m 14,6 C 20,3 C 7,7 km/h 100,00 %
26.06.2022 10:52 20,3 C 69 % 1015,7 hPa 0,0 l/m 5,8 km/h S 180 1 min 0,000 mm 2,1 UV-I 384 W/m 14,4 C 20,3 C 9,6 km/h 100,00 %
26.06.2022 10:51 20,4 C 68 % 1015,8 hPa 0,0 l/m 9,0 km/h S-SO 165 1 min 0,000 mm 2,0 UV-I 363 W/m 14,3 C 19,4 C 11,5 km/h 96,15 %
26.06.2022 10:50 20,6 C 67 % 1015,8 hPa 0,0 l/m 7,5 km/h S-SW 205 1 min 0,000 mm 2,0 UV-I 349 W/m 14,3 C 20,2 C 13,4 km/h 100,00 %
26.06.2022 10:49 20,7 C 69 % 1015,8 hPa 0,0 l/m 7,7 km/h SW 229 1 min 0,000 mm 2,0 UV-I 363 W/m 14,8 C 20,2 C 11,5 km/h 100,00 %
26.06.2022 10:48 20,7 C 69 % 1015,8 hPa 0,0 l/m 5,9 km/h S-SW 213 1 min 0,000 mm 2,0 UV-I 347 W/m 14,8 C 20,7 C 7,7 km/h 100,00 %
26.06.2022 10:47 20,7 C 68 % 1015,7 hPa 0,0 l/m 5,8 km/h SW 223 1 min 0,000 mm 2,0 UV-I 342 W/m 14,6 C 20,7 C 9,6 km/h 100,00 %
26.06.2022 10:46 20,8 C 70 % 1015,7 hPa 0,0 l/m 7,9 km/h SW 230 1 min 0,000 mm 2,2 UV-I 384 W/m 15,1 C 20,2 C 11,5 km/h 95,83 %
26.06.2022 10:45 20,8 C 70 % 1015,7 hPa 0,0 l/m 5,1 km/h SW 226 1 min 0,000 mm 2,6 UV-I 427 W/m 15,1 C 20,8 C 9,6 km/h 100,00 %
26.06.2022 10:44 20,7 C 69 % 1015,7 hPa 0,0 l/m 10,1 km/h SW 225 1 min 0,000 mm 2,5 UV-I 427 W/m 14,8 C 19,4 C 19,1 km/h 100,00 %
26.06.2022 10:43 20,7 C 69 % 1015,7 hPa 0,0 l/m 9,6 km/h W 267 1 min 0,000 mm 2,6 UV-I 488 W/m 14,8 C 19,5 C 19,1 km/h 100,00 %
26.06.2022 10:42 20,8 C 68 % 1015,8 hPa 0,0 l/m 9,9 km/h S-SW 201 1 min 0,000 mm 3,0 UV-I 789 W/m 14,7 C 19,6 C 13,4 km/h 100,00 %
26.06.2022 10:41 20,8 C 69 % 1015,8 hPa 0,0 l/m 6,2 km/h S 184 1 min 0,000 mm 3,5 UV-I 780 W/m 14,9 C 20,8 C 11,5 km/h 100,00 %
26.06.2022 10:40 20,8 C 71 % 1015,8 hPa 0,0 l/m 8,1 km/h S 188 1 min 0,000 mm 3,3 UV-I 668 W/m 15,3 C 20,2 C 11,5 km/h 100,00 %
26.06.2022 10:39 20,7 C 71 % 1015,8 hPa 0,0 l/m 4,5 km/h S 182 1 min 0,000 mm 3,0 UV-I 573 W/m 15,2 C 20,7 C 7,7 km/h 100,00 %
26.06.2022 10:38 20,6 C 70 % 1015,8 hPa 0,0 l/m 7,7 km/h S-SO 168 1 min 0,000 mm 3,0 UV-I 608 W/m 14,9 C 20,1 C 11,5 km/h 100,00 %
26.06.2022 10:37 20,6 C 69 % 1015,8 hPa 0,0 l/m 6,2 km/h S 184 1 min 0,000 mm 3,1 UV-I 675 W/m 14,7 C 20,6 C 9,6 km/h 100,00 %
26.06.2022 10:36 20,6 C 70 % 1015,9 hPa 0,0 l/m 9,1 km/h S-SW 203 1 min 0,000 mm 3,2 UV-I 795 W/m 14,9 C 19,6 C 13,4 km/h 100,00 %
26.06.2022 10:35 20,6 C 70 % 1015,9 hPa 0,0 l/m 6,7 km/h SW 234 1 min 0,000 mm 3,4 UV-I 784 W/m 14,9 C 20,5 C 11,5 km/h 100,00 %
26.06.2022 10:34 20,6 C 69 % 1015,9 hPa 0,0 l/m 6,4 km/h W-SW 253 1 min 0,000 mm 3,4 UV-I 754 W/m 14,7 C 20,6 C 9,6 km/h 100,00 %
26.06.2022 10:33 20,6 C 71 % 1015,9 hPa 0,0 l/m 9,0 km/h SW 231 1 min 0,000 mm 3,4 UV-I 727 W/m 15,2 C 19,6 C 13,4 km/h 100,00 %
26.06.2022 10:32 20,4 C 74 % 1015,9 hPa 0,0 l/m 8,1 km/h S-SW 213 1 min 0,000 mm 3,4 UV-I 734 W/m 15,6 C 19,7 C 13,4 km/h 100,00 %
26.06.2022 10:31 20,3 C 74 % 1015,8 hPa 0,0 l/m 4,5 km/h SW 228 1 min 0,000 mm 3,4 UV-I 732 W/m 15,5 C 20,3 C 9,6 km/h 100,00 %
26.06.2022 10:30 20,1 C 73 % 1015,8 hPa 0,0 l/m 2,8 km/h W-SW 244 1 min 0,000 mm 3,3 UV-I 718 W/m 15,1 C 20,1 C 5,7 km/h 100,00 %
26.06.2022 10:29 20,0 C 74 % 1015,8 hPa 0,0 l/m 1,8 km/h W-SW 242 1 min 0,000 mm 3,4 UV-I 723 W/m 15,2 C 20,0 C 5,7 km/h 100,00 %
26.06.2022 10:28 19,9 C 75 % 1015,8 hPa 0,0 l/m 1,2 km/h W-SW 242 1 min 0,000 mm 3,3 UV-I 717 W/m 15,3 C 19,9 C 1,9 km/h 95,65 %
26.06.2022 10:27 19,8 C 72 % 1015,8 hPa 0,0 l/m 6,0 km/h W-SW 242 1 min 0,000 mm 3,3 UV-I 720 W/m 14,6 C 19,8 C 9,6 km/h 100,00 %
26.06.2022 10:26 19,8 C 73 % 1015,9 hPa 0,0 l/m 5,8 km/h W-SW 248 1 min 0,000 mm 3,2 UV-I 722 W/m 14,8 C 19,8 C 9,6 km/h 100,00 %
26.06.2022 10:25 19,8 C 72 % 1015,8 hPa 0,0 l/m 7,8 km/h S-SW 205 1 min 0,000 mm 3,0 UV-I 791 W/m 14,6 C 19,2 C 9,6 km/h 100,00 %
26.06.2022 10:24 19,9 C 72 % 1015,8 hPa 0,0 l/m 9,9 km/h SW 228 1 min 0,000 mm 1,9 UV-I 791 W/m 14,7 C 18,6 C 13,4 km/h 100,00 %
26.06.2022 10:23 19,9 C 73 % 1015,8 hPa 0,0 l/m 9,6 km/h SW 221 1 min 0,000 mm 2,6 UV-I 791 W/m 14,9 C 18,7 C 15,3 km/h 100,00 %
26.06.2022 10:22 19,9 C 74 % 1015,8 hPa 0,0 l/m 10,2 km/h W 270 1 min 0,000 mm 2,6 UV-I 791 W/m 15,1 C 18,5 C 17,2 km/h 96,55 %
26.06.2022 10:21 19,9 C 72 % 1015,8 hPa 0,0 l/m 6,9 km/h SW 222 1 min 0,000 mm 2,8 UV-I 791 W/m 14,7 C 19,7 C 13,4 km/h 100,00 %
26.06.2022 10:20 19,9 C 74 % 1015,8 hPa 0,0 l/m 8,1 km/h SW 223 1 min 0,000 mm 3,3 UV-I 782 W/m 15,1 C 19,2 C 9,6 km/h 100,00 %
26.06.2022 10:19 19,8 C 74 % 1015,7 hPa 0,0 l/m 10,0 km/h W-SW 256 1 min 0,000 mm 3,3 UV-I 773 W/m 15,0 C 18,4 C 21,0 km/h 100,00 %
26.06.2022 10:18 19,8 C 74 % 1015,8 hPa 0,0 l/m 10,0 km/h SW 221 1 min 0,000 mm 3,2 UV-I 779 W/m 15,0 C 18,4 C 11,5 km/h 100,00 %
26.06.2022 10:17 19,8 C 75 % 1015,8 hPa 0,0 l/m 8,1 km/h SW 220 1 min 0,000 mm 3,1 UV-I 759 W/m 15,2 C 19,1 C 13,4 km/h 100,00 %
26.06.2022 10:16 19,7 C 75 % 1015,8 hPa 0,0 l/m 7,7 km/h W 265 1 min 0,000 mm 3,1 UV-I 725 W/m 15,1 C 19,2 C 11,5 km/h 97,56 %
26.06.2022 10:15 19,7 C 75 % 1015,7 hPa 0,0 l/m 10,1 km/h S-SW 195 1 min 0,000 mm 3,1 UV-I 712 W/m 15,1 C 18,3 C 13,4 km/h 99,50 %
26.06.2022 10:14 19,7 C 75 % 1015,7 hPa 0,0 l/m 7,5 km/h S 190 1 min 0,000 mm 3,1 UV-I 357 W/m 15,1 C 19,2 C 11,5 km/h 100,00 %
26.06.2022 10:13 19,8 C 75 % 1015,7 hPa 0,0 l/m 10,3 km/h SW 232 0 min 0,000 mm 2,1 UV-I 278 W/m 15,2 C 18,3 C 13,4 km/h 100,00 %
26.06.2022 10:12 19,8 C 75 % 1015,7 hPa 0,0 l/m 7,6 km/h S-SW 213 1 min 0,000 mm 2,3 UV-I 708 W/m 15,2 C 19,3 C 11,5 km/h 100,00 %
26.06.2022 10:11 19,8 C 76 % 1015,7 hPa 0,0 l/m 6,1 km/h SW 228 1 min 0,000 mm 2,5 UV-I 728 W/m 15,4 C 19,8 C 13,4 km/h 100,00 %
26.06.2022 10:10 19,7 C 77 % 1015,7 hPa 0,0 l/m 5,8 km/h S-SW 193 1 min 0,000 mm 2,1 UV-I 714 W/m 15,5 C 19,7 C 9,6 km/h 100,00 %
26.06.2022 10:09 19,7 C 77 % 1015,6 hPa 0,0 l/m 7,6 km/h SW 224 1 min 0,000 mm 2,9 UV-I 716 W/m 15,5 C 19,2 C 11,5 km/h 100,00 %
26.06.2022 10:08 19,7 C 77 % 1015,7 hPa 0,0 l/m 4,5 km/h S-SW 205 1 min 0,000 mm 3,0 UV-I 725 W/m 15,5 C 19,7 C 7,7 km/h 100,00 %
26.06.2022 10:07 19,6 C 77 % 1015,7 hPa 0,0 l/m 3,7 km/h S 175 1 min 0,000 mm 2,5 UV-I 316 W/m 15,5 C 19,6 C 7,7 km/h 100,00 %
26.06.2022 10:06 19,6 C 76 % 1015,7 hPa 0,0 l/m 7,4 km/h S 173 0 min 0,000 mm 2,1 UV-I 274 W/m 15,2 C 19,2 C 13,4 km/h 100,00 %
26.06.2022 10:05 19,6 C 77 % 1015,6 hPa 0,0 l/m 3,4 km/h S-SO 167 1 min 0,000 mm 2,2 UV-I 453 W/m 15,5 C 19,6 C 5,7 km/h 100,00 %
26.06.2022 10:04 19,5 C 77 % 1015,6 hPa 0,0 l/m 2,1 km/h S-SO 167 1 min 0,000 mm 2,8 UV-I 722 W/m 15,4 C 19,5 C 5,7 km/h 100,00 %
26.06.2022 10:03 19,4 C 78 % 1015,6 hPa 0,0 l/m 7,3 km/h S-SO 167 1 min 0,000 mm 2,9 UV-I 704 W/m 15,5 C 19,0 C 11,5 km/h 100,00 %
26.06.2022 10:02 19,3 C 78 % 1015,6 hPa 0,0 l/m 2,1 km/h SW 220 1 min 0,001 mm 2,9 UV-I 685 W/m 15,4 C 19,3 C 5,7 km/h 96,15 %
26.06.2022 10:01 19,3 C 77 % 1015,6 hPa 0,0 l/m 6,0 km/h SW 220 1 min 0,279 mm 2,8 UV-I 660 W/m 15,2 C 19,3 C 7,7 km/h 100,00 %
26.06.2022 10:00 19,2 C 78 % 1015,6 hPa 0,0 l/m 7,8 km/h SW 221 1 min 0,000 mm 2,4 UV-I 649 W/m 15,3 C 18,6 C 9,6 km/h 100,00 %
26.06.2022 09:59 19,2 C 78 % 1015,6 hPa 0,0 l/m 7,3 km/h SW 228 1 min 0,000 mm 2,4 UV-I 649 W/m 15,3 C 18,8 C 11,5 km/h 95,83 %
26.06.2022 09:58 19,1 C 78 % 1015,6 hPa 0,0 l/m 5,0 km/h SW 219 1 min 0,000 mm 2,8 UV-I 645 W/m 15,2 C 19,1 C 7,7 km/h 100,00 %
26.06.2022 09:57 19,1 C 77 % 1015,6 hPa 0,0 l/m 4,0 km/h S-SW 193 1 min 0,000 mm 2,6 UV-I 634 W/m 15,0 C 19,1 C 5,7 km/h 100,00 %
26.06.2022 09:56 19,1 C 78 % 1015,7 hPa 0,0 l/m 7,8 km/h SW 225 1 min 0,000 mm 2,7 UV-I 632 W/m 15,2 C 18,5 C 15,3 km/h 100,00 %
26.06.2022 09:55 19,1 C 78 % 1015,7 hPa 0,0 l/m 7,6 km/h W-SW 242 1 min 0,000 mm 2,7 UV-I 618 W/m 15,2 C 18,6 C 11,5 km/h 100,00 %
26.06.2022 09:54 19,1 C 78 % 1015,6 hPa 0,0 l/m 6,9 km/h SW 223 1 min 0,000 mm 2,7 UV-I 429 W/m 15,2 C 18,9 C 9,6 km/h 100,00 %
26.06.2022 09:53 19,2 C 78 % 1015,6 hPa 0,0 l/m 6,1 km/h S-SW 205 0 min 0,000 mm 2,3 UV-I 130 W/m 15,3 C 19,2 C 9,6 km/h 100,00 %
26.06.2022 09:52 19,2 C 77 % 1015,6 hPa 0,0 l/m 7,3 km/h S-SW 211 0 min 0,000 mm 1,6 UV-I 127 W/m 15,1 C 18,8 C 11,5 km/h 95,65 %
26.06.2022 09:51 19,3 C 77 % 1015,6 hPa 0,0 l/m 5,7 km/h S-SW 206 1 min 0,000 mm 1,6 UV-I 487 W/m 15,2 C 19,3 C 9,6 km/h 100,00 %
26.06.2022 09:50 19,4 C 77 % 1015,6 hPa 0,0 l/m 8,0 km/h S-SW 207 1 min 0,000 mm 1,8 UV-I 682 W/m 15,3 C 18,7 C 11,5 km/h 100,00 %
26.06.2022 09:49 19,4 C 77 % 1015,6 hPa 0,0 l/m 9,3 km/h S 176 1 min 0,000 mm 2,6 UV-I 682 W/m 15,3 C 18,2 C 13,4 km/h 100,00 %
26.06.2022 09:48 19,4 C 78 % 1015,5 hPa 0,0 l/m 10,5 km/h S-SW 196 1 min 0,000 mm 2,6 UV-I 674 W/m 15,5 C 17,8 C 17,2 km/h 100,00 %
26.06.2022 09:47 19,3 C 78 % 1015,5 hPa 0,0 l/m 9,7 km/h SW 232 1 min 0,000 mm 2,6 UV-I 649 W/m 15,4 C 18,0 C 11,5 km/h 91,67 %
26.06.2022 09:46 19,3 C 78 % 1015,5 hPa 0,0 l/m 7,7 km/h SW 214 1 min 0,000 mm 2,5 UV-I 638 W/m 15,4 C 18,7 C 13,4 km/h 95,83 %
26.06.2022 09:45 19,3 C 79 % 1015,5 hPa 0,0 l/m 3,2 km/h W-SW 244 1 min 0,000 mm 2,5 UV-I 624 W/m 15,6 C 19,3 C 9,6 km/h 100,00 %
26.06.2022 09:44 19,3 C 79 % 1015,4 hPa 0,0 l/m 2,3 km/h S 189 1 min 0,000 mm 2,5 UV-I 625 W/m 15,6 C 19,3 C 3,8 km/h 100,00 %
26.06.2022 09:43 19,2 C 79 % 1015,4 hPa 0,0 l/m 3,9 km/h S 189 1 min 0,000 mm 2,5 UV-I 571 W/m 15,5 C 19,2 C 5,7 km/h 100,00 %
26.06.2022 09:42 19,2 C 79 % 1015,3 hPa 0,0 l/m 4,4 km/h S 190 1 min 0,000 mm 2,5 UV-I 649 W/m 15,5 C 19,2 C 7,7 km/h 100,00 %
26.06.2022 09:41 19,2 C 78 % 1015,3 hPa 0,0 l/m 2,5 km/h S 189 1 min 0,000 mm 2,5 UV-I 660 W/m 15,3 C 19,2 C 3,8 km/h 100,00 %
26.06.2022 09:40 19,3 C 79 % 1015,3 hPa 0,0 l/m 6,6 km/h S 189 1 min 0,000 mm 2,5 UV-I 666 W/m 15,6 C 19,2 C 11,5 km/h 99,51 %
26.06.2022 09:39 19,2 C 79 % 1015,3 hPa 0,0 l/m 3,8 km/h SW 223 1 min 0,000 mm 2,5 UV-I 666 W/m 15,5 C 19,2 C 5,7 km/h 100,00 %
26.06.2022 09:38 19,2 C 79 % 1015,3 hPa 0,0 l/m 6,9 km/h SW 222 1 min 0,000 mm 2,5 UV-I 673 W/m 15,5 C 19,0 C 11,5 km/h 100,00 %
26.06.2022 09:37 19,2 C 79 % 1015,2 hPa 0,0 l/m 5,8 km/h S 180 1 min 0,000 mm 2,5 UV-I 678 W/m 15,5 C 19,2 C 9,6 km/h 100,00 %
26.06.2022 09:36 19,2 C 78 % 1015,2 hPa 0,0 l/m 3,9 km/h S-SO 162 1 min 0,000 mm 2,4 UV-I 660 W/m 15,3 C 19,2 C 7,7 km/h 95,83 %
26.06.2022 09:35 19,2 C 79 % 1015,2 hPa 0,0 l/m 3,1 km/h S-SO 163 1 min 0,000 mm 2,3 UV-I 654 W/m 15,5 C 19,2 C 3,8 km/h 100,00 %
26.06.2022 09:34 19,2 C 80 % 1015,2 hPa 0,0 l/m 6,1 km/h S-SO 163 1 min 0,000 mm 2,3 UV-I 654 W/m 15,7 C 19,2 C 13,4 km/h 100,00 %
26.06.2022 09:33 19,1 C 81 % 1015,1 hPa 0,0 l/m 2,0 km/h S 189 1 min 0,000 mm 2,3 UV-I 650 W/m 15,8 C 19,1 C 3,8 km/h 100,00 %
26.06.2022 09:32 19,1 C 80 % 1015,1 hPa 0,0 l/m 3,2 km/h S 189 1 min 0,000 mm 2,3 UV-I 647 W/m 15,6 C 19,1 C 5,7 km/h 100,00 %
26.06.2022 09:31 18,9 C 80 % 1015,1 hPa 0,0 l/m 4,3 km/h S 189 1 min 0,000 mm 2,3 UV-I 647 W/m 15,4 C 18,9 C 7,7 km/h 100,00 %
26.06.2022 09:30 18,9 C 82 % 1015,2 hPa 0,0 l/m 2,7 km/h S 189 1 min 0,000 mm 2,3 UV-I 644 W/m 15,8 C 18,9 C 3,8 km/h 100,00 %
26.06.2022 09:29 18,8 C 81 % 1015,2 hPa 0,0 l/m 4,1 km/h S 189 1 min 0,000 mm 2,2 UV-I 629 W/m 15,5 C 18,8 C 7,7 km/h 100,00 %
26.06.2022 09:28 18,8 C 81 % 1015,2 hPa 0,0 l/m 6,0 km/h S 191 1 min 0,000 mm 2,1 UV-I 587 W/m 15,5 C 18,8 C 9,6 km/h 100,00 %
26.06.2022 09:27 18,7 C 82 % 1015,2 hPa 0,0 l/m 3,5 km/h S 187 1 min 0,000 mm 2,0 UV-I 551 W/m 15,6 C 18,7 C 7,7 km/h 100,00 %
26.06.2022 09:26 18,7 C 82 % 1015,1 hPa 0,0 l/m 4,5 km/h S-SW 194 1 min 0,000 mm 2,0 UV-I 581 W/m 15,6 C 18,7 C 7,7 km/h 100,00 %
26.06.2022 09:25 18,6 C 82 % 1015,1 hPa 0,0 l/m 9,3 km/h S-SW 211 1 min 0,000 mm 2,0 UV-I 572 W/m 15,5 C 17,4 C 11,5 km/h 96,15 %
26.06.2022 09:24 18,5 C 81 % 1015,1 hPa 0,0 l/m 4,9 km/h S-SO 166 1 min 0,000 mm 1,9 UV-I 617 W/m 15,2 C 18,5 C 11,5 km/h 100,00 %
26.06.2022 09:23 18,6 C 82 % 1015,1 hPa 0,0 l/m 4,1 km/h S-SW 202 1 min 0,000 mm 1,8 UV-I 617 W/m 15,5 C 18,6 C 7,7 km/h 100,00 %
26.06.2022 09:22 18,5 C 83 % 1015,1 hPa 0,0 l/m 2,8 km/h SW 236 1 min 0,000 mm 2,1 UV-I 617 W/m 15,6 C 18,5 C 7,7 km/h 100,00 %
26.06.2022 09:21 18,4 C 84 % 1015,1 hPa 0,0 l/m 3,4 km/h SW 236 1 min 0,000 mm 2,0 UV-I 615 W/m 15,6 C 18,4 C 5,7 km/h 100,00 %
26.06.2022 09:20 18,3 C 84 % 1015,2 hPa 0,0 l/m 0,6 km/h SW 236 1 min 0,000 mm 1,9 UV-I 570 W/m 15,5 C 18,3 C 1,9 km/h 100,00 %
26.06.2022 09:19 18,3 C 84 % 1015,2 hPa 0,0 l/m 1,0 km/h SW 236 1 min 0,000 mm 2,0 UV-I 572 W/m 15,5 C 18,3 C 3,8 km/h 100,00 %
26.06.2022 09:18 18,2 C 84 % 1015,1 hPa 0,0 l/m 1,7 km/h SW 236 1 min 0,000 mm 1,9 UV-I 538 W/m 15,4 C 18,2 C 3,8 km/h 100,00 %
26.06.2022 09:17 18,2 C 85 % 1015,2 hPa 0,0 l/m 3,8 km/h SW 236 1 min 0,000 mm 1,8 UV-I 510 W/m 15,6 C 18,2 C 5,7 km/h 100,00 %
26.06.2022 09:16 18,2 C 84 % 1015,1 hPa 0,0 l/m 1,8 km/h SW 236 1 min 0,000 mm 1,9 UV-I 423 W/m 15,4 C 18,2 C 5,7 km/h 95,65 %
26.06.2022 09:15 18,2 C 83 % 1015,1 hPa 0,0 l/m 6,2 km/h SW 236 1 min 0,000 mm 1,6 UV-I 397 W/m 15,3 C 18,2 C 7,7 km/h 100,00 %
26.06.2022 09:14 18,2 C 83 % 1015,1 hPa 0,0 l/m 5,7 km/h SW 236 0 min 0,000 mm 1,6 UV-I 178 W/m 15,3 C 18,2 C 9,6 km/h 100,00 %
26.06.2022 09:13 18,2 C 84 % 1015,1 hPa 0,0 l/m 3,7 km/h SW 229 0 min 0,000 mm 1,5 UV-I 178 W/m 15,4 C 18,2 C 9,6 km/h 100,00 %
26.06.2022 09:12 18,2 C 85 % 1015,1 hPa 0,0 l/m 2,2 km/h SW 225 0 min 0,000 mm 1,4 UV-I 178 W/m 15,6 C 18,2 C 5,7 km/h 100,00 %
26.06.2022 09:11 18,2 C 85 % 1015,1 hPa 0,0 l/m 3,4 km/h SW 225 0 min 0,000 mm 1,3 UV-I 178 W/m 15,6 C 18,2 C 5,7 km/h 100,00 %
26.06.2022 09:10 18,2 C 84 % 1015,1 hPa 0,0 l/m 3,5 km/h SW 225 0 min 0,000 mm 1,4 UV-I 178 W/m 15,4 C 18,2 C 5,7 km/h 100,00 %
26.06.2022 09:09 18,3 C 84 % 1015,2 hPa 0,0 l/m 5,8 km/h SW 225 0 min 0,000 mm 1,2 UV-I 164 W/m 15,5 C 18,3 C 9,6 km/h 96,30 %
26.06.2022 09:08 18,3 C 84 % 1015,1 hPa 0,0 l/m 8,6 km/h SW 225 0 min 0,000 mm 1,2 UV-I 168 W/m 15,5 C 17,3 C 13,4 km/h 96,15 %
26.06.2022 09:07 18,3 C 85 % 1015,1 hPa 0,0 l/m 5,5 km/h SW 228 0 min 0,000 mm 1,2 UV-I 215 W/m 15,7 C 18,3 C 13,4 km/h 100,00 %
26.06.2022 09:06 18,3 C 87 % 1015,1 hPa 0,0 l/m 7,1 km/h SW 228 1 min 0,000 mm 1,2 UV-I 313 W/m 16,1 C 18,0 C 9,6 km/h 100,00 %
26.06.2022 09:05 18,3 C 87 % 1015,1 hPa 0,0 l/m 1,6 km/h SW 234 1 min 0,000 mm 1,3 UV-I 368 W/m 16,1 C 18,3 C 7,7 km/h 100,00 %
26.06.2022 09:04 18,2 C 87 % 1015,1 hPa 0,0 l/m 2,2 km/h SW 233 0 min 0,000 mm 1,5 UV-I 272 W/m 16,0 C 18,2 C 7,7 km/h 100,00 %
26.06.2022 09:03 18,1 C 86 % 1015,0 hPa 0,0 l/m 0,2 km/h SW 234 0 min 0,000 mm 1,3 UV-I 244 W/m 15,7 C 18,1 C 1,9 km/h 100,00 %
26.06.2022 09:02 18,1 C 86 % 1015,0 hPa 0,0 l/m 1,9 km/h SW 234 1 min 0,000 mm 1,3 UV-I 357 W/m 15,7 C 18,1 C 5,7 km/h 100,00 %
26.06.2022 09:01 18,0 C 86 % 1015,0 hPa 0,0 l/m 4,8 km/h SW 234 1 min 0,000 mm 1,4 UV-I 377 W/m 15,6 C 18,0 C 7,7 km/h 100,00 %
26.06.2022 09:00 18,0 C 88 % 1015,0 hPa 0,0 l/m 6,3 km/h SW 231 1 min 0,152 mm 1,6 UV-I 448 W/m 16,0 C 18,0 C 7,7 km/h 100,00 %
26.06.2022 08:59 17,9 C 87 % 1015,1 hPa 0,0 l/m 4,2 km/h W-SW 242 1 min 0,000 mm 1,7 UV-I 489 W/m 15,7 C 17,9 C 5,7 km/h 100,00 %
26.06.2022 08:58 17,9 C 87 % 1015,0 hPa 0,0 l/m 3,5 km/h W-SW 243 1 min 0,000 mm 1,7 UV-I 513 W/m 15,7 C 17,9 C 7,7 km/h 100,00 %
26.06.2022 08:57 17,9 C 87 % 1015,0 hPa 0,0 l/m 8,2 km/h W-SW 238 1 min 0,000 mm 1,7 UV-I 531 W/m 15,7 C 17,1 C 13,4 km/h 100,00 %
26.06.2022 08:56 17,9 C 87 % 1015,0 hPa 0,0 l/m 5,9 km/h W-SW 249 1 min 0,000 mm 1,7 UV-I 518 W/m 15,7 C 17,9 C 9,6 km/h 100,00 %
26.06.2022 08:55 17,8 C 89 % 1015,0 hPa 0,0 l/m 8,1 km/h S-SW 207 1 min 0,000 mm 1,7 UV-I 553 W/m 16,0 C 17,0 C 11,5 km/h 100,00 %
26.06.2022 08:54 17,7 C 88 % 1015,0 hPa 0,0 l/m 8,1 km/h SW 232 1 min 0,000 mm 1,7 UV-I 545 W/m 15,7 C 16,9 C 11,5 km/h 100,00 %
26.06.2022 08:53 17,7 C 89 % 1014,9 hPa 0,0 l/m 5,5 km/h S-SW 196 1 min 0,000 mm 1,7 UV-I 537 W/m 15,9 C 17,7 C 9,6 km/h 100,00 %
26.06.2022 08:52 17,6 C 88 % 1014,9 hPa 0,0 l/m 2,2 km/h W-SW 242 1 min 0,000 mm 1,4 UV-I 481 W/m 15,6 C 17,6 C 3,8 km/h 100,00 %
26.06.2022 08:51 17,6 C 88 % 1014,9 hPa 0,0 l/m 1,1 km/h W-SW 242 1 min 0,000 mm 1,5 UV-I 446 W/m 15,6 C 17,6 C 5,7 km/h 100,00 %
26.06.2022 08:50 17,4 C 88 % 1014,9 hPa 0,0 l/m 7,0 km/h W-SW 242 1 min 0,000 mm 1,5 UV-I 450 W/m 15,4 C 17,1 C 9,6 km/h 100,00 %
26.06.2022 08:49 17,4 C 88 % 1014,9 hPa 0,0 l/m 8,3 km/h W 260 1 min 0,000 mm 1,5 UV-I 474 W/m 15,4 C 16,5 C 17,2 km/h 100,00 %
26.06.2022 08:48 17,4 C 88 % 1014,9 hPa 0,0 l/m 8,8 km/h S-SW 207 1 min 0,000 mm 1,4 UV-I 434 W/m 15,4 C 16,3 C 11,5 km/h 100,00 %
26.06.2022 08:47 17,4 C 89 % 1014,9 hPa 0,0 l/m 9,0 km/h SW 221 1 min 0,000 mm 1,4 UV-I 403 W/m 15,6 C 16,2 C 13,4 km/h 100,00 %
26.06.2022 08:46 17,4 C 89 % 1014,9 hPa 0,0 l/m 5,4 km/h SW 236 1 min 0,000 mm 1,3 UV-I 354 W/m 15,6 C 17,4 C 7,7 km/h 100,00 %
26.06.2022 08:45 17,4 C 88 % 1014,8 hPa 0,0 l/m 6,3 km/h W-SW 244 1 min 0,000 mm 1,2 UV-I 309 W/m 15,4 C 17,4 C 11,5 km/h 100,00 %
26.06.2022 08:44 17,4 C 88 % 1014,8 hPa 0,0 l/m 8,0 km/h SW 230 0 min 0,000 mm 1,2 UV-I 264 W/m 15,4 C 16,6 C 13,4 km/h 100,00 %
26.06.2022 08:43 17,4 C 89 % 1014,8 hPa 0,0 l/m 6,2 km/h SW 232 0 min 0,000 mm 1,1 UV-I 269 W/m 15,6 C 17,4 C 9,6 km/h 100,00 %
26.06.2022 08:42 17,4 C 90 % 1014,8 hPa 0,0 l/m 3,2 km/h SW 227 0 min 0,000 mm 1,1 UV-I 228 W/m 15,7 C 17,4 C 13,4 km/h 100,00 %
26.06.2022 08:41 17,4 C 90 % 1014,8 hPa 0,0 l/m 4,5 km/h S-SW 207 0 min 0,000 mm 0,9 UV-I 180 W/m 15,7 C 17,4 C 7,7 km/h 100,00 %
26.06.2022 08:40 17,4 C 90 % 1014,8 hPa 0,0 l/m 5,5 km/h S-SW 207 0 min 0,000 mm 1,0 UV-I 150 W/m 15,7 C 17,4 C 9,6 km/h 95,65 %
26.06.2022 08:39 17,3 C 90 % 1014,8 hPa 0,0 l/m 6,2 km/h SW 225 0 min 0,000 mm 1,1 UV-I 148 W/m 15,6 C 17,3 C 9,6 km/h 100,00 %
26.06.2022 08:38 17,3 C 90 % 1014,8 hPa 0,0 l/m 3,9 km/h SW 231 0 min 0,000 mm 1,0 UV-I 171 W/m 15,6 C 17,3 C 9,6 km/h 100,00 %
26.06.2022 08:37 17,4 C 90 % 1014,7 hPa 0,0 l/m 5,7 km/h SW 225 0 min 0,000 mm 1,0 UV-I 240 W/m 15,7 C 17,4 C 13,4 km/h 100,00 %
26.06.2022 08:36 17,3 C 91 % 1014,8 hPa 0,0 l/m 5,4 km/h SW 230 0 min 0,000 mm 1,0 UV-I 260 W/m 15,8 C 17,3 C 7,7 km/h 100,00 %
26.06.2022 08:35 17,3 C 91 % 1014,8 hPa 0,0 l/m 4,5 km/h SW 230 0 min 0,000 mm 1,0 UV-I 269 W/m 15,8 C 17,3 C 9,6 km/h 100,00 %
26.06.2022 08:34 17,3 C 91 % 1014,7 hPa 0,0 l/m 3,5 km/h SW 229 0 min 0,000 mm 1,0 UV-I 252 W/m 15,8 C 17,3 C 5,7 km/h 100,00 %
26.06.2022 08:33 17,3 C 90 % 1014,8 hPa 0,0 l/m 3,4 km/h SW 230 0 min 0,000 mm 1,0 UV-I 278 W/m 15,6 C 17,3 C 7,7 km/h 100,00 %
26.06.2022 08:32 17,2 C 90 % 1014,8 hPa 0,0 l/m 7,0 km/h SW 229 0 min 0,000 mm 1,0 UV-I 283 W/m 15,5 C 16,9 C 9,6 km/h 100,00 %
26.06.2022 08:31 17,2 C 91 % 1014,7 hPa 0,0 l/m 8,1 km/h S-SW 200 0 min 0,000 mm 1,0 UV-I 259 W/m 15,7 C 16,4 C 11,5 km/h 100,00 %
26.06.2022 08:30 17,2 C 91 % 1014,7 hPa 0,0 l/m 10,3 km/h SW 230 1 min 0,000 mm 1,0 UV-I 290 W/m 15,7 C 15,4 C 15,3 km/h 95,65 %
26.06.2022 08:29 17,2 C 92 % 1014,7 hPa 0,0 l/m 6,6 km/h SW 223 0 min 0,000 mm 1,0 UV-I 278 W/m 15,9 C 17,1 C 9,6 km/h 100,00 %
26.06.2022 08:28 17,1 C 92 % 1014,6 hPa 0,0 l/m 7,1 km/h SW 214 1 min 0,000 mm 1,0 UV-I 299 W/m 15,8 C 16,7 C 9,6 km/h 100,00 %
26.06.2022 08:27 17,1 C 92 % 1014,6 hPa 0,0 l/m 5,7 km/h S-SW 202 1 min 0,000 mm 1,0 UV-I 306 W/m 15,8 C 17,1 C 7,7 km/h 95,83 %
26.06.2022 08:26 17,0 C 92 % 1014,5 hPa 0,0 l/m 6,8 km/h S-SW 200 1 min 0,000 mm 1,1 UV-I 354 W/m 15,7 C 16,8 C 9,6 km/h 100,00 %
26.06.2022 08:25 16,9 C 93 % 1014,5 hPa 0,0 l/m 7,7 km/h SW 232 1 min 0,000 mm 1,1 UV-I 373 W/m 15,8 C 16,2 C 15,3 km/h 100,00 %
26.06.2022 08:24 16,9 C 93 % 1014,5 hPa 0,0 l/m 5,1 km/h W-SW 242 1 min 0,000 mm 1,1 UV-I 359 W/m 15,8 C 16,9 C 7,7 km/h 100,00 %
26.06.2022 08:23 16,8 C 92 % 1014,5 hPa 0,0 l/m 4,5 km/h SW 227 1 min 0,000 mm 1,1 UV-I 368 W/m 15,5 C 16,8 C 7,7 km/h 100,00 %
26.06.2022 08:22 16,8 C 92 % 1014,5 hPa 0,0 l/m 5,7 km/h SW 224 1 min 0,000 mm 1,1 UV-I 376 W/m 15,5 C 16,8 C 9,6 km/h 100,00 %
26.06.2022 08:21 16,7 C 93 % 1014,5 hPa 0,0 l/m 6,4 km/h S 187 1 min 0,000 mm 1,0 UV-I 331 W/m 15,6 C 16,7 C 9,6 km/h 100,00 %
26.06.2022 08:20 16,7 C 93 % 1014,5 hPa 0,0 l/m 5,2 km/h SW 227 0 min 0,000 mm 0,9 UV-I 254 W/m 15,6 C 16,7 C 7,7 km/h 100,00 %
26.06.2022 08:19 16,7 C 92 % 1014,5 hPa 0,0 l/m 4,0 km/h SW 227 0 min 0,000 mm 0,9 UV-I 278 W/m 15,4 C 16,7 C 5,7 km/h 100,00 %
26.06.2022 08:18 16,6 C 92 % 1014,5 hPa 0,0 l/m 5,3 km/h SW 227 1 min 0,000 mm 0,9 UV-I 290 W/m 15,3 C 16,6 C 7,7 km/h 100,00 %
26.06.2022 08:17 16,6 C 92 % 1014,5 hPa 0,0 l/m 3,1 km/h SW 229 0 min 0,000 mm 0,9 UV-I 152 W/m 15,3 C 16,6 C 7,7 km/h 100,00 %
26.06.2022 08:16 16,6 C 92 % 1014,5 hPa 0,0 l/m 5,6 km/h SW 229 0 min 0,000 mm 0,8 UV-I 114 W/m 15,3 C 16,6 C 7,7 km/h 95,83 %
26.06.2022 08:15 16,6 C 92 % 1014,5 hPa 0,0 l/m 3,8 km/h SW 230 0 min 0,000 mm 0,7 UV-I 91 W/m 15,3 C 16,6 C 5,7 km/h 100,00 %
26.06.2022 08:14 16,6 C 92 % 1014,5 hPa 0,0 l/m 3,4 km/h SW 230 0 min 0,000 mm 0,7 UV-I 91 W/m 15,3 C 16,6 C 7,7 km/h 95,83 %
26.06.2022 08:13 16,6 C 92 % 1014,5 hPa 0,0 l/m 5,8 km/h SW 230 0 min 0,000 mm 0,7 UV-I 87 W/m 15,3 C 16,6 C 11,5 km/h 100,00 %
26.06.2022 08:12 16,6 C 92 % 1014,4 hPa 0,0 l/m 7,0 km/h SW 224 0 min 0,000 mm 0,7 UV-I 86 W/m 15,3 C 16,3 C 11,5 km/h 100,00 %
26.06.2022 08:11 16,6 C 92 % 1014,5 hPa 0,0 l/m 7,9 km/h W-SW 248 0 min 0,000 mm 0,7 UV-I 88 W/m 15,3 C 15,8 C 15,3 km/h 100,00 %
26.06.2022 08:10 16,6 C 92 % 1014,5 hPa 0,0 l/m 7,5 km/h W-SW 237 0 min 0,000 mm 0,7 UV-I 91 W/m 15,3 C 16,0 C 13,4 km/h 100,00 %
26.06.2022 08:09 16,6 C 92 % 1014,4 hPa 0,0 l/m 6,7 km/h W-SW 243 0 min 0,000 mm 0,6 UV-I 94 W/m 15,3 C 16,5 C 15,3 km/h 100,00 %
26.06.2022 08:08 16,6 C 92 % 1014,4 hPa 0,0 l/m 5,0 km/h SW 232 0 min 0,000 mm 0,6 UV-I 98 W/m 15,3 C 16,6 C 7,7 km/h 100,00 %
26.06.2022 08:07 16,6 C 92 % 1014,4 hPa 0,0 l/m 7,6 km/h SW 233 0 min 0,000 mm 0,7 UV-I 103 W/m 15,3 C 16,0 C 11,5 km/h 100,00 %
26.06.2022 08:06 16,6 C 92 % 1014,4 hPa 0,0 l/m 7,2 km/h SW 229 0 min 0,000 mm 0,7 UV-I 151 W/m 15,3 C 16,2 C 11,5 km/h 100,00 %
26.06.2022 08:05 16,6 C 92 % 1014,4 hPa 0,0 l/m 9,5 km/h SW 236 0 min 0,000 mm 0,7 UV-I 174 W/m 15,3 C 15,1 C 15,3 km/h 100,00 %
26.06.2022 08:04 16,6 C 92 % 1014,4 hPa 0,0 l/m 5,3 km/h SW 222 0 min 0,000 mm 0,8 UV-I 170 W/m 15,3 C 16,6 C 9,6 km/h 96,15 %
26.06.2022 08:03 16,6 C 92 % 1014,4 hPa 0,0 l/m 4,9 km/h S-SW 199 0 min 0,000 mm 0,7 UV-I 130 W/m 15,3 C 16,6 C 11,5 km/h 100,00 %
26.06.2022 08:02 16,6 C 92 % 1014,5 hPa 0,0 l/m 6,9 km/h SW 227 0 min 0,000 mm 0,6 UV-I 111 W/m 15,3 C 16,3 C 11,5 km/h 100,00 %
26.06.2022 08:01 16,6 C 92 % 1014,5 hPa 0,0 l/m 5,2 km/h SW 234 0 min 0,000 mm 0,6 UV-I 113 W/m 15,3 C 16,6 C 7,7 km/h 100,00 %
26.06.2022 08:00 16,6 C 92 % 1014,5 hPa 0,0 l/m 7,1 km/h SW 236 0 min 0,051 mm 0,6 UV-I 113 W/m 15,3 C 16,2 C 9,6 km/h 95,83 %
26.06.2022 07:59 16,6 C 92 % 1014,4 hPa 0,0 l/m 5,6 km/h SW 236 0 min 0,000 mm 0,6 UV-I 115 W/m 15,3 C 16,6 C 9,6 km/h 100,00 %
26.06.2022 07:58 16,7 C 92 % 1014,4 hPa 0,0 l/m 9,8 km/h SW 227 0 min 0,000 mm 0,6 UV-I 125 W/m 15,4 C 15,1 C 15,3 km/h 100,00 %
26.06.2022 07:57 16,7 C 92 % 1014,4 hPa 0,0 l/m 8,5 km/h SW 220 0 min 0,000 mm 0,6 UV-I 131 W/m 15,4 C 15,6 C 15,3 km/h 92,00 %
26.06.2022 07:56 16,7 C 92 % 1014,2 hPa 0,0 l/m 11,4 km/h W-SW 237 0 min 0,000 mm 0,6 UV-I 123 W/m 15,4 C 14,4 C 17,2 km/h 100,00 %
26.06.2022 07:55 16,7 C 92 % 1014,2 hPa 0,0 l/m 4,3 km/h SW 232 0 min 0,000 mm 0,6 UV-I 121 W/m 15,4 C 16,7 C 9,6 km/h 100,00 %
26.06.2022 07:54 16,7 C 92 % 1014,2 hPa 0,0 l/m 5,7 km/h SW 228 0 min 0,000 mm 0,6 UV-I 121 W/m 15,4 C 16,7 C 13,4 km/h 100,00 %
26.06.2022 07:53 16,7 C 93 % 1014,2 hPa 0,0 l/m 6,5 km/h W 265 0 min 0,000 mm 0,6 UV-I 116 W/m 15,6 C 16,7 C 15,3 km/h 100,00 %
26.06.2022 07:52 16,7 C 93 % 1014,1 hPa 0,0 l/m 5,2 km/h SW 226 0 min 0,000 mm 0,6 UV-I 111 W/m 15,6 C 16,7 C 7,7 km/h 100,00 %
26.06.2022 07:51 16,7 C 92 % 1014,1 hPa 0,0 l/m 5,7 km/h SW 222 0 min 0,000 mm 0,6 UV-I 107 W/m 15,4 C 16,7 C 7,7 km/h 100,00 %
26.06.2022 07:50 16,7 C 92 % 1014,0 hPa 0,0 l/m 5,4 km/h SW 222 0 min 0,000 mm 0,6 UV-I 100 W/m 15,4 C 16,7 C 7,7 km/h 100,00 %
26.06.2022 07:49 16,7 C 93 % 1014,0 hPa 0,0 l/m 5,3 km/h SW 222 0 min 0,000 mm 0,6 UV-I 95 W/m 15,6 C 16,7 C 9,6 km/h 100,00 %
26.06.2022 07:48 16,8 C 93 % 1014,0 hPa 0,0 l/m 8,5 km/h SW 234 0 min 0,000 mm 0,6 UV-I 86 W/m 15,7 C 15,8 C 15,3 km/h 100,00 %
26.06.2022 07:47 16,8 C 93 % 1014,0 hPa 0,0 l/m 7,7 km/h SW 230 0 min 0,000 mm 0,5 UV-I 79 W/m 15,7 C 16,1 C 17,2 km/h 100,00 %
26.06.2022 07:46 16,8 C 93 % 1014,1 hPa 0,0 l/m 8,7 km/h SW 216 0 min 0,000 mm 0,5 UV-I 71 W/m 15,7 C 15,7 C 15,3 km/h 100,00 %
26.06.2022 07:45 16,8 C 93 % 1014,1 hPa 0,0 l/m 6,2 km/h SW 221 0 min 0,000 mm 0,5 UV-I 86 W/m 15,7 C 16,8 C 15,3 km/h 100,00 %
26.06.2022 07:44 16,8 C 93 % 1014,0 hPa 0,0 l/m 9,4 km/h SW 227 0 min 0,000 mm 0,5 UV-I 128 W/m 15,7 C 15,4 C 15,3 km/h 100,00 %
26.06.2022 07:43 16,7 C 93 % 1014,0 hPa 0,0 l/m 4,3 km/h SW 235 0 min 0,000 mm 0,5 UV-I 175 W/m 15,6 C 16,7 C 7,7 km/h 100,00 %
26.06.2022 07:42 16,8 C 93 % 1014,0 hPa 0,0 l/m 8,7 km/h W-SW 237 0 min 0,000 mm 0,5 UV-I 175 W/m 15,7 C 15,7 C 15,3 km/h 96,00 %
26.06.2022 07:41 16,7 C 93 % 1014,0 hPa 0,0 l/m 7,8 km/h SW 224 0 min 0,000 mm 0,5 UV-I 205 W/m 15,6 C 16,0 C 17,2 km/h 100,00 %
26.06.2022 07:40 16,7 C 94 % 1014,0 hPa 0,0 l/m 11,6 km/h W-SW 238 0 min 0,000 mm 0,5 UV-I 178 W/m 15,7 C 14,4 C 21,0 km/h 100,00 %
26.06.2022 07:39 16,7 C 94 % 1014,0 hPa 0,0 l/m 10,4 km/h S-SW 207 0 min 0,000 mm 0,5 UV-I 229 W/m 15,7 C 14,8 C 17,2 km/h 96,15 %
26.06.2022 07:38 16,7 C 94 % 1014,0 hPa 0,0 l/m 6,1 km/h SW 223 0 min 0,000 mm 0,5 UV-I 170 W/m 15,7 C 16,7 C 9,6 km/h 100,00 %
26.06.2022 07:37 16,7 C 94 % 1014,0 hPa 0,0 l/m 9,9 km/h S-SW 213 0 min 0,000 mm 0,5 UV-I 135 W/m 15,7 C 15,0 C 13,4 km/h 96,55 %
26.06.2022 07:36 16,8 C 94 % 1014,0 hPa 0,0 l/m 12,0 km/h SW 216 0 min 0,000 mm 0,5 UV-I 120 W/m 15,8 C 14,3 C 15,3 km/h 100,00 %
26.06.2022 07:35 16,8 C 94 % 1014,0 hPa 0,0 l/m 8,8 km/h SW 232 0 min 0,000 mm 0,5 UV-I 126 W/m 15,8 C 15,6 C 13,4 km/h 100,00 %
26.06.2022 07:34 16,8 C 94 % 1014,0 hPa 0,0 l/m 12,2 km/h SW 230 0 min 0,000 mm 0,3 UV-I 119 W/m 15,8 C 14,3 C 19,1 km/h 100,00 %
26.06.2022 07:33 16,8 C 94 % 1013,9 hPa 0,0 l/m 7,8 km/h SW 236 0 min 0,000 mm 0,0 UV-I 113 W/m 15,8 C 16,1 C 15,3 km/h 100,00 %
26.06.2022 07:32 16,8 C 94 % 1014,0 hPa 0,0 l/m 8,4 km/h SW 223 0 min 0,000 mm 0,0 UV-I 102 W/m 15,8 C 15,8 C 13,4 km/h 100,00 %
26.06.2022 07:31 16,8 C 94 % 1014,0 hPa 0,0 l/m 6,1 km/h SW 217 0 min 0,000 mm 0,0 UV-I 88 W/m 15,8 C 16,8 C 7,7 km/h 100,00 %
26.06.2022 07:30 16,8 C 94 % 1014,0 hPa 0,0 l/m 9,2 km/h SW 217 0 min 0,000 mm 0,0 UV-I 90 W/m 15,8 C 15,4 C 13,4 km/h 100,00 %
26.06.2022 07:29 16,8 C 94 % 1013,9 hPa 0,0 l/m 10,0 km/h SW 219 0 min 0,000 mm 0,0 UV-I 74 W/m 15,8 C 15,1 C 15,3 km/h 100,00 %
26.06.2022 07:28 16,8 C 94 % 1013,9 hPa 0,0 l/m 5,2 km/h SW 226 0 min 0,000 mm 0,0 UV-I 73 W/m 15,8 C 16,8 C 7,7 km/h 100,00 %
26.06.2022 07:27 16,8 C 95 % 1013,9 hPa 0,0 l/m 9,5 km/h SW 215 0 min 0,000 mm 0,0 UV-I 76 W/m 16,0 C 15,3 C 13,4 km/h 100,00 %
26.06.2022 07:26 16,8 C 95 % 1013,9 hPa 0,0 l/m 6,0 km/h SW 216 0 min 0,000 mm 0,0 UV-I 75 W/m 16,0 C 16,8 C 9,6 km/h 100,00 %
26.06.2022 07:25 16,8 C 95 % 1013,8 hPa 0,0 l/m 9,1 km/h W-SW 246 0 min 0,000 mm 0,0 UV-I 74 W/m 16,0 C 15,5 C 15,3 km/h 100,00 %
26.06.2022 07:24 16,8 C 95 % 1013,9 hPa 0,0 l/m 8,6 km/h S-SW 213 0 min 0,000 mm 0,0 UV-I 76 W/m 16,0 C 15,7 C 17,2 km/h 100,00 %
26.06.2022 07:23 16,8 C 95 % 1013,9 hPa 0,0 l/m 5,4 km/h SW 232 0 min 0,000 mm 0,0 UV-I 80 W/m 16,0 C 16,8 C 7,7 km/h 100,00 %
26.06.2022 07:22 16,8 C 95 % 1013,8 hPa 0,0 l/m 6,1 km/h SW 230 0 min 0,000 mm 0,0 UV-I 89 W/m 16,0 C 16,8 C 9,6 km/h 100,00 %
26.06.2022 07:21 16,8 C 95 % 1013,8 hPa 0,0 l/m 8,5 km/h SW 236 0 min 0,000 mm 0,0 UV-I 113 W/m 16,0 C 15,8 C 15,3 km/h 100,00 %
26.06.2022 07:20 16,8 C 95 % 1013,7 hPa 0,0 l/m 9,1 km/h SW 235 0 min 0,000 mm 0,0 UV-I 128 W/m 16,0 C 15,5 C 15,3 km/h 100,00 %
26.06.2022 07:19 16,9 C 95 % 1013,7 hPa 0,0 l/m 9,6 km/h SW 217 0 min 0,000 mm 0,0 UV-I 90 W/m 16,1 C 15,4 C 15,3 km/h 100,00 %
26.06.2022 07:18 16,9 C 95 % 1013,7 hPa 0,0 l/m 5,8 km/h SW 225 0 min 0,000 mm 0,0 UV-I 80 W/m 16,1 C 16,9 C 9,6 km/h 96,15 %
26.06.2022 07:17 16,9 C 95 % 1013,6 hPa 0,0 l/m 7,8 km/h SW 223 0 min 0,000 mm 0,0 UV-I 87 W/m 16,1 C 16,2 C 11,5 km/h 100,00 %
26.06.2022 07:16 16,9 C 95 % 1013,7 hPa 0,0 l/m 9,4 km/h SW 227 0 min 0,000 mm 0,0 UV-I 82 W/m 16,1 C 15,5 C 13,4 km/h 100,00 %
26.06.2022 07:15 16,9 C 95 % 1013,7 hPa 0,0 l/m 7,6 km/h SW 227 0 min 0,000 mm 0,0 UV-I 82 W/m 16,1 C 16,3 C 11,5 km/h 100,00 %
26.06.2022 07:14 16,9 C 96 % 1013,7 hPa 0,0 l/m 6,2 km/h SW 223 0 min 0,000 mm 0,0 UV-I 71 W/m 16,3 C 16,9 C 9,6 km/h 100,00 %
26.06.2022 07:13 16,9 C 96 % 1013,7 hPa 0,0 l/m 8,8 km/h S-SW 213 0 min 0,000 mm 0,0 UV-I 59 W/m 16,3 C 15,7 C 13,4 km/h 100,00 %
26.06.2022 07:12 17,0 C 96 % 1013,7 hPa 0,0 l/m 4,7 km/h S-SW 196 0 min 0,000 mm 0,0 UV-I 52 W/m 16,4 C 17,0 C 7,7 km/h 100,00 %
26.06.2022 07:11 17,0 C 96 % 1013,7 hPa 0,0 l/m 5,3 km/h S-SW 195 0 min 0,000 mm 0,0 UV-I 49 W/m 16,4 C 17,0 C 7,7 km/h 100,00 %
26.06.2022 07:10 17,0 C 96 % 1013,7 hPa 0,0 l/m 3,5 km/h SW 218 0 min 0,000 mm 0,0 UV-I 50 W/m 16,4 C 17,0 C 3,8 km/h 100,00 %
26.06.2022 07:09 17,0 C 96 % 1013,7 hPa 0,0 l/m 3,8 km/h SW 218 0 min 0,000 mm 0,0 UV-I 49 W/m 16,4 C 17,0 C 5,7 km/h 96,15 %
26.06.2022 07:08 17,0 C 96 % 1013,7 hPa 0,0 l/m 3,6 km/h SW 222 0 min 0,000 mm 0,0 UV-I 41 W/m 16,4 C 17,0 C 5,7 km/h 100,00 %
26.06.2022 07:07 17,0 C 96 % 1013,7 hPa 0,0 l/m 5,3 km/h SW 222 0 min 0,000 mm 0,0 UV-I 31 W/m 16,4 C 17,0 C 7,7 km/h 100,00 %
26.06.2022 07:06 17,0 C 96 % 1013,7 hPa 0,0 l/m 7,5 km/h SW 222 0 min 0,000 mm 0,0 UV-I 22 W/m 16,4 C 16,4 C 11,5 km/h 100,00 %
26.06.2022 07:05 17,1 C 96 % 1013,7 hPa 0,0 l/m 5,3 km/h SW 218 0 min 0,000 mm 0,0 UV-I 18 W/m 16,5 C 17,1 C 7,7 km/h 100,00 %
26.06.2022 07:04 17,1 C 96 % 1013,7 hPa 0,0 l/m 3,9 km/h S-SW 200 0 min 0,000 mm 0,0 UV-I 17 W/m 16,5 C 17,1 C 5,7 km/h 100,00 %
26.06.2022 07:03 17,1 C 96 % 1013,7 hPa 0,0 l/m 5,7 km/h SW 217 0 min 0,000 mm 0,0 UV-I 18 W/m 16,5 C 17,1 C 7,7 km/h 96,67 %
26.06.2022 07:02 17,1 C 96 % 1013,7 hPa 0,0 l/m 7,7 km/h SW 216 0 min 0,000 mm 0,0 UV-I 18 W/m 16,5 C 16,5 C 9,6 km/h 100,00 %
26.06.2022 07:01 17,2 C 96 % 1013,7 hPa 0,0 l/m 4,0 km/h S-SW 213 0 min 0,025 mm 0,0 UV-I 20 W/m 16,6 C 17,2 C 9,6 km/h 96,15 %
26.06.2022 07:00 17,2 C 96 % 1013,6 hPa 0,0 l/m 2,5 km/h S-SW 202 0 min 0,000 mm 0,0 UV-I 24 W/m 16,6 C 17,2 C 5,7 km/h 100,00 %
26.06.2022 06:59 17,2 C 96 % 1013,6 hPa 0,0 l/m 2,4 km/h S-SW 202 0 min 0,000 mm 0,0 UV-I 21 W/m 16,6 C 17,2 C 3,8 km/h 100,00 %
26.06.2022 06:58 17,2 C 96 % 1013,6 hPa 0,0 l/m 4,0 km/h S-SW 202 0 min 0,000 mm 0,0 UV-I 21 W/m 16,6 C 17,2 C 5,7 km/h 100,00 %
26.06.2022 06:57 17,1 C 96 % 1013,6 hPa 0,0 l/m 3,2 km/h S-SW 202 0 min 0,000 mm 0,0 UV-I 20 W/m 16,5 C 17,1 C 5,7 km/h 100,00 %
26.06.2022 06:56 17,2 C 96 % 1013,6 hPa 0,0 l/m 3,1 km/h S-SW 202 0 min 0,000 mm 0,0 UV-I 18 W/m 16,6 C 17,2 C 3,8 km/h 100,00 %
26.06.2022 06:55 17,2 C 96 % 1013,7 hPa 0,0 l/m 3,3 km/h S-SW 202 0 min 0,000 mm 0,0 UV-I 16 W/m 16,6 C 17,2 C 3,8 km/h 96,15 %
26.06.2022 06:54 17,2 C 96 % 1013,6 hPa 0,0 l/m 4,8 km/h S-SW 202 0 min 0,000 mm 0,0 UV-I 18 W/m 16,6 C 17,2 C 5,7 km/h 100,00 %
26.06.2022 06:53 17,1 C 96 % 1013,6 hPa 0,0 l/m 5,3 km/h S-SW 202 0 min 0,000 mm 0,0 UV-I 19 W/m 16,5 C 17,1 C 7,7 km/h 100,00 %
26.06.2022 06:52 17,2 C 96 % 1013,6 hPa 0,0 l/m 2,3 km/h S-SW 202 0 min 0,000 mm 0,0 UV-I 19 W/m 16,6 C 17,2 C 5,7 km/h 100,00 %
26.06.2022 06:51 17,2 C 96 % 1013,6 hPa 0,0 l/m 3,0 km/h S-SW 202 0 min 0,000 mm 0,0 UV-I 19 W/m 16,6 C 17,2 C 5,7 km/h 100,00 %
26.06.2022 06:50 17,1 C 96 % 1013,6 hPa 0,0 l/m 1,9 km/h S-SW 202 0 min 0,000 mm 0,0 UV-I 19 W/m 16,5 C 17,1 C 3,8 km/h 100,00 %
26.06.2022 06:49 17,1 C 96 % 1013,6 hPa 0,0 l/m 1,7 km/h S-SW 202 0 min 0,000 mm 0,0 UV-I 20 W/m 16,5 C 17,1 C 3,8 km/h 100,00 %
26.06.2022 06:48 17,2 C 96 % 1013,5 hPa 0,0 l/m 4,0 km/h S-SW 202 0 min 0,000 mm 0,0 UV-I 25 W/m 16,6 C 17,2 C 5,7 km/h 100,00 %
26.06.2022 06:47 17,1 C 96 % 1013,5 hPa 0,0 l/m 2,9 km/h S-SW 202 0 min 0,000 mm 0,0 UV-I 28 W/m 16,5 C 17,1 C 5,7 km/h 100,00 %
26.06.2022 06:46 17,2 C 96 % 1013,5 hPa 0,0 l/m 5,4 km/h S-SW 202 0 min 0,000 mm 0,0 UV-I 31 W/m 16,6 C 17,2 C 7,7 km/h 99,56 %
26.06.2022 06:45 17,2 C 96 % 1013,5 hPa 0,0 l/m 4,1 km/h S-SW 202 0 min 0,000 mm 0,0 UV-I 32 W/m 16,6 C 17,2 C 7,7 km/h 100,00 %
26.06.2022 06:44 17,2 C 96 % 1013,4 hPa 0,0 l/m 3,4 km/h S-SW 202 0 min 0,000 mm 0,0 UV-I 33 W/m 16,6 C 17,2 C 5,7 km/h 100,00 %
26.06.2022 06:43 17,2 C 96 % 1013,4 hPa 0,0 l/m 4,3 km/h S-SW 202 0 min 0,000 mm 0,0 UV-I 36 W/m 16,6 C 17,2 C 7,7 km/h 100,00 %
26.06.2022 06:42 17,2 C 96 % 1013,3 hPa 0,0 l/m 4,7 km/h S-SW 202 0 min 0,000 mm 0,0 UV-I 40 W/m 16,6 C 17,2 C 9,6 km/h 100,00 %
26.06.2022 06:41 17,2 C 96 % 1013,3 hPa 0,0 l/m 2,5 km/h S-SW 202 0 min 0,000 mm 0,0 UV-I 39 W/m 16,6 C 17,2 C 3,8 km/h 100,00 %
26.06.2022 06:40 17,2 C 96 % 1013,3 hPa 0,0 l/m 4,4 km/h S-SW 202 0 min 0,000 mm 0,0 UV-I 39 W/m 16,6 C 17,2 C 5,7 km/h 100,00 %
26.06.2022 06:39 17,2 C 97 % 1013,3 hPa 0,0 l/m 3,4 km/h S-SW 202 0 min 0,000 mm 0,0 UV-I 44 W/m 16,7 C 17,2 C 5,7 km/h 100,00 %
26.06.2022 06:38 17,2 C 96 % 1013,3 hPa 0,0 l/m 3,6 km/h S-SW 202 0 min 0,000 mm 0,0 UV-I 50 W/m 16,6 C 17,2 C 5,7 km/h 100,00 %
26.06.2022 06:37 17,2 C 96 % 1013,2 hPa 0,0 l/m 2,6 km/h S-SW 202 0 min 0,000 mm 0,0 UV-I 48 W/m 16,6 C 17,2 C 5,7 km/h 100,00 %
26.06.2022 06:36 17,2 C 97 % 1013,2 hPa 0,0 l/m 0,9 km/h S-SW 202 0 min 0,000 mm 0,0 UV-I 46 W/m 16,7 C 17,2 C 1,9 km/h 100,00 %
26.06.2022 06:35 17,2 C 96 % 1013,2 hPa 0,0 l/m 1,8 km/h S-SW 202 0 min 0,000 mm 0,0 UV-I 47 W/m 16,6 C 17,2 C 3,8 km/h 100,00 %
26.06.2022 06:34 17,2 C 96 % 1013,2 hPa 0,0 l/m 2,3 km/h S-SW 202 0 min 0,000 mm 0,0 UV-I 53 W/m 16,6 C 17,2 C 5,7 km/h 100,00 %
26.06.2022 06:33 17,2 C 96 % 1013,2 hPa 0,0 l/m 1,4 km/h S-SW 202 0 min 0,000 mm 0,0 UV-I 59 W/m 16,6 C 17,2 C 5,7 km/h 100,00 %
26.06.2022 06:32 17,1 C 96 % 1013,2 hPa 0,0 l/m 4,9 km/h S-SW 202 0 min 0,000 mm 0,0 UV-I 66 W/m 16,5 C 17,1 C 7,7 km/h 100,00 %
26.06.2022 06:31 17,2 C 96 % 1013,2 hPa 0,0 l/m 2,8 km/h S-SW 202 0 min 0,000 mm 0,0 UV-I 73 W/m 16,6 C 17,2 C 3,8 km/h 100,00 %
26.06.2022 06:30 17,1 C 96 % 1013,2 hPa 0,0 l/m 1,9 km/h S-SW 202 0 min 0,000 mm 0,0 UV-I 80 W/m 16,5 C 17,1 C 3,8 km/h 100,00 %
26.06.2022 06:29 17,1 C 96 % 1013,2 hPa 0,0 l/m 3,2 km/h S-SW 202 0 min 0,000 mm 0,0 UV-I 84 W/m 16,5 C 17,1 C 7,7 km/h 100,00 %
26.06.2022 06:28 17,1 C 96 % 1013,2 hPa 0,0 l/m 4,4 km/h S-SW 202 0 min 0,000 mm 0,0 UV-I 80 W/m 16,5 C 17,1 C 11,5 km/h 100,00 %
26.06.2022 06:27 17,1 C 96 % 1013,2 hPa 0,0 l/m 3,1 km/h S-SW 196 0 min 0,000 mm 0,0 UV-I 74 W/m 16,5 C 17,1 C 5,7 km/h 100,00 %
26.06.2022 06:26 17,1 C 96 % 1013,2 hPa 0,0 l/m 7,1 km/h S-SW 196 0 min 0,000 mm 0,0 UV-I 70 W/m 16,5 C 16,7 C 13,4 km/h 100,00 %
26.06.2022 06:25 17,1 C 96 % 1013,2 hPa 0,0 l/m 5,7 km/h SW 229 0 min 0,000 mm 0,0 UV-I 65 W/m 16,5 C 17,1 C 9,6 km/h 100,00 %
26.06.2022 06:24 17,2 C 97 % 1013,2 hPa 0,0 l/m 4,0 km/h S-SW 200 0 min 0,000 mm 0,0 UV-I 63 W/m 16,7 C 17,2 C 7,7 km/h 100,00 %
26.06.2022 06:23 17,2 C 97 % 1013,2 hPa 0,0 l/m 5,5 km/h S-SW 202 0 min 0,000 mm 0,0 UV-I 59 W/m 16,7 C 17,2 C 7,7 km/h 100,00 %
26.06.2022 06:22 17,2 C 97 % 1013,2 hPa 0,0 l/m 2,2 km/h S-SW 200 0 min 0,000 mm 0,0 UV-I 55 W/m 16,7 C 17,2 C 3,8 km/h 100,00 %
26.06.2022 06:21 17,2 C 97 % 1013,3 hPa 0,0 l/m 3,9 km/h S-SW 200 0 min 0,000 mm 0,0 UV-I 49 W/m 16,7 C 17,2 C 5,7 km/h 100,00 %
26.06.2022 06:20 17,2 C 97 % 1013,2 hPa 0,0 l/m 3,6 km/h S-SW 208 0 min 0,000 mm 0,0 UV-I 50 W/m 16,7 C 17,2 C 5,7 km/h 100,00 %
26.06.2022 06:19 17,2 C 97 % 1013,2 hPa 0,0 l/m 5,2 km/h S-SW 208 0 min 0,000 mm 0,0 UV-I 56 W/m 16,7 C 17,2 C 7,7 km/h 100,00 %
26.06.2022 06:18 17,2 C 97 % 1013,3 hPa 0,0 l/m 7,2 km/h S-SW 208 0 min 0,000 mm 0,0 UV-I 57 W/m 16,7 C 16,8 C 11,5 km/h 96,00 %
26.06.2022 06:17 17,2 C 97 % 1013,2 hPa 0,0 l/m 1,7 km/h S-SW 196 0 min 0,000 mm 0,0 UV-I 61 W/m 16,7 C 17,2 C 5,7 km/h 100,00 %
26.06.2022 06:16 17,2 C 97 % 1013,3 hPa 0,0 l/m 5,4 km/h S-SW 196 0 min 0,000 mm 0,0 UV-I 64 W/m 16,7 C 17,2 C 9,6 km/h 100,00 %
26.06.2022 06:15 17,2 C 97 % 1013,2 hPa 0,0 l/m 4,7 km/h S-SW 198 0 min 0,000 mm 0,0 UV-I 64 W/m 16,7 C 17,2 C 7,7 km/h 100,00 %
26.06.2022 06:14 17,2 C 97 % 1013,3 hPa 0,0 l/m 5,5 km/h S-SW 196 0 min 0,000 mm 0,0 UV-I 63 W/m 16,7 C 17,2 C 9,6 km/h 100,00 %
26.06.2022 06:13 17,1 C 97 % 1013,3 hPa 0,0 l/m 5,4 km/h S 181 0 min 0,000 mm 0,0 UV-I 63 W/m 16,6 C 17,1 C 7,7 km/h 100,00 %
26.06.2022 06:12 17,1 C 97 % 1013,3 hPa 0,0 l/m 3,2 km/h S 180 0 min 0,000 mm 0,0 UV-I 61 W/m 16,6 C 17,1 C 5,7 km/h 100,00 %
26.06.2022 06:11 17,1 C 97 % 1013,3 hPa 0,0 l/m 4,6 km/h S 180 0 min 0,000 mm 0,0 UV-I 54 W/m 16,6 C 17,1 C 7,7 km/h 100,00 %
26.06.2022 06:10 17,1 C 97 % 1013,4 hPa 0,0 l/m 6,5 km/h S 177 0 min 0,000 mm 0,0 UV-I 48 W/m 16,6 C 17,1 C 9,6 km/h 95,65 %
26.06.2022 06:09 17,1 C 97 % 1013,4 hPa 0,0 l/m 4,4 km/h S 182 0 min 0,000 mm 0,0 UV-I 38 W/m 16,6 C 17,1 C 7,7 km/h 100,00 %
26.06.2022 06:08 17,1 C 97 % 1013,4 hPa 0,0 l/m 5,9 km/h S 181 0 min 0,000 mm 0,0 UV-I 29 W/m 16,6 C 17,1 C 7,7 km/h 100,00 %
26.06.2022 06:07 17,2 C 97 % 1013,4 hPa 0,0 l/m 3,2 km/h S 179 0 min 0,000 mm 0,0 UV-I 24 W/m 16,7 C 17,2 C 5,7 km/h 100,00 %
26.06.2022 06:06 17,1 C 97 % 1013,5 hPa 0,0 l/m 4,1 km/h S 179 0 min 0,000 mm 0,0 UV-I 19 W/m 16,6 C 17,1 C 7,7 km/h 100,00 %
26.06.2022 06:05 17,1 C 97 % 1013,5 hPa 0,0 l/m 5,4 km/h S 179 0 min 0,000 mm 0,0 UV-I 17 W/m 16,6 C 17,1 C 9,6 km/h 100,00 %
26.06.2022 06:04 17,1 C 97 % 1013,4 hPa 0,0 l/m 5,2 km/h S 180 0 min 0,000 mm 0,0 UV-I 14 W/m 16,6 C 17,1 C 11,5 km/h 100,00 %
26.06.2022 06:03 17,1 C 97 % 1013,4 hPa 0,0 l/m 6,1 km/h S 175 0 min 0,000 mm 0,0 UV-I 14 W/m 16,6 C 17,1 C 13,4 km/h 100,00 %
26.06.2022 06:02 17,1 C 97 % 1013,4 hPa 0,0 l/m 8,8 km/h S 174 0 min 0,000 mm 0,0 UV-I 14 W/m 16,6 C 15,9 C 11,5 km/h 100,00 %
26.06.2022 06:01 17,1 C 97 % 1013,4 hPa 0,0 l/m 6,3 km/h S 176 0 min 0,000 mm 0,0 UV-I 12 W/m 16,6 C 17,1 C 11,5 km/h 100,00 %
26.06.2022 06:00 17,1 C 97 % 1013,4 hPa 0,0 l/m 6,2 km/h S 181 0 min 0,000 mm 0,0 UV-I 10 W/m 16,6 C 17,1 C 11,5 km/h 100,00 %
26.06.2022 05:59 17,1 C 97 % 1013,4 hPa 0,0 l/m 3,9 km/h S 174 0 min 0,000 mm 0,0 UV-I 9 W/m 16,6 C 17,1 C 5,7 km/h 100,00 %
26.06.2022 05:58 17,1 C 97 % 1013,4 hPa 0,0 l/m 4,1 km/h S 173 0 min 0,000 mm 0,0 UV-I 8 W/m 16,6 C 17,1 C 9,6 km/h 100,00 %
26.06.2022 05:57 17,1 C 97 % 1013,3 hPa 0,0 l/m 3,8 km/h S 175 0 min 0,000 mm 0,0 UV-I 6 W/m 16,6 C 17,1 C 5,7 km/h 100,00 %
26.06.2022 05:56 17,1 C 97 % 1013,3 hPa 0,0 l/m 3,1 km/h S 175 0 min 0,000 mm 0,0 UV-I 1 W/m 16,6 C 17,1 C 5,7 km/h 100,00 %
26.06.2022 05:55 17,1 C 97 % 1013,3 hPa 0,0 l/m 3,7 km/h S 175 0 min 0,000 mm 0,0 UV-I 0 W/m 16,6 C 17,1 C 5,7 km/h 100,00 %
26.06.2022 05:54 17,1 C 97 % 1013,2 hPa 0,0 l/m 5,3 km/h S 175 0 min 0,000 mm 0,0 UV-I 0 W/m 16,6 C 17,1 C 7,7 km/h 100,00 %
26.06.2022 05:53 17,1 C 97 % 1013,2 hPa 0,0 l/m 6,5 km/h S 173 0 min 0,000 mm 0,0 UV-I 0 W/m 16,6 C 17,1 C 9,6 km/h 100,00 %
26.06.2022 05:52 17,1 C 97 % 1013,1 hPa 0,0 l/m 1,6 km/h S 181 0 min 0,000 mm 0,0 UV-I 0 W/m 16,6 C 17,1 C 3,8 km/h 100,00 %
26.06.2022 05:51 17,1 C 97 % 1013,1 hPa 0,0 l/m 4,4 km/h S 181 0 min 0,000 mm 0,0 UV-I 0 W/m 16,6 C 17,1 C 7,7 km/h 100,00 %
26.06.2022 05:50 17,1 C 97 % 1013,1 hPa 0,0 l/m 3,3 km/h S 182 0 min 0,000 mm 0,0 UV-I 0 W/m 16,6 C 17,1 C 5,7 km/h 100,00 %
26.06.2022 05:49 17,0 C 97 % 1013,1 hPa 0,0 l/m 5,2 km/h S 182 0 min 0,000 mm 0,0 UV-I 0 W/m 16,5 C 17,0 C 5,7 km/h 100,00 %
26.06.2022 05:48 17,0 C 97 % 1013,1 hPa 0,0 l/m 6,2 km/h S 182 0 min 0,000 mm 0,0 UV-I 0 W/m 16,5 C 17,0 C 7,7 km/h 100,00 %
26.06.2022 05:47 17,0 C 97 % 1013,1 hPa 0,0 l/m 4,8 km/h S 181 0 min 0,000 mm 0,0 UV-I 0 W/m 16,5 C 17,0 C 7,7 km/h 100,00 %
26.06.2022 05:46 17,0 C 97 % 1013,1 hPa 0,0 l/m 5,3 km/h S 178 0 min 0,000 mm 0,0 UV-I 3 W/m 16,5 C 17,0 C 9,6 km/h 100,00 %
26.06.2022 05:45 17,0 C 97 % 1013,0 hPa 0,0 l/m 5,0 km/h S 178 0 min 0,000 mm 0,0 UV-I 5 W/m 16,5 C 17,0 C 7,7 km/h 100,00 %
26.06.2022 05:44 16,9 C 97 % 1013,0 hPa 0,0 l/m 5,9 km/h S 178 0 min 0,000 mm 0,0 UV-I 5 W/m 16,4 C 16,9 C 9,6 km/h 93,33 %
26.06.2022 05:43 16,9 C 97 % 1013,0 hPa 0,0 l/m 4,8 km/h S 175 0 min 0,000 mm 0,0 UV-I 7 W/m 16,4 C 16,9 C 7,7 km/h 95,65 %
26.06.2022 05:42 16,9 C 97 % 1013,0 hPa 0,0 l/m 5,9 km/h S 175 0 min 0,000 mm 0,0 UV-I 7 W/m 16,4 C 16,9 C 11,5 km/h 100,00 %
26.06.2022 05:41 16,9 C 97 % 1013,0 hPa 0,0 l/m 4,1 km/h S 174 0 min 0,000 mm 0,0 UV-I 7 W/m 16,4 C 16,9 C 9,6 km/h 100,00 %
26.06.2022 05:40 16,9 C 97 % 1012,9 hPa 0,0 l/m 5,3 km/h S 174 0 min 0,000 mm 0,0 UV-I 7 W/m 16,4 C 16,9 C 7,7 km/h 100,00 %
26.06.2022 05:39 16,8 C 97 % 1013,0 hPa 0,0 l/m 6,1 km/h S 178 0 min 0,000 mm 0,0 UV-I 7 W/m 16,3 C 16,8 C 7,7 km/h 100,00 %
26.06.2022 05:38 16,8 C 97 % 1013,0 hPa 0,0 l/m 4,6 km/h S 186 0 min 0,000 mm 0,0 UV-I 5 W/m 16,3 C 16,8 C 7,7 km/h 100,00 %
26.06.2022 05:37 16,8 C 97 % 1013,0 hPa 0,0 l/m 3,7 km/h S 184 0 min 0,000 mm 0,0 UV-I 5 W/m 16,3 C 16,8 C 5,7 km/h 100,00 %
26.06.2022 05:36 16,8 C 97 % 1013,0 hPa 0,0 l/m 4,2 km/h S 184 0 min 0,000 mm 0,0 UV-I 5 W/m 16,3 C 16,8 C 5,7 km/h 100,00 %
26.06.2022 05:35 16,8 C 97 % 1013,0 hPa 0,0 l/m 5,9 km/h S 184 0 min 0,000 mm 0,0 UV-I 5 W/m 16,3 C 16,8 C 7,7 km/h 100,00 %
26.06.2022 05:34 16,8 C 97 % 1013,0 hPa 0,0 l/m 5,5 km/h S 184 0 min 0,000 mm 0,0 UV-I 5 W/m 16,3 C 16,8 C 7,7 km/h 100,00 %
26.06.2022 05:33 16,8 C 97 % 1013,0 hPa 0,0 l/m 2,8 km/h S 184 0 min 0,000 mm 0,0 UV-I 5 W/m 16,3 C 16,8 C 5,7 km/h 100,00 %
26.06.2022 05:32 16,8 C 97 % 1013,0 hPa 0,0 l/m 2,9 km/h S 184 0 min 0,000 mm 0,0 UV-I 0 W/m 16,3 C 16,8 C 5,7 km/h 100,00 %
26.06.2022 05:31 16,8 C 97 % 1012,9 hPa 0,0 l/m 2,6 km/h S 184 0 min 0,000 mm 0,0 UV-I 0 W/m 16,3 C 16,8 C 3,8 km/h 99,38 %
26.06.2022 05:30 16,7 C 97 % 1012,9 hPa 0,0 l/m 3,7 km/h S 184 0 min 0,000 mm 0,0 UV-I 0 W/m 16,2 C 16,7 C 7,7 km/h 100,00 %
26.06.2022 05:29 16,7 C 97 % 1012,8 hPa 0,0 l/m 3,8 km/h S 184 0 min 0,000 mm 0,0 UV-I 0 W/m 16,2 C 16,7 C 5,7 km/h 100,00 %
26.06.2022 05:28 16,7 C 97 % 1012,8 hPa 0,0 l/m 5,1 km/h S 184 0 min 0,000 mm 0,0 UV-I 0 W/m 16,2 C 16,7 C 7,7 km/h 100,00 %
26.06.2022 05:27 16,7 C 97 % 1012,8 hPa 0,0 l/m 2,4 km/h S 183 0 min 0,000 mm 0,0 UV-I 0 W/m 16,2 C 16,7 C 3,8 km/h 100,00 %
26.06.2022 05:26 16,7 C 97 % 1012,7 hPa 0,0 l/m 2,1 km/h S 183 0 min 0,000 mm 0,0 UV-I 0 W/m 16,2 C 16,7 C 3,8 km/h 100,00 %
26.06.2022 05:25 16,7 C 97 % 1012,7 hPa 0,0 l/m 1,0 km/h S 183 0 min 0,000 mm 0,0 UV-I 0 W/m 16,2 C 16,7 C 1,9 km/h 100,00 %
26.06.2022 05:24 16,7 C 97 % 1012,8 hPa 0,0 l/m 2,2 km/h S 183 0 min 0,000 mm 0,0 UV-I 0 W/m 16,2 C 16,7 C 3,8 km/h 100,00 %
26.06.2022 05:23 16,7 C 97 % 1012,7 hPa 0,0 l/m 2,6 km/h S 183 0 min 0,000 mm 0,0 UV-I 0 W/m 16,2 C 16,7 C 5,7 km/h 100,00 %
26.06.2022 05:22 16,6 C 97 % 1012,7 hPa 0,0 l/m 1,6 km/h S 183 0 min 0,000 mm 0,0 UV-I 0 W/m 16,1 C 16,6 C 3,8 km/h 100,00 %
26.06.2022 05:21 16,6 C 97 % 1012,7 hPa 0,0 l/m 2,0 km/h S 183 0 min 0,000 mm 0,0 UV-I 0 W/m 16,1 C 16,6 C 3,8 km/h 100,00 %
26.06.2022 05:20 16,7 C 97 % 1012,7 hPa 0,0 l/m 2,5 km/h S 183 0 min 0,000 mm 0,0 UV-I 0 W/m 16,2 C 16,7 C 3,8 km/h 95,65 %
26.06.2022 05:19 16,6 C 97 % 1012,7 hPa 0,0 l/m 1,0 km/h S 183 0 min 0,000 mm 0,0 UV-I 0 W/m 16,1 C 16,6 C 3,8 km/h 100,00 %
26.06.2022 05:18 16,6 C 97 % 1012,6 hPa 0,0 l/m 0,0 km/h S 183 0 min 0,000 mm 0,0 UV-I 0 W/m 16,1 C 16,6 C 0,0 km/h 100,00 %
26.06.2022 05:17 16,6 C 97 % 1012,6 hPa 0,0 l/m 0,0 km/h S 183 0 min 0,000 mm 0,0 UV-I 0 W/m 16,1 C 16,6 C 0,0 km/h 100,00 %
26.06.2022 05:16 16,6 C 97 % 1012,6 hPa 0,0 l/m 0,0 km/h S 183 0 min 0,000 mm 0,0 UV-I 0 W/m 16,1 C 16,6 C 0,0 km/h 100,00 %
26.06.2022 05:15 16,7 C 97 % 1012,5 hPa 0,0 l/m 0,0 km/h S 183 0 min 0,000 mm 0,0 UV-I 0 W/m 16,2 C 16,7 C 0,0 km/h 100,00 %
26.06.2022 05:14 16,7 C 97 % 1012,5 hPa 0,0 l/m 0,0 km/h S 183 0 min 0,000 mm 0,0 UV-I 0 W/m 16,2 C 16,7 C 0,0 km/h 100,00 %
26.06.2022 05:13 16,7 C 97 % 1012,5 hPa 0,0 l/m 0,0 km/h S 183 0 min 0,000 mm 0,0 UV-I 0 W/m 16,2 C 16,7 C 0,0 km/h 100,00 %
26.06.2022 05:12 16,7 C 97 % 1012,5 hPa 0,0 l/m 0,0 km/h S 183 0 min 0,000 mm 0,0 UV-I 0 W/m 16,2 C 16,7 C 0,0 km/h 100,00 %
26.06.2022 05:11 16,7 C 97 % 1012,6 hPa 0,0 l/m 0,0 km/h S 183 0 min 0,000 mm 0,0 UV-I 0 W/m 16,2 C 16,7 C 0,0 km/h 99,26 %
26.06.2022 05:10 16,7 C 97 % 1012,6 hPa 0,0 l/m 0,2 km/h S 183 0 min 0,000 mm 0,0 UV-I 0 W/m 16,2 C 16,7 C 1,9 km/h 100,00 %
26.06.2022 05:09 16,7 C 97 % 1012,6 hPa 0,0 l/m 0,8 km/h S 183 0 min 0,000 mm 0,0 UV-I 0 W/m 16,2 C 16,7 C 1,9 km/h 100,00 %
26.06.2022 05:08 16,7 C 97 % 1012,6 hPa 0,0 l/m 1,4 km/h S 183 0 min 0,000 mm 0,0 UV-I 0 W/m 16,2 C 16,7 C 1,9 km/h 100,00 %
26.06.2022 05:07 16,6 C 97 % 1012,6 hPa 0,0 l/m 2,3 km/h S 183 0 min 0,000 mm 0,0 UV-I 0 W/m 16,1 C 16,6 C 3,8 km/h 100,00 %
26.06.2022 05:06 16,7 C 97 % 1012,6 hPa 0,0 l/m 2,1 km/h S 183 0 min 0,000 mm 0,0 UV-I 0 W/m 16,2 C 16,7 C 3,8 km/h 100,00 %
26.06.2022 05:05 16,6 C 97 % 1012,6 hPa 0,0 l/m 1,7 km/h S 183 0 min 0,000 mm 0,0 UV-I 0 W/m 16,1 C 16,6 C 3,8 km/h 100,00 %
26.06.2022 05:04 16,6 C 97 % 1012,6 hPa 0,0 l/m 1,0 km/h S 183 0 min 0,000 mm 0,0 UV-I 0 W/m 16,1 C 16,6 C 1,9 km/h 100,00 %
26.06.2022 05:03 16,6 C 97 % 1012,6 hPa 0,0 l/m 1,4 km/h S 183 0 min 0,000 mm 0,0 UV-I 0 W/m 16,1 C 16,6 C 3,8 km/h 100,00 %
26.06.2022 05:02 16,6 C 97 % 1012,5 hPa 0,0 l/m 1,4 km/h S 183 0 min 0,000 mm 0,0 UV-I 0 W/m 16,1 C 16,6 C 3,8 km/h 100,00 %
26.06.2022 05:01 16,6 C 97 % 1012,5 hPa 0,0 l/m 1,7 km/h S 183 0 min 0,000 mm 0,0 UV-I 0 W/m 16,1 C 16,6 C 3,8 km/h 100,00 %
26.06.2022 05:00 16,6 C 97 % 1012,5 hPa 0,0 l/m 1,8 km/h S 183 0 min 0,000 mm 0,0 UV-I 0 W/m 16,1 C 16,6 C 3,8 km/h 87,50 %
26.06.2022 04:59 16,6 C 97 % 1012,4 hPa 0,0 l/m 1,2 km/h S 183 0 min 0,000 mm 0,0 UV-I 0 W/m 16,1 C 16,6 C 1,9 km/h 100,00 %
26.06.2022 04:58 16,6 C 97 % 1012,4 hPa 0,0 l/m 0,0 km/h S 183 0 min 0,000 mm 0,0 UV-I 0 W/m 16,1 C 16,6 C 0,0 km/h 96,30 %
26.06.2022 04:57 16,6 C 97 % 1012,4 hPa 0,0 l/m 0,0 km/h S 183 0 min 0,000 mm 0,0 UV-I 0 W/m 16,1 C 16,6 C 0,0 km/h 100,00 %
26.06.2022 04:56 16,7 C 97 % 1012,4 hPa 0,0 l/m 1,1 km/h S 183 0 min 0,000 mm 0,0 UV-I 0 W/m 16,2 C 16,7 C 1,9 km/h 100,00 %
26.06.2022 04:55 16,7 C 97 % 1012,4 hPa 0,0 l/m 0,3 km/h S 183 0 min 0,000 mm 0,0 UV-I 0 W/m 16,2 C 16,7 C 1,9 km/h 100,00 %
26.06.2022 04:54 16,7 C 97 % 1012,4 hPa 0,0 l/m 0,6 km/h S 183 0 min 0,000 mm 0,0 UV-I 0 W/m 16,2 C 16,7 C 1,9 km/h 100,00 %
26.06.2022 04:53 16,7 C 97 % 1012,3 hPa 0,0 l/m 0,2 km/h S 183 0 min 0,000 mm 0,0 UV-I 0 W/m 16,2 C 16,7 C 1,9 km/h 100,00 %
26.06.2022 04:52 16,7 C 97 % 1012,3 hPa 0,0 l/m 0,0 km/h S 183 0 min 0,000 mm 0,0 UV-I 0 W/m 16,2 C 16,7 C 0,0 km/h 100,00 %
26.06.2022 04:51 16,7 C 97 % 1012,3 hPa 0,0 l/m 0,3 km/h S 183 0 min 0,000 mm 0,0 UV-I 0 W/m 16,2 C 16,7 C 1,9 km/h 95,83 %
26.06.2022 04:50 16,7 C 97 % 1012,3 hPa 0,0 l/m 0,1 km/h S 183 0 min 0,000 mm 0,0 UV-I 0 W/m 16,2 C 16,7 C 1,9 km/h 100,00 %
26.06.2022 04:49 16,7 C 97 % 1012,3 hPa 0,0 l/m 0,0 km/h S 183 0 min 0,000 mm 0,0 UV-I 0 W/m 16,2 C 16,7 C 0,0 km/h 100,00 %
26.06.2022 04:48 16,7 C 97 % 1012,3 hPa 0,0 l/m 0,1 km/h S 183 0 min 0,000 mm 0,0 UV-I 0 W/m 16,2 C 16,7 C 1,9 km/h 100,00 %
26.06.2022 04:47 16,7 C 97 % 1012,3 hPa 0,0 l/m 0,5 km/h S 183 0 min 0,000 mm 0,0 UV-I 0 W/m 16,2 C 16,7 C 1,9 km/h 100,00 %
26.06.2022 04:46 16,7 C 97 % 1012,4 hPa 0,0 l/m 0,6 km/h S 183 0 min 0,000 mm 0,0 UV-I 0 W/m 16,2 C 16,7 C 1,9 km/h 95,00 %
26.06.2022 04:45 16,8 C 97 % 1012,4 hPa 0,0 l/m 0,4 km/h S 183 0 min 0,000 mm 0,0 UV-I 0 W/m 16,3 C 16,8 C 1,9 km/h 100,00 %
26.06.2022 04:44 16,7 C 97 % 1012,4 hPa 0,0 l/m 1,7 km/h S 183 0 min 0,000 mm 0,0 UV-I 0 W/m 16,2 C 16,7 C 3,8 km/h 100,00 %
26.06.2022 04:43 16,7 C 97 % 1012,4 hPa 0,0 l/m 1,4 km/h S 183 0 min 0,000 mm 0,0 UV-I 0 W/m 16,2 C 16,7 C 3,8 km/h 100,00 %
26.06.2022 04:42 16,8 C 97 % 1012,5 hPa 0,0 l/m 1,2 km/h S 183 0 min 0,000 mm 0,0 UV-I 0 W/m 16,3 C 16,8 C 3,8 km/h 100,00 %
26.06.2022 04:41 16,7 C 97 % 1012,5 hPa 0,0 l/m 0,8 km/h S 183 0 min 0,000 mm 0,0 UV-I 0 W/m 16,2 C 16,7 C 5,7 km/h 100,00 %
26.06.2022 04:40 16,7 C 97 % 1012,5 hPa 0,0 l/m 2,7 km/h S 183 0 min 0,000 mm 0,0 UV-I 0 W/m 16,2 C 16,7 C 5,7 km/h 100,00 %
26.06.2022 04:39 16,7 C 97 % 1012,5 hPa 0,0 l/m 2,1 km/h S 183 0 min 0,000 mm 0,0 UV-I 0 W/m 16,2 C 16,7 C 5,7 km/h 100,00 %
26.06.2022 04:38 16,7 C 97 % 1012,5 hPa 0,0 l/m 2,3 km/h S 183 0 min 0,000 mm 0,0 UV-I 0 W/m 16,2 C 16,7 C 3,8 km/h 100,00 %
26.06.2022 04:37 16,7 C 97 % 1012,5 hPa 0,0 l/m 2,1 km/h S 183 0 min 0,000 mm 0,0 UV-I 0 W/m 16,2 C 16,7 C 3,8 km/h 100,00 %
26.06.2022 04:36 16,7 C 97 % 1012,5 hPa 0,0 l/m 3,2 km/h S 183 0 min 0,000 mm 0,0 UV-I 0 W/m 16,2 C 16,7 C 3,8 km/h 95,65 %
26.06.2022 04:35 16,7 C 97 % 1012,5 hPa 0,0 l/m 2,6 km/h S 183 0 min 0,000 mm 0,0 UV-I 0 W/m 16,2 C 16,7 C 3,8 km/h 100,00 %
26.06.2022 04:34 16,7 C 97 % 1012,5 hPa 0,0 l/m 4,1 km/h S 183 0 min 0,000 mm 0,0 UV-I 0 W/m 16,2 C 16,7 C 7,7 km/h 100,00 %
26.06.2022 04:33 16,7 C 97 % 1012,5 hPa 0,0 l/m 3,5 km/h S 183 0 min 0,000 mm 0,0 UV-I 0 W/m 16,2 C 16,7 C 3,8 km/h 100,00 %
26.06.2022 04:32 16,7 C 97 % 1012,5 hPa 0,0 l/m 4,8 km/h S 183 0 min 0,000 mm 0,0 UV-I 0 W/m 16,2 C 16,7 C 7,7 km/h 100,00 %
26.06.2022 04:31 16,7 C 97 % 1012,6 hPa 0,0 l/m 3,8 km/h S 187 0 min 0,000 mm 0,0 UV-I 0 W/m 16,2 C 16,7 C 5,7 km/h 100,00 %
26.06.2022 04:30 16,7 C 97 % 1012,6 hPa 0,0 l/m 4,2 km/h S 187 0 min 0,000 mm 0,0 UV-I 0 W/m 16,2 C 16,7 C 5,7 km/h 95,83 %
26.06.2022 04:29 16,7 C 97 % 1012,5 hPa 0,0 l/m 4,4 km/h S 186 0 min 0,000 mm 0,0 UV-I 0 W/m 16,2 C 16,7 C 5,7 km/h 100,00 %
26.06.2022 04:28 16,7 C 97 % 1012,5 hPa 0,0 l/m 3,5 km/h SW 221 0 min 0,000 mm 0,0 UV-I 0 W/m 16,2 C 16,7 C 5,7 km/h 100,00 %
26.06.2022 04:27 16,7 C 97 % 1012,5 hPa 0,0 l/m 1,7 km/h SW 223 0 min 0,000 mm 0,0 UV-I 0 W/m 16,2 C 16,7 C 3,8 km/h 100,00 %
26.06.2022 04:26 16,7 C 97 % 1012,4 hPa 0,0 l/m 2,8 km/h SW 223 0 min 0,000 mm 0,0 UV-I 0 W/m 16,2 C 16,7 C 5,7 km/h 100,00 %
26.06.2022 04:25 16,7 C 97 % 1012,4 hPa 0,0 l/m 4,6 km/h SW 223 0 min 0,000 mm 0,0 UV-I 0 W/m 16,2 C 16,7 C 5,7 km/h 100,00 %
26.06.2022 04:24 16,7 C 97 % 1012,4 hPa 0,0 l/m 3,6 km/h SW 225 0 min 0,000 mm 0,0 UV-I 0 W/m 16,2 C 16,7 C 7,7 km/h 100,00 %
26.06.2022 04:23 16,7 C 97 % 1012,3 hPa 0,0 l/m 3,8 km/h SW 222 0 min 0,000 mm 0,0 UV-I 0 W/m 16,2 C 16,7 C 5,7 km/h 100,00 %
26.06.2022 04:22 16,7 C 97 % 1012,3 hPa 0,0 l/m 1,0 km/h SW 222 0 min 0,000 mm 0,0 UV-I 0 W/m 16,2 C 16,7 C 3,8 km/h 100,00 %
26.06.2022 04:21 16,7 C 97 % 1012,3 hPa 0,0 l/m 1,6 km/h SW 222 0 min 0,000 mm 0,0 UV-I 0 W/m 16,2 C 16,7 C 3,8 km/h 100,00 %
26.06.2022 04:20 16,7 C 97 % 1012,3 hPa 0,0 l/m 2,9 km/h SW 222 0 min 0,000 mm 0,0 UV-I 0 W/m 16,2 C 16,7 C 5,7 km/h 100,00 %
26.06.2022 04:19 16,7 C 97 % 1012,2 hPa 0,0 l/m 3,3 km/h SW 222 0 min 0,000 mm 0,0 UV-I 0 W/m 16,2 C 16,7 C 5,7 km/h 100,00 %
26.06.2022 04:18 16,7 C 97 % 1012,3 hPa 0,0 l/m 3,9 km/h SW 222 0 min 0,000 mm 0,0 UV-I 0 W/m 16,2 C 16,7 C 7,7 km/h 100,00 %
26.06.2022 04:17 16,7 C 97 % 1012,3 hPa 0,0 l/m 8,4 km/h SW 219 0 min 0,000 mm 0,0 UV-I 0 W/m 16,2 C 15,7 C 11,5 km/h 100,00 %
26.06.2022 04:16 16,7 C 97 % 1012,3 hPa 0,0 l/m 2,4 km/h SW 219 0 min 0,000 mm 0,0 UV-I 0 W/m 16,2 C 16,7 C 5,7 km/h 100,00 %
26.06.2022 04:15 16,7 C 97 % 1012,3 hPa 0,0 l/m 5,7 km/h SW 219 0 min 0,000 mm 0,0 UV-I 0 W/m 16,2 C 16,7 C 7,7 km/h 100,00 %
26.06.2022 04:14 16,7 C 97 % 1012,2 hPa 0,0 l/m 4,7 km/h SW 219 0 min 0,000 mm 0,0 UV-I 0 W/m 16,2 C 16,7 C 7,7 km/h 100,00 %
26.06.2022 04:13 16,7 C 97 % 1012,3 hPa 0,0 l/m 4,6 km/h SW 220 0 min 0,000 mm 0,0 UV-I 0 W/m 16,2 C 16,7 C 7,7 km/h 100,00 %
26.06.2022 04:12 16,7 C 97 % 1012,4 hPa 0,0 l/m 9,1 km/h SW 227 0 min 0,000 mm 0,0 UV-I 0 W/m 16,2 C 15,4 C 13,4 km/h 95,65 %
26.06.2022 04:11 16,7 C 97 % 1012,3 hPa 0,0 l/m 4,4 km/h SW 227 0 min 0,000 mm 0,0 UV-I 0 W/m 16,2 C 16,7 C 7,7 km/h 100,00 %
26.06.2022 04:10 16,7 C 97 % 1012,3 hPa 0,0 l/m 6,0 km/h SW 223 0 min 0,000 mm 0,0 UV-I 0 W/m 16,2 C 16,7 C 9,6 km/h 100,00 %
26.06.2022 04:09 16,7 C 97 % 1012,4 hPa 0,0 l/m 5,3 km/h SW 224 0 min 0,000 mm 0,0 UV-I 0 W/m 16,2 C 16,7 C 7,7 km/h 100,00 %
26.06.2022 04:08 16,7 C 96 % 1012,4 hPa 0,0 l/m 4,6 km/h SW 224 0 min 0,000 mm 0,0 UV-I 0 W/m 16,1 C 16,7 C 7,7 km/h 100,00 %
26.06.2022 04:07 16,7 C 96 % 1012,3 hPa 0,0 l/m 7,2 km/h SW 224 0 min 0,000 mm 0,0 UV-I 0 W/m 16,1 C 16,3 C 9,6 km/h 100,00 %
26.06.2022 04:06 16,7 C 96 % 1012,3 hPa 0,0 l/m 5,2 km/h SW 224 0 min 0,000 mm 0,0 UV-I 0 W/m 16,1 C 16,7 C 7,7 km/h 100,00 %
26.06.2022 04:05 16,7 C 96 % 1012,1 hPa 0,0 l/m 0,1 km/h SW 224 0 min 0,000 mm 0,0 UV-I 0 W/m 16,1 C 16,7 C 1,9 km/h 100,00 %
26.06.2022 04:04 16,7 C 96 % 1012,2 hPa 0,0 l/m 0,4 km/h SW 224 0 min 0,000 mm 0,0 UV-I 0 W/m 16,1 C 16,7 C 1,9 km/h 90,91 %
26.06.2022 04:03 16,7 C 96 % 1012,2 hPa 0,0 l/m 3,3 km/h SW 224 0 min 0,000 mm 0,0 UV-I 0 W/m 16,1 C 16,7 C 7,7 km/h 97,44 %
26.06.2022 04:02 16,7 C 96 % 1012,2 hPa 0,0 l/m 2,4 km/h SW 224 0 min 0,000 mm 0,0 UV-I 0 W/m 16,1 C 16,7 C 5,7 km/h 92,86 %
26.06.2022 04:01 16,7 C 96 % 1012,2 hPa 0,0 l/m 3,3 km/h SW 224 0 min 0,000 mm 0,0 UV-I 0 W/m 16,1 C 16,7 C 3,8 km/h 100,00 %
26.06.2022 04:00 16,7 C 96 % 1012,2 hPa 0,0 l/m 2,6 km/h SW 224 0 min 0,000 mm 0,0 UV-I 0 W/m 16,1 C 16,7 C 5,7 km/h 100,00 %
26.06.2022 03:59 16,7 C 96 % 1012,2 hPa 0,0 l/m 3,6 km/h SW 225 0 min 0,000 mm 0,0 UV-I 0 W/m 16,1 C 16,7 C 7,7 km/h 100,00 %
26.06.2022 03:58 16,8 C 96 % 1012,2 hPa 0,0 l/m 2,5 km/h SW 225 0 min 0,000 mm 0,0 UV-I 0 W/m 16,2 C 16,8 C 5,7 km/h 100,00 %
26.06.2022 03:57 16,7 C 96 % 1012,2 hPa 0,0 l/m 2,6 km/h SW 225 0 min 0,000 mm 0,0 UV-I 0 W/m 16,1 C 16,7 C 3,8 km/h 100,00 %
26.06.2022 03:56 16,8 C 96 % 1012,2 hPa 0,0 l/m 2,9 km/h SW 225 0 min 0,000 mm 0,0 UV-I 0 W/m 16,2 C 16,8 C 3,8 km/h 96,15 %
26.06.2022 03:55 16,8 C 96 % 1012,2 hPa 0,0 l/m 2,5 km/h SW 225 0 min 0,000 mm 0,0 UV-I 0 W/m 16,2 C 16,8 C 5,7 km/h 100,00 %
26.06.2022 03:54 16,8 C 96 % 1012,2 hPa 0,0 l/m 2,9 km/h SW 225 0 min 0,000 mm 0,0 UV-I 0 W/m 16,2 C 16,8 C 5,7 km/h 100,00 %
26.06.2022 03:53 16,8 C 96 % 1012,2 hPa 0,0 l/m 2,6 km/h SW 225 0 min 0,000 mm 0,0 UV-I 0 W/m 16,2 C 16,8 C 5,7 km/h 100,00 %
26.06.2022 03:52 16,8 C 96 % 1012,2 hPa 0,0 l/m 3,0 km/h SW 225 0 min 0,000 mm 0,0 UV-I 0 W/m 16,2 C 16,8 C 5,7 km/h 100,00 %
26.06.2022 03:51 16,8 C 96 % 1012,2 hPa 0,0 l/m 2,6 km/h SW 225 0 min 0,000 mm 0,0 UV-I 0 W/m 16,2 C 16,8 C 5,7 km/h 100,00 %
26.06.2022 03:50 16,8 C 96 % 1012,1 hPa 0,0 l/m 2,9 km/h SW 225 0 min 0,000 mm 0,0 UV-I 0 W/m 16,2 C 16,8 C 5,7 km/h 100,00 %
26.06.2022 03:49 16,8 C 96 % 1012,0 hPa 0,0 l/m 1,4 km/h SW 225 0 min 0,000 mm 0,0 UV-I 0 W/m 16,2 C 16,8 C 1,9 km/h 100,00 %
26.06.2022 03:48 16,8 C 96 % 1012,1 hPa 0,0 l/m 3,0 km/h SW 225 0 min 0,000 mm 0,0 UV-I 0 W/m 16,2 C 16,8 C 5,7 km/h 95,83 %
26.06.2022 03:47 16,8 C 96 % 1012,1 hPa 0,0 l/m 1,0 km/h SW 225 0 min 0,000 mm 0,0 UV-I 0 W/m 16,2 C 16,8 C 1,9 km/h 100,00 %
26.06.2022 03:46 16,8 C 96 % 1012,1 hPa 0,0 l/m 1,9 km/h SW 225 0 min 0,000 mm 0,0 UV-I 0 W/m 16,2 C 16,8 C 3,8 km/h 100,00 %
26.06.2022 03:45 16,8 C 96 % 1012,1 hPa 0,0 l/m 1,2 km/h SW 225 0 min 0,000 mm 0,0 UV-I 0 W/m 16,2 C 16,8 C 3,8 km/h 100,00 %
26.06.2022 03:44 16,8 C 96 % 1012,0 hPa 0,0 l/m 2,0 km/h SW 225 0 min 0,000 mm 0,0 UV-I 0 W/m 16,2 C 16,8 C 3,8 km/h 100,00 %
26.06.2022 03:43 16,8 C 96 % 1012,0 hPa 0,0 l/m 0,6 km/h SW 225 0 min 0,000 mm 0,0 UV-I 0 W/m 16,2 C 16,8 C 1,9 km/h 100,00 %
26.06.2022 03:42 16,8 C 96 % 1012,0 hPa 0,0 l/m 0,5 km/h SW 225 0 min 0,000 mm 0,0 UV-I 0 W/m 16,2 C 16,8 C 1,9 km/h 100,00 %
26.06.2022 03:41 16,8 C 96 % 1012,0 hPa 0,0 l/m 0,3 km/h SW 225 0 min 0,000 mm 0,0 UV-I 0 W/m 16,2 C 16,8 C 1,9 km/h 96,15 %
26.06.2022 03:40 16,9 C 96 % 1012,0 hPa 0,0 l/m 2,6 km/h SW 225 0 min 0,000 mm 0,0 UV-I 0 W/m 16,3 C 16,9 C 5,7 km/h 100,00 %
26.06.2022 03:39 16,9 C 96 % 1012,0 hPa 0,0 l/m 0,4 km/h SW 225 0 min 0,000 mm 0,0 UV-I 0 W/m 16,3 C 16,9 C 1,9 km/h 95,83 %
26.06.2022 03:38 16,9 C 96 % 1012,0 hPa 0,0 l/m 0,5 km/h SW 225 0 min 0,000 mm 0,0 UV-I 0 W/m 16,3 C 16,9 C 1,9 km/h 100,00 %
26.06.2022 03:37 16,9 C 96 % 1011,9 hPa 0,0 l/m 0,8 km/h SW 225 0 min 0,000 mm 0,0 UV-I 0 W/m 16,3 C 16,9 C 3,8 km/h 100,00 %
26.06.2022 03:36 16,9 C 96 % 1011,9 hPa 0,0 l/m 0,8 km/h SW 225 0 min 0,000 mm 0,0 UV-I 0 W/m 16,3 C 16,9 C 3,8 km/h 95,83 %
26.06.2022 03:35 16,9 C 96 % 1011,8 hPa 0,0 l/m 0,2 km/h SW 225 0 min 0,000 mm 0,0 UV-I 0 W/m 16,3 C 16,9 C 1,9 km/h 100,00 %
26.06.2022 03:34 16,9 C 96 % 1011,8 hPa 0,0 l/m 1,3 km/h SW 225 0 min 0,000 mm 0,0 UV-I 0 W/m 16,3 C 16,9 C 3,8 km/h 100,00 %
26.06.2022 03:33 16,9 C 96 % 1011,8 hPa 0,0 l/m 1,4 km/h SW 225 0 min 0,000 mm 0,0 UV-I 0 W/m 16,3 C 16,9 C 3,8 km/h 100,00 %
26.06.2022 03:32 16,9 C 96 % 1011,8 hPa 0,0 l/m 2,1 km/h SW 225 0 min 0,000 mm 0,0 UV-I 0 W/m 16,3 C 16,9 C 5,7 km/h 100,00 %
26.06.2022 03:31 16,9 C 96 % 1011,9 hPa 0,0 l/m 3,8 km/h SW 225 0 min 0,000 mm 0,0 UV-I 0 W/m 16,3 C 16,9 C 5,7 km/h 100,00 %
26.06.2022 03:30 16,9 C 96 % 1011,8 hPa 0,0 l/m 1,8 km/h SW 225 0 min 0,000 mm 0,0 UV-I 0 W/m 16,3 C 16,9 C 3,8 km/h 100,00 %
26.06.2022 03:29 17,0 C 96 % 1011,8 hPa 0,0 l/m 3,9 km/h SW 225 0 min 0,000 mm 0,0 UV-I 0 W/m 16,4 C 17,0 C 7,7 km/h 100,00 %
26.06.2022 03:28 17,0 C 96 % 1011,8 hPa 0,0 l/m 4,1 km/h W-SW 237 0 min 0,000 mm 0,0 UV-I 0 W/m 16,4 C 17,0 C 9,6 km/h 95,65 %
26.06.2022 03:27 17,1 C 96 % 1011,8 hPa 0,0 l/m 4,5 km/h W-SW 257 0 min 0,000 mm 0,0 UV-I 0 W/m 16,5 C 17,1 C 5,7 km/h 95,83 %
26.06.2022 03:26 17,1 C 96 % 1011,8 hPa 0,0 l/m 3,6 km/h W-SW 257 0 min 0,000 mm 0,0 UV-I 0 W/m 16,5 C 17,1 C 5,7 km/h 100,00 %
26.06.2022 03:25 17,1 C 96 % 1011,8 hPa 0,0 l/m 1,1 km/h W-NW 297 0 min 0,000 mm 0,0 UV-I 0 W/m 16,5 C 17,1 C 1,9 km/h 100,00 %
26.06.2022 03:24 17,1 C 96 % 1011,8 hPa 0,0 l/m 0,0 km/h W-NW 297 0 min 0,000 mm 0,0 UV-I 0 W/m 16,5 C 17,1 C 0,0 km/h 95,83 %
26.06.2022 03:23 17,1 C 96 % 1011,8 hPa 0,0 l/m 0,2 km/h W-NW 297 0 min 0,000 mm 0,0 UV-I 0 W/m 16,5 C 17,1 C 1,9 km/h 95,83 %
26.06.2022 03:22 17,1 C 96 % 1011,7 hPa 0,0 l/m 0,2 km/h W-NW 297 0 min 0,000 mm 0,0 UV-I 0 W/m 16,5 C 17,1 C 1,9 km/h 100,00 %
26.06.2022 03:21 17,1 C 96 % 1011,7 hPa 0,0 l/m 0,2 km/h W-NW 297 0 min 0,000 mm 0,0 UV-I 0 W/m 16,5 C 17,1 C 1,9 km/h 100,00 %
26.06.2022 03:20 17,1 C 96 % 1011,7 hPa 0,0 l/m 0,0 km/h W-NW 297 0 min 0,000 mm 0,0 UV-I 0 W/m 16,5 C 17,1 C 0,0 km/h 100,00 %
26.06.2022 03:19 17,1 C 95 % 1011,6 hPa 0,0 l/m 0,0 km/h W-NW 297 0 min 0,000 mm 0,0 UV-I 0 W/m 16,3 C 17,1 C 0,0 km/h 100,00 %
26.06.2022 03:18 17,1 C 95 % 1011,7 hPa 0,0 l/m 0,1 km/h W-NW 297 0 min 0,000 mm 0,0 UV-I 0 W/m 16,3 C 17,1 C 1,9 km/h 100,00 %
26.06.2022 03:17 17,1 C 95 % 1011,7 hPa 0,0 l/m 0,1 km/h W-NW 297 0 min 0,000 mm 0,0 UV-I 0 W/m 16,3 C 17,1 C 1,9 km/h 100,00 %
26.06.2022 03:16 17,2 C 95 % 1011,7 hPa 0,0 l/m 0,0 km/h W-NW 297 0 min 0,000 mm 0,0 UV-I 0 W/m 16,4 C 17,2 C 0,0 km/h 100,00 %
26.06.2022 03:15 17,2 C 96 % 1011,6 hPa 0,0 l/m 0,0 km/h W-NW 297 0 min 0,000 mm 0,0 UV-I 0 W/m 16,6 C 17,2 C 0,0 km/h 100,00 %
26.06.2022 03:14 17,2 C 96 % 1011,6 hPa 0,0 l/m 0,0 km/h W-NW 297 0 min 0,000 mm 0,0 UV-I 0 W/m 16,6 C 17,2 C 0,0 km/h 95,83 %
26.06.2022 03:13 17,3 C 96 % 1011,6 hPa 0,0 l/m 0,0 km/h W-NW 297 0 min 0,000 mm 0,0 UV-I 0 W/m 16,7 C 17,3 C 0,0 km/h 100,00 %
26.06.2022 03:12 17,3 C 96 % 1011,5 hPa 0,0 l/m 0,0 km/h W-NW 297 0 min 0,000 mm 0,0 UV-I 0 W/m 16,7 C 17,3 C 0,0 km/h 96,30 %
26.06.2022 03:11 17,3 C 96 % 1011,6 hPa 0,0 l/m 0,1 km/h W-NW 297 0 min 0,000 mm 0,0 UV-I 0 W/m 16,7 C 17,3 C 1,9 km/h 100,00 %
26.06.2022 03:10 17,3 C 96 % 1011,6 hPa 0,0 l/m 0,3 km/h W-NW 297 0 min 0,000 mm 0,0 UV-I 0 W/m 16,7 C 17,3 C 1,9 km/h 96,30 %
26.06.2022 03:09 17,4 C 95 % 1011,6 hPa 0,0 l/m 1,0 km/h W-NW 297 0 min 0,000 mm 0,0 UV-I 0 W/m 16,6 C 17,4 C 1,9 km/h 100,00 %
26.06.2022 03:08 17,4 C 95 % 1011,6 hPa 0,0 l/m 0,7 km/h W-NW 297 0 min 0,000 mm 0,0 UV-I 0 W/m 16,6 C 17,4 C 1,9 km/h 95,83 %
26.06.2022 03:07 17,4 C 95 % 1011,5 hPa 0,0 l/m 1,0 km/h W-NW 297 0 min 0,000 mm 0,0 UV-I 0 W/m 16,6 C 17,4 C 1,9 km/h 96,15 %
26.06.2022 03:06 17,4 C 95 % 1011,5 hPa 0,0 l/m 0,0 km/h W-NW 297 0 min 0,000 mm 0,0 UV-I 0 W/m 16,6 C 17,4 C 0,0 km/h 100,00 %
26.06.2022 03:05 17,4 C 95 % 1011,5 hPa 0,0 l/m 0,0 km/h W-NW 297 0 min 0,000 mm 0,0 UV-I 0 W/m 16,6 C 17,4 C 0,0 km/h 95,65 %
26.06.2022 03:04 17,4 C 95 % 1011,5 hPa 0,0 l/m 0,9 km/h W-NW 297 0 min 0,000 mm 0,0 UV-I 0 W/m 16,6 C 17,4 C 3,8 km/h 100,00 %
26.06.2022 03:03 17,6 C 96 % 1011,6 hPa 0,0 l/m 3,5 km/h W-NW 297 0 min 0,000 mm 0,0 UV-I 0 W/m 17,0 C 17,6 C 5,7 km/h 96,15 %
26.06.2022 03:02 17,6 C 96 % 1011,6 hPa 0,0 l/m 1,7 km/h W-NW 297 0 min 0,000 mm 0,0 UV-I 0 W/m 17,0 C 17,6 C 5,7 km/h 100,00 %
26.06.2022 03:01 17,6 C 96 % 1011,6 hPa 0,0 l/m 0,0 km/h W-NW 297 0 min 0,000 mm 0,0 UV-I 0 W/m 17,0 C 17,6 C 0,0 km/h 96,15 %
26.06.2022 03:00 17,7 C 96 % 1011,6 hPa 0,0 l/m 0,0 km/h W-NW 297 0 min 0,000 mm 0,0 UV-I 0 W/m 17,1 C 17,7 C 0,0 km/h 100,00 %
26.06.2022 02:59 17,6 C 96 % 1011,6 hPa 0,0 l/m 0,0 km/h W-NW 297 0 min 0,000 mm 0,0 UV-I 0 W/m 17,0 C 17,6 C 0,0 km/h 96,30 %
26.06.2022 02:58 17,7 C 96 % 1011,6 hPa 0,0 l/m 0,0 km/h W-NW 297 0 min 0,000 mm 0,0 UV-I 0 W/m 17,1 C 17,7 C 0,0 km/h 95,65 %
26.06.2022 02:57 17,6 C 96 % 1011,6 hPa 0,0 l/m 0,0 km/h W-NW 297 0 min 0,000 mm 0,0 UV-I 0 W/m 17,0 C 17,6 C 0,0 km/h 100,00 %
26.06.2022 02:56 17,6 C 96 % 1011,7 hPa 0,0 l/m 0,0 km/h W-NW 297 0 min 0,000 mm 0,0 UV-I 0 W/m 17,0 C 17,6 C 0,0 km/h 95,65 %
26.06.2022 02:55 17,6 C 96 % 1011,7 hPa 0,0 l/m 0,0 km/h W-NW 297 0 min 0,000 mm 0,0 UV-I 0 W/m 17,0 C 17,6 C 0,0 km/h 95,83 %
26.06.2022 02:54 17,6 C 96 % 1011,7 hPa 0,0 l/m 0,0 km/h W-NW 297 0 min 0,000 mm 0,0 UV-I 0 W/m 17,0 C 17,6 C 0,0 km/h 96,55 %
26.06.2022 02:53 17,4 C 96 % 1011,7 hPa 0,0 l/m 0,0 km/h W-NW 297 0 min 0,000 mm 0,0 UV-I 0 W/m 16,8 C 17,4 C 0,0 km/h 91,67 %
26.06.2022 02:52 17,4 C 96 % 1011,8 hPa 0,0 l/m 0,0 km/h W-NW 297 0 min 0,000 mm 0,0 UV-I 0 W/m 16,8 C 17,4 C 0,0 km/h 95,65 %
26.06.2022 02:51 17,4 C 96 % 1011,8 hPa 0,0 l/m 0,0 km/h W-NW 297 0 min 0,000 mm 0,0 UV-I 0 W/m 16,8 C 17,4 C 0,0 km/h 96,00 %
26.06.2022 02:50 17,3 C 95 % 1011,8 hPa 0,0 l/m 0,0 km/h W-NW 297 0 min 0,000 mm 0,0 UV-I 0 W/m 16,5 C 17,3 C 0,0 km/h 100,00 %
26.06.2022 02:49 17,3 C 95 % 1011,8 hPa 0,0 l/m 0,0 km/h W-NW 297 0 min 0,000 mm 0,0 UV-I 0 W/m 16,5 C 17,3 C 0,0 km/h 100,00 %
26.06.2022 02:48 17,3 C 95 % 1011,8 hPa 0,0 l/m 0,0 km/h W-NW 297 0 min 0,000 mm 0,0 UV-I 0 W/m 16,5 C 17,3 C 0,0 km/h 95,83 %
26.06.2022 02:47 17,3 C 95 % 1011,8 hPa 0,0 l/m 0,0 km/h W-NW 297 0 min 0,000 mm 0,0 UV-I 0 W/m 16,5 C 17,3 C 0,0 km/h 95,83 %
26.06.2022 02:46 17,3 C 95 % 1011,8 hPa 0,0 l/m 0,0 km/h W-NW 297 0 min 0,000 mm 0,0 UV-I 0 W/m 16,5 C 17,3 C 0,0 km/h 100,00 %
26.06.2022 02:45 17,3 C 95 % 1011,8 hPa 0,0 l/m 0,0 km/h W-NW 297 0 min 0,000 mm 0,0 UV-I 0 W/m 16,5 C 17,3 C 0,0 km/h 95,83 %
26.06.2022 02:44 17,4 C 95 % 1011,8 hPa 0,0 l/m 0,0 km/h W-NW 297 0 min 0,000 mm 0,0 UV-I 0 W/m 16,6 C 17,4 C 0,0 km/h 100,00 %
26.06.2022 02:43 17,4 C 95 % 1011,8 hPa 0,0 l/m 0,0 km/h W-NW 297 0 min 0,000 mm 0,0 UV-I 0 W/m 16,6 C 17,4 C 0,0 km/h 95,83 %
26.06.2022 02:42 17,4 C 95 % 1011,7 hPa 0,2 l/m 0,0 km/h W-NW 297 0 min 0,000 mm 0,0 UV-I 0 W/m 16,6 C 17,4 C 0,0 km/h 95,65 %
26.06.2022 02:41 17,4 C 95 % 1011,7 hPa 0,0 l/m 0,0 km/h W-NW 297 0 min 0,000 mm 0,0 UV-I 0 W/m 16,6 C 17,4 C 0,0 km/h 96,30 %
26.06.2022 02:40 17,4 C 95 % 1011,6 hPa 0,0 l/m 0,1 km/h W-NW 297 0 min 0,000 mm 0,0 UV-I 0 W/m 16,6 C 17,4 C 1,9 km/h 95,65 %
26.06.2022 02:39 17,4 C 95 % 1011,6 hPa 0,0 l/m 1,0 km/h W-NW 297 0 min 0,000 mm 0,0 UV-I 0 W/m 16,6 C 17,4 C 1,9 km/h 100,00 %
26.06.2022 02:38 17,4 C 95 % 1011,6 hPa 0,0 l/m 0,6 km/h W-NW 297 0 min 0,000 mm 0,0 UV-I 0 W/m 16,6 C 17,4 C 1,9 km/h 95,83 %
26.06.2022 02:37 17,4 C 95 % 1011,5 hPa 0,0 l/m 0,2 km/h W-NW 297 0 min 0,000 mm 0,0 UV-I 0 W/m 16,6 C 17,4 C 1,9 km/h 100,00 %
26.06.2022 02:36 17,4 C 95 % 1011,5 hPa 0,0 l/m 0,4 km/h W-NW 297 0 min 0,000 mm 0,0 UV-I 0 W/m 16,6 C 17,4 C 1,9 km/h 96,15 %
26.06.2022 02:35 17,4 C 95 % 1011,5 hPa 0,0 l/m 0,0 km/h W-NW 297 0 min 0,000 mm 0,0 UV-I 0 W/m 16,6 C 17,4 C 0,0 km/h 100,00 %
26.06.2022 02:34 17,4 C 95 % 1011,5 hPa 0,0 l/m 0,1 km/h W-NW 297 0 min 0,000 mm 0,0 UV-I 0 W/m 16,6 C 17,4 C 1,9 km/h 95,83 %
26.06.2022 02:33 17,4 C 95 % 1011,4 hPa 0,0 l/m 0,5 km/h W-NW 297 0 min 0,000 mm 0,0 UV-I 0 W/m 16,6 C 17,4 C 1,9 km/h 96,15 %
26.06.2022 02:32 17,4 C 95 % 1011,5 hPa 0,0 l/m 0,8 km/h W-NW 297 0 min 0,000 mm 0,0 UV-I 0 W/m 16,6 C 17,4 C 3,8 km/h 100,00 %
26.06.2022 02:31 17,4 C 95 % 1011,4 hPa 0,0 l/m 0,0 km/h W-NW 297 0 min 0,000 mm 0,0 UV-I 0 W/m 16,6 C 17,4 C 0,0 km/h 95,65 %
26.06.2022 02:30 17,4 C 95 % 1011,4 hPa 0,0 l/m 0,2 km/h W-NW 297 0 min 0,000 mm 0,0 UV-I 0 W/m 16,6 C 17,4 C 1,9 km/h 95,83 %
26.06.2022 02:29 17,4 C 95 % 1011,4 hPa 0,0 l/m 1,2 km/h W-NW 297 0 min 0,000 mm 0,0 UV-I 0 W/m 16,6 C 17,4 C 3,8 km/h 95,65 %
26.06.2022 02:28 17,3 C 95 % 1011,4 hPa 0,0 l/m 0,0 km/h W-NW 297 0 min 0,000 mm 0,0 UV-I 0 W/m 16,5 C 17,3 C 0,0 km/h 100,00 %
26.06.2022 02:27 17,4 C 95 % 1011,4 hPa 0,0 l/m 0,0 km/h W-NW 297 0 min 0,000 mm 0,0 UV-I 0 W/m 16,6 C 17,4 C 0,0 km/h 96,15 %
26.06.2022 02:26 17,4 C 95 % 1011,4 hPa 0,0 l/m 0,1 km/h W-NW 297 0 min 0,000 mm 0,0 UV-I 0 W/m 16,6 C 17,4 C 1,9 km/h 100,00 %
26.06.2022 02:25 17,3 C 95 % 1011,4 hPa 0,0 l/m 0,0 km/h W-NW 297 0 min 0,000 mm 0,0 UV-I 0 W/m 16,5 C 17,3 C 0,0 km/h 96,15 %
26.06.2022 02:24 17,3 C 95 % 1011,4 hPa 0,0 l/m 0,0 km/h W-NW 297 0 min 0,000 mm 0,0 UV-I 0 W/m 16,5 C 17,3 C 0,0 km/h 92,00 %
26.06.2022 02:23 17,3 C 95 % 1011,4 hPa 0,0 l/m 0,1 km/h W-NW 297 0 min 0,000 mm 0,0 UV-I 0 W/m 16,5 C 17,3 C 1,9 km/h 100,00 %
26.06.2022 02:22 17,4 C 95 % 1011,3 hPa 0,0 l/m 1,0 km/h W-NW 297 0 min 0,000 mm 0,0 UV-I 0 W/m 16,6 C 17,4 C 3,8 km/h 96,30 %
26.06.2022 02:21 17,4 C 95 % 1011,3 hPa 0,0 l/m 2,1 km/h W-NW 297 0 min 0,000 mm 0,0 UV-I 0 W/m 16,6 C 17,4 C 5,7 km/h 100,00 %
26.06.2022 02:20 17,3 C 95 % 1011,3 hPa 0,0 l/m 0,6 km/h W-NW 297 0 min 0,000 mm 0,0 UV-I 0 W/m 16,5 C 17,3 C 3,8 km/h 91,67 %
26.06.2022 02:19 17,3 C 95 % 1011,3 hPa 0,2 l/m 0,1 km/h W-NW 297 0 min 0,000 mm 0,0 UV-I 0 W/m 16,5 C 17,3 C 1,9 km/h 100,00 %
26.06.2022 02:18 17,3 C 95 % 1011,2 hPa 0,0 l/m 2,8 km/h W-NW 297 0 min 0,000 mm 0,0 UV-I 0 W/m 16,5 C 17,3 C 7,7 km/h 96,00 %
26.06.2022 02:17 17,3 C 95 % 1011,2 hPa 0,0 l/m 5,8 km/h W-NW 287 0 min 0,000 mm 0,0 UV-I 0 W/m 16,5 C 17,3 C 13,4 km/h 96,15 %
26.06.2022 02:16 17,3 C 95 % 1011,2 hPa 0,0 l/m 6,0 km/h NW 304 0 min 0,000 mm 0,0 UV-I 0 W/m 16,5 C 17,3 C 9,6 km/h 100,00 %
26.06.2022 02:15 17,3 C 95 % 1011,2 hPa 0,0 l/m 3,9 km/h W-NW 290 0 min 0,000 mm 0,0 UV-I 0 W/m 16,5 C 17,3 C 7,7 km/h 96,67 %
26.06.2022 02:14 17,3 C 95 % 1011,2 hPa 0,0 l/m 8,7 km/h W-NW 288 0 min 0,000 mm 0,0 UV-I 0 W/m 16,5 C 16,2 C 15,3 km/h 100,00 %
26.06.2022 02:13 17,3 C 95 % 1011,2 hPa 0,2 l/m 12,9 km/h NW 323 0 min 0,000 mm 0,0 UV-I 0 W/m 16,5 C 14,6 C 19,1 km/h 96,30 %
26.06.2022 02:12 17,3 C 95 % 1011,5 hPa 0,0 l/m 4,1 km/h W-NW 296 0 min 0,000 mm 0,0 UV-I 0 W/m 16,5 C 17,3 C 9,6 km/h 97,73 %
26.06.2022 02:11 17,3 C 95 % 1011,7 hPa 0,0 l/m 1,4 km/h NW 306 0 min 0,000 mm 0,0 UV-I 0 W/m 16,5 C 17,3 C 9,6 km/h 100,00 %
26.06.2022 02:10 17,3 C 95 % 1011,9 hPa 0,4 l/m 3,4 km/h W-SW 242 0 min 0,000 mm 0,0 UV-I 0 W/m 16,5 C 17,3 C 5,7 km/h 100,00 %
26.06.2022 02:09 17,3 C 95 % 1012,1 hPa 0,0 l/m 9,7 km/h W 259 0 min 0,000 mm 0,0 UV-I 0 W/m 16,5 C 15,8 C 13,4 km/h 96,30 %
26.06.2022 02:08 17,3 C 95 % 1012,1 hPa 0,2 l/m 7,9 km/h S-SW 209 0 min 0,000 mm 0,0 UV-I 0 W/m 16,5 C 16,6 C 11,5 km/h 96,15 %
26.06.2022 02:07 17,3 C 95 % 1012,1 hPa 0,0 l/m 13,1 km/h SW 231 0 min 0,000 mm 0,0 UV-I 0 W/m 16,5 C 14,6 C 17,2 km/h 100,00 %
26.06.2022 02:06 17,3 C 95 % 1012,1 hPa 0,0 l/m 13,1 km/h SW 236 0 min 0,000 mm 0,0 UV-I 0 W/m 16,5 C 14,6 C 19,1 km/h 92,86 %
26.06.2022 02:05 17,3 C 95 % 1012,1 hPa 0,0 l/m 11,6 km/h SW 234 0 min 0,000 mm 0,0 UV-I 0 W/m 16,5 C 15,1 C 17,2 km/h 100,00 %
26.06.2022 02:04 17,3 C 95 % 1012,1 hPa 0,0 l/m 12,7 km/h S-SW 213 0 min 0,000 mm 0,0 UV-I 0 W/m 16,5 C 14,7 C 19,1 km/h 95,65 %
26.06.2022 02:03 17,3 C 95 % 1011,9 hPa 0,0 l/m 11,6 km/h SW 216 0 min 0,000 mm 0,0 UV-I 0 W/m 16,5 C 15,1 C 23,0 km/h 100,00 %
26.06.2022 02:02 17,3 C 95 % 1011,8 hPa 0,0 l/m 9,3 km/h W-SW 240 0 min 0,000 mm 0,0 UV-I 0 W/m 16,5 C 15,9 C 19,1 km/h 93,33 %
26.06.2022 02:01 17,4 C 95 % 1011,6 hPa 0,0 l/m 8,5 km/h SW 223 0 min 0,000 mm 0,0 UV-I 0 W/m 16,6 C 16,4 C 15,3 km/h 100,00 %
26.06.2022 02:00 17,3 C 95 % 1011,6 hPa 0,0 l/m 8,8 km/h SW 232 0 min 0,026 mm 0,0 UV-I 0 W/m 16,5 C 16,2 C 15,3 km/h 95,83 %
26.06.2022 01:59 17,3 C 95 % 1011,5 hPa 0,0 l/m 2,7 km/h W-SW 255 0 min 0,000 mm 0,0 UV-I 0 W/m 16,5 C 17,3 C 5,7 km/h 100,00 %
26.06.2022 01:58 17,4 C 95 % 1011,4 hPa 0,0 l/m 5,0 km/h W-SW 257 0 min 0,000 mm 0,0 UV-I 0 W/m 16,6 C 17,4 C 11,5 km/h 95,83 %
26.06.2022 01:57 17,4 C 95 % 1011,7 hPa 0,0 l/m 8,3 km/h W-SW 255 0 min 0,000 mm 0,0 UV-I 0 W/m 16,6 C 16,5 C 13,4 km/h 96,15 %
26.06.2022 01:56 17,4 C 95 % 1011,8 hPa 0,0 l/m 6,6 km/h W-SW 246 0 min 0,000 mm 0,0 UV-I 0 W/m 16,6 C 17,3 C 13,4 km/h 100,00 %
26.06.2022 01:55 17,4 C 95 % 1012,0 hPa 0,0 l/m 8,4 km/h SW 222 0 min 0,000 mm 0,0 UV-I 0 W/m 16,6 C 16,4 C 11,5 km/h 92,86 %
26.06.2022 01:54 17,4 C 95 % 1011,9 hPa 0,2 l/m 6,8 km/h SW 220 0 min 0,000 mm 0,0 UV-I 0 W/m 16,6 C 17,2 C 9,6 km/h 100,00 %
26.06.2022 01:53 17,4 C 95 % 1011,7 hPa 0,0 l/m 2,7 km/h W-SW 247 0 min 0,000 mm 0,0 UV-I 0 W/m 16,6 C 17,4 C 7,7 km/h 95,65 %
26.06.2022 01:52 17,4 C 94 % 1011,7 hPa 0,0 l/m 3,3 km/h SW 215 0 min 0,000 mm 0,0 UV-I 0 W/m 16,4 C 17,4 C 11,5 km/h 100,00 %
26.06.2022 01:51 17,4 C 95 % 1011,9 hPa 0,0 l/m 7,0 km/h W 261 0 min 0,000 mm 0,0 UV-I 0 W/m 16,6 C 17,1 C 11,5 km/h 96,15 %
26.06.2022 01:50 17,4 C 95 % 1012,1 hPa 0,0 l/m 7,3 km/h S-SW 198 0 min 0,000 mm 0,0 UV-I 0 W/m 16,6 C 17,0 C 15,3 km/h 95,83 %
26.06.2022 01:49 17,4 C 95 % 1012,2 hPa 0,0 l/m 11,1 km/h SW 224 0 min 0,000 mm 0,0 UV-I 0 W/m 16,6 C 15,4 C 17,2 km/h 95,65 %
26.06.2022 01:48 17,4 C 94 % 1012,2 hPa 0,0 l/m 8,4 km/h W-SW 250 0 min 0,000 mm 0,0 UV-I 0 W/m 16,4 C 16,4 C 15,3 km/h 96,30 %
26.06.2022 01:47 17,4 C 94 % 1011,9 hPa 0,0 l/m 4,1 km/h SW 229 0 min 0,000 mm 0,0 UV-I 0 W/m 16,4 C 17,4 C 5,7 km/h 100,00 %
26.06.2022 01:46 17,4 C 94 % 1011,9 hPa 0,0 l/m 3,5 km/h SW 229 0 min 0,000 mm 0,0 UV-I 0 W/m 16,4 C 17,4 C 7,7 km/h 95,83 %
26.06.2022 01:45 17,4 C 94 % 1011,9 hPa 0,0 l/m 4,6 km/h SW 229 0 min 0,000 mm 0,0 UV-I 0 W/m 16,4 C 17,4 C 7,7 km/h 100,00 %
26.06.2022 01:44 17,4 C 94 % 1011,9 hPa 0,0 l/m 7,3 km/h W-NW 287 0 min 0,000 mm 0,0 UV-I 0 W/m 16,4 C 17,0 C 15,3 km/h 96,67 %
26.06.2022 01:43 17,5 C 94 % 1011,9 hPa 0,2 l/m 8,5 km/h W-SW 249 0 min 0,000 mm 0,0 UV-I 0 W/m 16,5 C 16,5 C 13,4 km/h 96,15 %
26.06.2022 01:42 17,4 C 94 % 1012,0 hPa 0,8 l/m 10,8 km/h S-SW 213 0 min 0,000 mm 0,0 UV-I 0 W/m 16,4 C 15,5 C 17,2 km/h 100,00 %
26.06.2022 01:41 17,5 C 94 % 1012,0 hPa 0,6 l/m 9,1 km/h SW 235 0 min 0,000 mm 0,0 UV-I 0 W/m 16,5 C 16,2 C 19,1 km/h 97,73 %
26.06.2022 01:40 17,5 C 94 % 1012,1 hPa 1,4 l/m 11,4 km/h W-SW 238 0 min 0,000 mm 0,0 UV-I 0 W/m 16,5 C 15,4 C 17,2 km/h 100,00 %
26.06.2022 01:39 17,5 C 94 % 1012,1 hPa 1,4 l/m 6,9 km/h SW 236 0 min 0,000 mm 0,0 UV-I 0 W/m 16,5 C 17,3 C 11,5 km/h 96,55 %
26.06.2022 01:38 17,6 C 94 % 1012,2 hPa 0,8 l/m 3,7 km/h W-SW 237 0 min 0,000 mm 0,0 UV-I 0 W/m 16,6 C 17,6 C 11,5 km/h 100,00 %
26.06.2022 01:37 17,6 C 94 % 1012,2 hPa 1,0 l/m 8,6 km/h W-SW 248 0 min 0,000 mm 0,0 UV-I 0 W/m 16,6 C 16,6 C 13,4 km/h 91,67 %
26.06.2022 01:36 17,6 C 94 % 1012,2 hPa 0,4 l/m 10,8 km/h SW 224 0 min 0,000 mm 0,0 UV-I 0 W/m 16,6 C 15,7 C 17,2 km/h 100,00 %
26.06.2022 01:35 17,6 C 93 % 1012,2 hPa 0,0 l/m 11,0 km/h SW 223 0 min 0,000 mm 0,0 UV-I 0 W/m 16,5 C 15,6 C 19,1 km/h 95,83 %
26.06.2022 01:34 17,6 C 93 % 1012,1 hPa 0,0 l/m 8,2 km/h W-SW 258 0 min 0,000 mm 0,0 UV-I 0 W/m 16,5 C 16,7 C 13,4 km/h 100,00 %
26.06.2022 01:33 17,6 C 93 % 1012,1 hPa 0,0 l/m 14,1 km/h W-SW 239 0 min 0,000 mm 0,0 UV-I 0 W/m 16,5 C 14,6 C 21,0 km/h 96,30 %
26.06.2022 01:32 17,6 C 93 % 1012,0 hPa 0,2 l/m 9,0 km/h S 172 0 min 0,000 mm 0,0 UV-I 0 W/m 16,5 C 16,4 C 21,0 km/h 96,15 %
26.06.2022 01:31 17,7 C 93 % 1011,8 hPa 0,0 l/m 2,6 km/h W 269 0 min 0,000 mm 0,0 UV-I 0 W/m 16,6 C 17,7 C 5,7 km/h 100,00 %
26.06.2022 01:30 17,6 C 93 % 1011,7 hPa 0,2 l/m 4,9 km/h SW 221 0 min 0,000 mm 0,0 UV-I 0 W/m 16,5 C 17,6 C 11,5 km/h 100,00 %
26.06.2022 01:29 17,6 C 93 % 1011,8 hPa 0,0 l/m 8,5 km/h S-SW 193 0 min 0,000 mm 0,0 UV-I 0 W/m 16,5 C 16,6 C 17,2 km/h 100,00 %
26.06.2022 01:28 17,7 C 93 % 1011,8 hPa 0,2 l/m 12,1 km/h SW 229 0 min 0,000 mm 0,0 UV-I 0 W/m 16,6 C 15,3 C 15,3 km/h 96,15 %
26.06.2022 01:27 17,7 C 93 % 1011,8 hPa 0,2 l/m 15,9 km/h SW 219 0 min 0,000 mm 0,0 UV-I 0 W/m 16,6 C 14,2 C 23,0 km/h 100,00 %
26.06.2022 01:26 17,7 C 92 % 1011,8 hPa 0,4 l/m 16,5 km/h SW 235 0 min 0,000 mm 0,0 UV-I 0 W/m 16,4 C 14,1 C 21,0 km/h 100,00 %
26.06.2022 01:25 17,8 C 92 % 1011,8 hPa 0,4 l/m 13,3 km/h S-SW 200 0 min 0,000 mm 0,0 UV-I 0 W/m 16,5 C 15,1 C 19,1 km/h 100,00 %
26.06.2022 01:24 17,8 C 92 % 1011,7 hPa 0,4 l/m 13,6 km/h SW 232 0 min 0,000 mm 0,0 UV-I 0 W/m 16,5 C 15,0 C 21,0 km/h 96,15 %
26.06.2022 01:23 17,9 C 92 % 1011,8 hPa 0,2 l/m 12,8 km/h W-SW 240 0 min 0,000 mm 0,0 UV-I 0 W/m 16,6 C 15,4 C 19,1 km/h 100,00 %
26.06.2022 01:22 18,0 C 91 % 1011,8 hPa 0,4 l/m 13,9 km/h W-SW 243 0 min 0,000 mm 0,0 UV-I 0 W/m 16,5 C 15,1 C 21,0 km/h 100,00 %
26.06.2022 01:21 18,1 C 91 % 1011,6 hPa 0,6 l/m 17,7 km/h SW 215 0 min 0,000 mm 0,0 UV-I 0 W/m 16,6 C 14,3 C 23,0 km/h 100,00 %
26.06.2022 01:20 18,1 C 90 % 1011,8 hPa 0,8 l/m 15,2 km/h W 265 0 min 0,000 mm 0,0 UV-I 0 W/m 16,4 C 14,9 C 24,9 km/h 100,00 %
26.06.2022 01:19 18,2 C 90 % 1011,8 hPa 1,0 l/m 14,2 km/h SW 223 0 min 0,000 mm 0,0 UV-I 0 W/m 16,5 C 15,3 C 23,0 km/h 91,67 %
26.06.2022 01:18 18,3 C 90 % 1011,8 hPa 0,6 l/m 13,8 km/h S-SW 194 0 min 0,000 mm 0,0 UV-I 0 W/m 16,6 C 15,5 C 26,8 km/h 100,00 %
26.06.2022 01:17 18,3 C 89 % 1012,0 hPa 0,2 l/m 13,2 km/h SW 223 0 min 0,000 mm 0,0 UV-I 0 W/m 16,5 C 15,7 C 23,0 km/h 100,00 %
26.06.2022 01:16 18,3 C 89 % 1012,1 hPa 0,0 l/m 14,0 km/h S-SW 204 0 min 0,000 mm 0,0 UV-I 0 W/m 16,5 C 15,5 C 21,0 km/h 95,83 %
26.06.2022 01:15 18,3 C 88 % 1012,1 hPa 0,0 l/m 13,6 km/h S-SW 202 0 min 0,000 mm 0,0 UV-I 0 W/m 16,3 C 15,6 C 21,0 km/h 95,65 %
26.06.2022 01:14 18,3 C 88 % 1012,0 hPa 0,0 l/m 12,2 km/h S-SW 211 0 min 0,000 mm 0,0 UV-I 0 W/m 16,3 C 16,0 C 17,2 km/h 100,00 %
26.06.2022 01:13 18,3 C 88 % 1011,9 hPa 0,0 l/m 9,8 km/h S-SW 209 0 min 0,000 mm 0,0 UV-I 0 W/m 16,3 C 16,8 C 17,2 km/h 100,00 %
26.06.2022 01:12 18,4 C 88 % 1011,8 hPa 0,0 l/m 10,8 km/h S-SW 211 0 min 0,000 mm 0,0 UV-I 0 W/m 16,4 C 16,6 C 19,1 km/h 100,00 %
26.06.2022 01:11 18,4 C 88 % 1011,7 hPa 0,0 l/m 5,4 km/h SW 219 0 min 0,000 mm 0,0 UV-I 0 W/m 16,4 C 18,4 C 7,7 km/h 100,00 %
26.06.2022 01:10 18,4 C 88 % 1011,6 hPa 0,0 l/m 11,0 km/h SW 216 0 min 0,000 mm 0,0 UV-I 0 W/m 16,4 C 16,5 C 17,2 km/h 96,30 %
26.06.2022 01:09 18,4 C 88 % 1011,5 hPa 0,0 l/m 14,2 km/h SW 228 0 min 0,000 mm 0,0 UV-I 0 W/m 16,4 C 15,5 C 24,9 km/h 100,00 %
26.06.2022 01:08 18,4 C 88 % 1011,5 hPa 0,0 l/m 9,2 km/h S-SW 203 0 min 0,000 mm 0,0 UV-I 0 W/m 16,4 C 17,2 C 15,3 km/h 100,00 %
26.06.2022 01:06 18,4 C 88 % 1011,4 hPa 0,0 l/m 17,0 km/h SW 222 0 min 0,000 mm 0,0 UV-I 0 W/m 16,4 C 14,8 C 26,8 km/h 96,30 %
26.06.2022 01:05 18,4 C 88 % 1011,3 hPa 0,0 l/m 9,1 km/h W-SW 238 0 min 0,000 mm 0,0 UV-I 0 W/m 16,4 C 17,2 C 13,4 km/h 100,00 %
26.06.2022 01:04 18,4 C 88 % 1011,3 hPa 0,0 l/m 9,7 km/h SW 217 0 min 0,000 mm 0,0 UV-I 0 W/m 16,4 C 17,0 C 15,3 km/h 100,00 %
26.06.2022 01:03 18,5 C 88 % 1011,3 hPa 0,0 l/m 11,0 km/h SW 226 0 min 0,000 mm 0,0 UV-I 0 W/m 16,5 C 16,6 C 23,0 km/h 100,00 %
26.06.2022 01:02 18,5 C 87 % 1011,3 hPa 0,0 l/m 10,3 km/h W-SW 238 0 min 0,000 mm 0,0 UV-I 0 W/m 16,3 C 16,9 C 21,0 km/h 95,12 %
26.06.2022 01:00 18,6 C 87 % 1011,3 hPa 0,0 l/m 11,2 km/h S-SW 213 0 min 0,025 mm 0,0 UV-I 0 W/m 16,4 C 16,7 C 15,3 km/h 100,00 %
26.06.2022 00:59 18,7 C 86 % 1011,3 hPa 0,0 l/m 11,5 km/h SW 217 0 min 0,000 mm 0,0 UV-I 0 W/m 16,3 C 16,7 C 15,3 km/h 100,00 %
26.06.2022 00:58 18,8 C 86 % 1011,2 hPa 0,0 l/m 12,0 km/h S 184 0 min 0,000 mm 0,0 UV-I 0 W/m 16,4 C 16,6 C 23,0 km/h 100,00 %
26.06.2022 00:57 18,9 C 85 % 1011,2 hPa 0,0 l/m 11,4 km/h S-SW 207 0 min 0,000 mm 0,0 UV-I 0 W/m 16,3 C 17,0 C 19,1 km/h 100,00 %
26.06.2022 00:56 19,1 C 85 % 1011,3 hPa 0,0 l/m 12,0 km/h S 188 0 min 0,000 mm 0,0 UV-I 0 W/m 16,5 C 17,0 C 19,1 km/h 100,00 %
26.06.2022 00:55 19,2 C 85 % 1011,2 hPa 0,0 l/m 9,5 km/h SW 219 0 min 0,000 mm 0,0 UV-I 0 W/m 16,6 C 17,9 C 17,2 km/h 100,00 %
26.06.2022 00:54 19,3 C 85 % 1011,0 hPa 0,0 l/m 6,9 km/h SW 225 0 min 0,000 mm 0,0 UV-I 0 W/m 16,7 C 19,1 C 9,6 km/h 100,00 %
26.06.2022 00:53 19,3 C 85 % 1010,8 hPa 0,0 l/m 4,7 km/h W-NW 301 0 min 0,000 mm 0,0 UV-I 0 W/m 16,7 C 19,3 C 5,7 km/h 100,00 %
26.06.2022 00:52 19,3 C 85 % 1010,7 hPa 0,0 l/m 3,1 km/h W-NW 303 0 min 0,000 mm 0,0 UV-I 0 W/m 16,7 C 19,3 C 3,8 km/h 100,00 %
26.06.2022 00:51 19,3 C 85 % 1010,7 hPa 0,0 l/m 0,7 km/h W-NW 303 0 min 0,000 mm 0,0 UV-I 0 W/m 16,7 C 19,3 C 1,9 km/h 100,00 %
26.06.2022 00:50 19,3 C 85 % 1010,7 hPa 0,0 l/m 0,2 km/h W-NW 303 0 min 0,000 mm 0,0 UV-I 0 W/m 16,7 C 19,3 C 1,9 km/h 100,00 %
26.06.2022 00:49 19,3 C 85 % 1010,7 hPa 0,0 l/m 1,2 km/h W-NW 303 0 min 0,000 mm 0,0 UV-I 0 W/m 16,7 C 19,3 C 3,8 km/h 100,00 %
26.06.2022 00:48 19,3 C 85 % 1010,7 hPa 0,0 l/m 1,5 km/h W-NW 303 0 min 0,000 mm 0,0 UV-I 0 W/m 16,7 C 19,3 C 1,9 km/h 100,00 %
26.06.2022 00:47 19,3 C 85 % 1010,7 hPa 0,0 l/m 0,7 km/h W-NW 303 0 min 0,000 mm 0,0 UV-I 0 W/m 16,7 C 19,3 C 3,8 km/h 100,00 %
26.06.2022 00:46 19,3 C 85 % 1010,7 hPa 0,0 l/m 0,0 km/h W-NW 303 0 min 0,000 mm 0,0 UV-I 0 W/m 16,7 C 19,3 C 0,0 km/h 100,00 %
26.06.2022 00:45 19,3 C 85 % 1010,7 hPa 0,0 l/m 0,1 km/h W-NW 303 0 min 0,000 mm 0,0 UV-I 0 W/m 16,7 C 19,3 C 1,9 km/h 100,00 %
26.06.2022 00:44 19,3 C 85 % 1010,7 hPa 0,0 l/m 0,1 km/h W-NW 303 0 min 0,000 mm 0,0 UV-I 0 W/m 16,7 C 19,3 C 1,9 km/h 100,00 %
26.06.2022 00:43 19,3 C 85 % 1010,7 hPa 0,0 l/m 0,0 km/h W-NW 303 0 min 0,000 mm 0,0 UV-I 0 W/m 16,7 C 19,3 C 0,0 km/h 100,00 %
26.06.2022 00:42 19,3 C 84 % 1010,7 hPa 0,0 l/m 0,2 km/h W-NW 303 0 min 0,000 mm 0,0 UV-I 0 W/m 16,5 C 19,3 C 1,9 km/h 100,00 %
26.06.2022 00:41 19,3 C 85 % 1010,7 hPa 0,0 l/m 0,0 km/h W-NW 303 0 min 0,000 mm 0,0 UV-I 0 W/m 16,7 C 19,3 C 0,0 km/h 100,00 %
26.06.2022 00:40 19,3 C 84 % 1010,7 hPa 0,0 l/m 0,0 km/h W-NW 303 0 min 0,000 mm 0,0 UV-I 0 W/m 16,5 C 19,3 C 0,0 km/h 100,00 %
26.06.2022 00:39 19,3 C 85 % 1010,7 hPa 0,0 l/m 0,0 km/h W-NW 303 0 min 0,000 mm 0,0 UV-I 0 W/m 16,7 C 19,3 C 0,0 km/h 100,00 %
26.06.2022 00:38 19,3 C 84 % 1010,7 hPa 0,0 l/m 0,0 km/h W-NW 303 0 min 0,000 mm 0,0 UV-I 0 W/m 16,5 C 19,3 C 0,0 km/h 100,00 %
26.06.2022 00:37 19,3 C 84 % 1010,7 hPa 0,0 l/m 0,1 km/h W-NW 303 0 min 0,000 mm 0,0 UV-I 0 W/m 16,5 C 19,3 C 1,9 km/h 100,00 %
26.06.2022 00:36 19,3 C 84 % 1010,8 hPa 0,0 l/m 0,6 km/h W-NW 303 0 min 0,000 mm 0,0 UV-I 0 W/m 16,5 C 19,3 C 1,9 km/h 100,00 %
26.06.2022 00:35 19,3 C 84 % 1010,7 hPa 0,0 l/m 1,5 km/h W-NW 303 0 min 0,000 mm 0,0 UV-I 0 W/m 16,5 C 19,3 C 1,9 km/h 100,00 %
26.06.2022 00:34 19,3 C 84 % 1010,7 hPa 0,0 l/m 0,2 km/h W-NW 303 0 min 0,000 mm 0,0 UV-I 0 W/m 16,5 C 19,3 C 1,9 km/h 100,00 %
26.06.2022 00:33 19,3 C 84 % 1010,8 hPa 0,0 l/m 0,1 km/h W-NW 303 0 min 0,000 mm 0,0 UV-I 0 W/m 16,5 C 19,3 C 1,9 km/h 100,00 %
26.06.2022 00:32 19,3 C 84 % 1010,8 hPa 0,0 l/m 0,0 km/h W-NW 303 0 min 0,000 mm 0,0 UV-I 0 W/m 16,5 C 19,3 C 0,0 km/h 100,00 %
26.06.2022 00:31 19,3 C 84 % 1010,8 hPa 0,0 l/m 0,0 km/h W-NW 303 0 min 0,000 mm 0,0 UV-I 0 W/m 16,5 C 19,3 C 0,0 km/h 100,00 %
26.06.2022 00:30 19,4 C 84 % 1010,8 hPa 0,0 l/m 0,0 km/h W-NW 303 0 min 0,000 mm 0,0 UV-I 0 W/m 16,6 C 19,4 C 0,0 km/h 95,83 %
26.06.2022 00:29 19,4 C 84 % 1010,8 hPa 0,0 l/m 0,1 km/h W-NW 303 0 min 0,000 mm 0,0 UV-I 0 W/m 16,6 C 19,4 C 1,9 km/h 100,00 %
26.06.2022 00:28 19,4 C 84 % 1010,8 hPa 0,0 l/m 0,0 km/h W-NW 303 0 min 0,000 mm 0,0 UV-I 0 W/m 16,6 C 19,4 C 0,0 km/h 100,00 %
26.06.2022 00:27 19,4 C 84 % 1010,8 hPa 0,0 l/m 0,0 km/h W-NW 303 0 min 0,000 mm 0,0 UV-I 0 W/m 16,6 C 19,4 C 0,0 km/h 97,37 %
26.06.2022 00:26 19,4 C 84 % 1010,8 hPa 0,0 l/m 1,0 km/h W-NW 303 0 min 0,000 mm 0,0 UV-I 0 W/m 16,6 C 19,4 C 1,9 km/h 100,00 %
26.06.2022 00:25 19,4 C 84 % 1010,8 hPa 0,0 l/m 0,1 km/h W-NW 303 0 min 0,000 mm 0,0 UV-I 0 W/m 16,6 C 19,4 C 1,9 km/h 100,00 %
26.06.2022 00:24 19,4 C 84 % 1010,8 hPa 0,0 l/m 1,4 km/h W-NW 303 0 min 0,000 mm 0,0 UV-I 0 W/m 16,6 C 19,4 C 3,8 km/h 100,00 %
26.06.2022 00:23 19,4 C 84 % 1010,8 hPa 0,0 l/m 2,1 km/h W-NW 303 0 min 0,000 mm 0,0 UV-I 0 W/m 16,6 C 19,4 C 3,8 km/h 96,30 %
26.06.2022 00:22 19,4 C 84 % 1010,8 hPa 0,0 l/m 0,4 km/h W-NW 303 0 min 0,000 mm 0,0 UV-I 0 W/m 16,6 C 19,4 C 1,9 km/h 100,00 %
26.06.2022 00:21 19,4 C 84 % 1010,8 hPa 0,0 l/m 0,9 km/h W-NW 303 0 min 0,000 mm 0,0 UV-I 0 W/m 16,6 C 19,4 C 3,8 km/h 100,00 %
26.06.2022 00:20 19,4 C 84 % 1010,8 hPa 0,0 l/m 1,5 km/h W-NW 303 0 min 0,000 mm 0,0 UV-I 0 W/m 16,6 C 19,4 C 3,8 km/h 100,00 %
26.06.2022 00:19 19,4 C 84 % 1010,8 hPa 0,0 l/m 2,2 km/h W-NW 303 0 min 0,000 mm 0,0 UV-I 0 W/m 16,6 C 19,4 C 3,8 km/h 100,00 %
26.06.2022 00:18 19,4 C 84 % 1010,9 hPa 0,0 l/m 2,9 km/h W-NW 303 0 min 0,000 mm 0,0 UV-I 0 W/m 16,6 C 19,4 C 5,7 km/h 100,00 %
26.06.2022 00:17 19,4 C 84 % 1010,8 hPa 0,0 l/m 1,4 km/h W-NW 303 0 min 0,000 mm 0,0 UV-I 0 W/m 16,6 C 19,4 C 3,8 km/h 100,00 %
26.06.2022 00:16 19,4 C 84 % 1010,9 hPa 0,0 l/m 3,1 km/h W-NW 303 0 min 0,000 mm 0,0 UV-I 0 W/m 16,6 C 19,4 C 5,7 km/h 95,65 %
26.06.2022 00:15 19,4 C 84 % 1010,9 hPa 0,0 l/m 2,5 km/h W-NW 303 0 min 0,000 mm 0,0 UV-I 0 W/m 16,6 C 19,4 C 3,8 km/h 100,00 %
26.06.2022 00:14 19,4 C 84 % 1010,9 hPa 0,0 l/m 2,9 km/h W-NW 303 0 min 0,000 mm 0,0 UV-I 0 W/m 16,6 C 19,4 C 3,8 km/h 100,00 %
26.06.2022 00:13 19,4 C 84 % 1010,9 hPa 0,0 l/m 1,8 km/h W-NW 303 0 min 0,000 mm 0,0 UV-I 0 W/m 16,6 C 19,4 C 3,8 km/h 100,00 %
26.06.2022 00:12 19,4 C 83 % 1010,9 hPa 0,0 l/m 3,1 km/h W-NW 303 0 min 0,000 mm 0,0 UV-I 0 W/m 16,4 C 19,4 C 5,7 km/h 100,00 %
26.06.2022 00:11 19,4 C 84 % 1010,9 hPa 0,0 l/m 3,2 km/h W-NW 303 0 min 0,000 mm 0,0 UV-I 0 W/m 16,6 C 19,4 C 5,7 km/h 100,00 %
26.06.2022 00:10 19,5 C 84 % 1011,0 hPa 0,0 l/m 2,2 km/h W-NW 303 0 min 0,000 mm 0,0 UV-I 0 W/m 16,7 C 19,5 C 5,7 km/h 95,65 %
26.06.2022 00:09 19,5 C 83 % 1011,0 hPa 0,0 l/m 2,6 km/h W-NW 302 0 min 0,000 mm 0,0 UV-I 0 W/m 16,5 C 19,5 C 3,8 km/h 100,00 %
26.06.2022 00:08 19,5 C 83 % 1011,0 hPa 0,0 l/m 2,6 km/h W-NW 302 0 min 0,000 mm 0,0 UV-I 0 W/m 16,5 C 19,5 C 3,8 km/h 100,00 %
26.06.2022 00:07 19,5 C 83 % 1011,0 hPa 0,0 l/m 5,0 km/h W-NW 302 0 min 0,000 mm 0,0 UV-I 0 W/m 16,5 C 19,5 C 9,6 km/h 100,00 %
26.06.2022 00:06 19,6 C 83 % 1011,0 hPa 0,0 l/m 4,3 km/h W-NW 300 0 min 0,000 mm 0,0 UV-I 0 W/m 16,6 C 19,6 C 7,7 km/h 100,00 %
26.06.2022 00:05 19,6 C 83 % 1011,0 hPa 0,0 l/m 2,7 km/h W-NW 300 0 min 0,000 mm 0,0 UV-I 0 W/m 16,6 C 19,6 C 7,7 km/h 100,00 %
26.06.2022 00:04 19,6 C 83 % 1011,0 hPa 0,0 l/m 2,7 km/h W-NW 298 0 min 0,000 mm 0,0 UV-I 0 W/m 16,6 C 19,6 C 5,7 km/h 100,00 %
26.06.2022 00:03 19,6 C 83 % 1011,0 hPa 0,0 l/m 1,7 km/h W-NW 298 0 min 0,000 mm 0,0 UV-I 0 W/m 16,6 C 19,6 C 3,8 km/h 100,00 %
26.06.2022 00:02 19,6 C 83 % 1011,0 hPa 0,0 l/m 1,0 km/h W-NW 298 0 min 0,000 mm 0,0 UV-I 0 W/m 16,6 C 19,6 C 1,9 km/h 100,00 %
26.06.2022 00:01 19,6 C 83 % 1011,0 hPa 0,0 l/m 2,0 km/h W-NW 298 0 min 0,000 mm 0,0 UV-I 0 W/m 16,6 C 19,6 C 5,7 km/h 100,00 %
26.06.2022 00:00 19,6 C 83 % 1010,9 hPa 0,0 l/m 1,2 km/h W-NW 298 0 min 0,000 mm 0,0 UV-I 0 W/m 16,6 C 19,6 C 3,8 km/h 100,00 %
25.06.2022 23:59 19,6 C 83 % 1010,9 hPa 0,0 l/m 1,4 km/h W-NW 298 0 min 0,000 mm 0,0 UV-I 0 W/m 16,6 C 19,6 C 3,8 km/h 100,00 %
25.06.2022 23:58 19,6 C 83 % 1010,9 hPa 0,0 l/m 0,6 km/h W-NW 298 0 min 0,000 mm 0,0 UV-I 0 W/m 16,6 C 19,6 C 1,9 km/h 100,00 %
25.06.2022 23:57 19,6 C 83 % 1010,9 hPa 0,0 l/m 1,3 km/h W-NW 298 0 min 0,000 mm 0,0 UV-I 0 W/m 16,6 C 19,6 C 3,8 km/h 100,00 %
25.06.2022 23:56 19,7 C 83 % 1011,0 hPa 0,0 l/m 0,8 km/h W-NW 298 0 min 0,000 mm 0,0 UV-I 0 W/m 16,7 C 19,7 C 1,9 km/h 100,00 %
25.06.2022 23:55 19,7 C 83 % 1011,0 hPa 0,0 l/m 1,7 km/h W-NW 298 0 min 0,000 mm 0,0 UV-I 0 W/m 16,7 C 19,7 C 3,8 km/h 100,00 %
25.06.2022 23:54 19,7 C 83 % 1010,9 hPa 0,0 l/m 2,4 km/h W-NW 298 0 min 0,000 mm 0,0 UV-I 0 W/m 16,7 C 19,7 C 5,7 km/h 100,00 %
25.06.2022 23:53 19,7 C 83 % 1010,9 hPa 0,0 l/m 0,4 km/h W-NW 298 0 min 0,000 mm 0,0 UV-I 0 W/m 16,7 C 19,7 C 1,9 km/h 100,00 %
25.06.2022 23:52 19,7 C 83 % 1010,9 hPa 0,0 l/m 0,0 km/h W-NW 298 0 min 0,000 mm 0,0 UV-I 0 W/m 16,7 C 19,7 C 0,0 km/h 100,00 %
25.06.2022 23:51 19,7 C 83 % 1010,9 hPa 0,0 l/m 0,7 km/h W-NW 298 0 min 0,000 mm 0,0 UV-I 0 W/m 16,7 C 19,7 C 1,9 km/h 100,00 %
25.06.2022 23:50 19,7 C 83 % 1010,9 hPa 0,0 l/m 1,3 km/h W-NW 298 0 min 0,000 mm 0,0 UV-I 0 W/m 16,7 C 19,7 C 3,8 km/h 100,00 %
25.06.2022 23:49 19,7 C 83 % 1010,9 hPa 0,0 l/m 0,6 km/h W-NW 298 0 min 0,000 mm 0,0 UV-I 0 W/m 16,7 C 19,7 C 1,9 km/h 100,00 %
25.06.2022 23:48 19,8 C 83 % 1010,9 hPa 0,0 l/m 0,7 km/h W-NW 298 0 min 0,000 mm 0,0 UV-I 0 W/m 16,8 C 19,8 C 1,9 km/h 100,00 %
25.06.2022 23:47 19,7 C 83 % 1010,9 hPa 0,0 l/m 0,6 km/h W-NW 298 0 min 0,000 mm 0,0 UV-I 0 W/m 16,7 C 19,7 C 3,8 km/h 100,00 %
25.06.2022 23:46 19,7 C 83 % 1010,9 hPa 0,0 l/m 1,9 km/h W-NW 298 0 min 0,000 mm 0,0 UV-I 0 W/m 16,7 C 19,7 C 3,8 km/h 100,00 %
25.06.2022 23:45 19,7 C 83 % 1011,0 hPa 0,0 l/m 1,1 km/h W-NW 298 0 min 0,000 mm 0,0 UV-I 0 W/m 16,7 C 19,7 C 1,9 km/h 100,00 %
25.06.2022 23:44 19,8 C 83 % 1011,0 hPa 0,0 l/m 3,3 km/h W-NW 298 0 min 0,000 mm 0,0 UV-I 0 W/m 16,8 C 19,8 C 5,7 km/h 100,00 %
25.06.2022 23:43 19,8 C 83 % 1010,9 hPa 0,0 l/m 1,5 km/h W-NW 298 0 min 0,000 mm 0,0 UV-I 0 W/m 16,8 C 19,8 C 3,8 km/h 100,00 %
25.06.2022 23:42 19,8 C 83 % 1011,0 hPa 0,0 l/m 0,0 km/h W-NW 298 0 min 0,000 mm 0,0 UV-I 0 W/m 16,8 C 19,8 C 0,0 km/h 100,00 %
25.06.2022 23:41 19,8 C 83 % 1011,0 hPa 0,0 l/m 0,6 km/h W-NW 298 0 min 0,000 mm 0,0 UV-I 0 W/m 16,8 C 19,8 C 1,9 km/h 100,00 %
25.06.2022 23:40 19,8 C 83 % 1011,0 hPa 0,0 l/m 0,6 km/h W-NW 298 0 min 0,000 mm 0,0 UV-I 0 W/m 16,8 C 19,8 C 3,8 km/h 100,00 %
25.06.2022 23:39 19,8 C 82 % 1011,0 hPa 0,0 l/m 0,8 km/h W-NW 298 0 min 0,000 mm 0,0 UV-I 0 W/m 16,6 C 19,8 C 3,8 km/h 100,00 %
25.06.2022 23:38 19,8 C 82 % 1011,0 hPa 0,0 l/m 0,6 km/h W-NW 298 0 min 0,000 mm 0,0 UV-I 0 W/m 16,6 C 19,8 C 1,9 km/h 100,00 %
25.06.2022 23:37 19,9 C 82 % 1011,0 hPa 0,0 l/m 0,4 km/h W-NW 298 0 min 0,000 mm 0,0 UV-I 0 W/m 16,7 C 19,9 C 1,9 km/h 100,00 %
25.06.2022 23:36 19,9 C 82 % 1011,0 hPa 0,0 l/m 2,8 km/h W-NW 298 0 min 0,000 mm 0,0 UV-I 0 W/m 16,7 C 19,9 C 5,7 km/h 100,00 %
25.06.2022 23:35 19,9 C 82 % 1011,0 hPa 0,0 l/m 0,8 km/h W-NW 298 0 min 0,000 mm 0,0 UV-I 0 W/m 16,7 C 19,9 C 1,9 km/h 100,00 %
25.06.2022 23:34 19,9 C 82 % 1011,0 hPa 0,0 l/m 0,0 km/h W-NW 298 0 min 0,000 mm 0,0 UV-I 0 W/m 16,7 C 19,9 C 0,0 km/h 100,00 %
25.06.2022 23:33 19,9 C 82 % 1011,1 hPa 0,0 l/m 0,1 km/h W-NW 298 0 min 0,000 mm 0,0 UV-I 0 W/m 16,7 C 19,9 C 1,9 km/h 100,00 %
25.06.2022 23:32 19,9 C 82 % 1011,0 hPa 0,0 l/m 0,0 km/h W-NW 298 0 min 0,000 mm 0,0 UV-I 0 W/m 16,7 C 19,9 C 0,0 km/h 100,00 %
25.06.2022 23:31 19,9 C 82 % 1011,0 hPa 0,0 l/m 0,0 km/h W-NW 298 0 min 0,000 mm 0,0 UV-I 0 W/m 16,7 C 19,9 C 0,0 km/h 100,00 %
25.06.2022 23:30 20,0 C 82 % 1011,0 hPa 0,0 l/m 0,6 km/h W-NW 298 0 min 0,000 mm 0,0 UV-I 0 W/m 16,8 C 20,0 C 1,9 km/h 100,00 %
25.06.2022 23:29 20,0 C 82 % 1011,0 hPa 0,0 l/m 0,3 km/h W-NW 298 0 min 0,000 mm 0,0 UV-I 0 W/m 16,8 C 20,0 C 1,9 km/h 100,00 %
25.06.2022 23:28 20,0 C 82 % 1011,0 hPa 0,0 l/m 0,6 km/h W-NW 298 0 min 0,000 mm 0,0 UV-I 0 W/m 16,8 C 20,0 C 1,9 km/h 100,00 %
25.06.2022 23:27 20,0 C 82 % 1011,0 hPa 0,0 l/m 0,7 km/h W-NW 298 0 min 0,000 mm 0,0 UV-I 0 W/m 16,8 C 20,0 C 1,9 km/h 100,00 %
25.06.2022 23:26 20,0 C 82 % 1011,0 hPa 0,0 l/m 0,5 km/h W-NW 298 0 min 0,000 mm 0,0 UV-I 0 W/m 16,8 C 20,0 C 1,9 km/h 100,00 %
25.06.2022 23:25 20,1 C 82 % 1011,0 hPa 0,0 l/m 0,1 km/h W-NW 298 0 min 0,000 mm 0,0 UV-I 0 W/m 16,9 C 20,1 C 1,9 km/h 100,00 %
25.06.2022 23:24 20,1 C 81 % 1011,0 hPa 0,0 l/m 0,1 km/h W-NW 298 0 min 0,000 mm 0,0 UV-I 0 W/m 16,7 C 20,1 C 1,9 km/h 100,00 %
25.06.2022 23:23 20,1 C 81 % 1011,0 hPa 0,0 l/m 0,0 km/h W-NW 298 0 min 0,000 mm 0,0 UV-I 0 W/m 16,7 C 20,1 C 0,0 km/h 100,00 %
25.06.2022 23:22 20,1 C 81 % 1010,9 hPa 0,0 l/m 0,1 km/h W-NW 298 0 min 0,000 mm 0,0 UV-I 0 W/m 16,7 C 20,1 C 1,9 km/h 100,00 %
25.06.2022 23:21 20,1 C 81 % 1010,9 hPa 0,0 l/m 0,4 km/h W-NW 298 0 min 0,000 mm 0,0 UV-I 0 W/m 16,7 C 20,1 C 1,9 km/h 100,00 %
25.06.2022 23:20 20,2 C 81 % 1011,0 hPa 0,0 l/m 0,1 km/h W-NW 298 0 min 0,000 mm 0,0 UV-I 0 W/m 16,8 C 20,2 C 1,9 km/h 100,00 %
25.06.2022 23:19 20,2 C 81 % 1011,0 hPa 0,0 l/m 1,1 km/h W-NW 298 0 min 0,000 mm 0,0 UV-I 0 W/m 16,8 C 20,2 C 3,8 km/h 100,00 %
25.06.2022 23:18 20,2 C 81 % 1011,0 hPa 0,0 l/m 0,8 km/h W-NW 298 0 min 0,000 mm 0,0 UV-I 0 W/m 16,8 C 20,2 C 3,8 km/h 100,00 %
25.06.2022 23:17 20,2 C 81 % 1011,0 hPa 0,0 l/m 2,3 km/h W-NW 298 0 min 0,000 mm 0,0 UV-I 0 W/m 16,8 C 20,2 C 5,7 km/h 100,00 %
25.06.2022 23:16 20,2 C 81 % 1011,0 hPa 0,0 l/m 0,8 km/h W-NW 298 0 min 0,000 mm 0,0 UV-I 0 W/m 16,8 C 20,2 C 1,9 km/h 100,00 %
25.06.2022 23:15 20,2 C 81 % 1011,0 hPa 0,0 l/m 2,2 km/h W-NW 298 0 min 0,000 mm 0,0 UV-I 0 W/m 16,8 C 20,2 C 3,8 km/h 100,00 %
25.06.2022 23:14 20,3 C 80 % 1011,0 hPa 0,0 l/m 5,3 km/h W-NW 298 0 min 0,000 mm 0,0 UV-I 0 W/m 16,7 C 20,3 C 7,7 km/h 100,00 %
25.06.2022 23:13 20,3 C 80 % 1011,0 hPa 0,0 l/m 3,6 km/h W-NW 298 0 min 0,000 mm 0,0 UV-I 0 W/m 16,7 C 20,3 C 7,7 km/h 100,00 %
25.06.2022 23:12 20,3 C 80 % 1011,0 hPa 0,0 l/m 2,1 km/h W-NW 294 0 min 0,000 mm 0,0 UV-I 0 W/m 16,7 C 20,3 C 7,7 km/h 95,83 %
25.06.2022 23:11 20,3 C 80 % 1011,0 hPa 0,0 l/m 3,1 km/h W-NW 293 0 min 0,000 mm 0,0 UV-I 0 W/m 16,7 C 20,3 C 5,7 km/h 100,00 %
25.06.2022 23:10 20,3 C 80 % 1011,0 hPa 0,0 l/m 4,9 km/h W-NW 293 0 min 0,000 mm 0,0 UV-I 0 W/m 16,7 C 20,3 C 7,7 km/h 100,00 %
25.06.2022 23:09 20,4 C 80 % 1011,0 hPa 0,0 l/m 1,2 km/h W-NW 293 0 min 0,000 mm 0,0 UV-I 0 W/m 16,8 C 20,4 C 3,8 km/h 100,00 %
25.06.2022 23:08 20,4 C 80 % 1010,9 hPa 0,0 l/m 2,9 km/h W-NW 293 0 min 0,000 mm 0,0 UV-I 0 W/m 16,8 C 20,4 C 7,7 km/h 100,00 %
25.06.2022 23:07 20,4 C 80 % 1010,9 hPa 0,0 l/m 3,7 km/h W-NW 293 0 min 0,000 mm 0,0 UV-I 0 W/m 16,8 C 20,4 C 5,7 km/h 100,00 %
25.06.2022 23:06 20,4 C 79 % 1011,0 hPa 0,0 l/m 2,6 km/h W-NW 293 0 min 0,000 mm 0,0 UV-I 0 W/m 16,6 C 20,4 C 5,7 km/h 100,00 %
25.06.2022 23:05 20,5 C 79 % 1010,9 hPa 0,0 l/m 2,4 km/h W-NW 293 0 min 0,000 mm 0,0 UV-I 0 W/m 16,7 C 20,5 C 9,6 km/h 100,00 %
25.06.2022 23:04 20,5 C 79 % 1010,9 hPa 0,0 l/m 1,2 km/h W-NW 295 0 min 0,000 mm 0,0 UV-I 0 W/m 16,7 C 20,5 C 3,8 km/h 100,00 %
25.06.2022 23:03 20,6 C 79 % 1010,9 hPa 0,0 l/m 1,8 km/h W-NW 295 0 min 0,000 mm 0,0 UV-I 0 W/m 16,8 C 20,6 C 5,7 km/h 100,00 %
25.06.2022 23:02 20,6 C 79 % 1011,0 hPa 0,0 l/m 2,0 km/h W-NW 295 0 min 0,000 mm 0,0 UV-I 0 W/m 16,8 C 20,6 C 3,8 km/h 100,00 %
25.06.2022 23:01 20,7 C 78 % 1011,0 hPa 0,0 l/m 6,5 km/h W-NW 295 0 min 0,000 mm 0,0 UV-I 0 W/m 16,7 C 20,7 C 9,6 km/h 100,00 %
25.06.2022 23:00 20,7 C 78 % 1011,0 hPa 0,0 l/m 5,3 km/h W-NW 293 0 min 0,000 mm 0,0 UV-I 0 W/m 16,7 C 20,7 C 7,7 km/h 100,00 %
25.06.2022 22:59 20,7 C 78 % 1011,0 hPa 0,0 l/m 2,8 km/h W-NW 293 0 min 0,000 mm 0,0 UV-I 0 W/m 16,7 C 20,7 C 9,6 km/h 100,00 %
25.06.2022 22:58 20,8 C 78 % 1011,0 hPa 0,0 l/m 4,5 km/h W-NW 290 0 min 0,000 mm 0,0 UV-I 0 W/m 16,8 C 20,8 C 9,6 km/h 100,00 %
25.06.2022 22:57 20,8 C 78 % 1011,0 hPa 0,0 l/m 2,5 km/h W-SW 257 0 min 0,000 mm 0,0 UV-I 0 W/m 16,8 C 20,8 C 5,7 km/h 95,83 %
25.06.2022 22:56 20,9 C 77 % 1011,0 hPa 0,0 l/m 2,0 km/h W-SW 257 0 min 0,000 mm 0,0 UV-I 0 W/m 16,7 C 20,9 C 5,7 km/h 100,00 %
25.06.2022 22:55 20,9 C 77 % 1011,0 hPa 0,0 l/m 3,4 km/h W-SW 257 0 min 0,000 mm 0,0 UV-I 0 W/m 16,7 C 20,9 C 7,7 km/h 100,00 %
25.06.2022 22:54 20,9 C 77 % 1011,0 hPa 0,0 l/m 0,0 km/h W-SW 248 0 min 0,000 mm 0,0 UV-I 0 W/m 16,7 C 20,9 C 0,0 km/h 98,00 %
25.06.2022 22:52 20,9 C 77 % 1011,1 hPa 0,0 l/m 0,0 km/h W-SW 249 0 min 0,000 mm 0,0 UV-I 0 W/m 16,7 C 20,9 C 0,0 km/h 100,00 %
25.06.2022 22:51 21,0 C 77 % 1011,1 hPa 0,0 l/m 0,1 km/h W-SW 249 0 min 0,000 mm 0,0 UV-I 0 W/m 16,8 C 21,0 C 1,9 km/h 100,00 %
25.06.2022 22:50 21,0 C 77 % 1011,1 hPa 0,0 l/m 0,6 km/h W-SW 248 0 min 0,000 mm 0,0 UV-I 0 W/m 16,8 C 21,0 C 1,9 km/h 100,00 %
25.06.2022 22:49 21,1 C 77 % 1011,0 hPa 0,0 l/m 1,0 km/h W-SW 248 0 min 0,000 mm 0,0 UV-I 0 W/m 16,9 C 21,1 C 3,8 km/h 95,83 %
25.06.2022 22:48 21,1 C 77 % 1011,0 hPa 0,0 l/m 0,4 km/h W-SW 249 0 min 0,000 mm 0,0 UV-I 0 W/m 16,9 C 21,1 C 1,9 km/h 100,00 %
25.06.2022 22:47 21,1 C 76 % 1011,0 hPa 0,0 l/m 0,2 km/h W-SW 249 0 min 0,000 mm 0,0 UV-I 0 W/m 16,7 C 21,1 C 1,9 km/h 100,00 %
25.06.2022 22:46 21,2 C 76 % 1011,0 hPa 0,0 l/m 0,7 km/h W-SW 249 0 min 0,000 mm 0,0 UV-I 0 W/m 16,8 C 21,2 C 1,9 km/h 100,00 %
25.06.2022 22:45 21,2 C 76 % 1011,0 hPa 0,0 l/m 0,4 km/h W-SW 249 0 min 0,000 mm 0,0 UV-I 0 W/m 16,8 C 21,2 C 1,9 km/h 100,00 %
25.06.2022 22:44 21,2 C 76 % 1011,0 hPa 0,0 l/m 1,7 km/h W-SW 248 0 min 0,000 mm 0,0 UV-I 0 W/m 16,8 C 21,2 C 3,8 km/h 100,00 %
25.06.2022 22:43 21,3 C 75 % 1011,0 hPa 0,0 l/m 1,3 km/h W-SW 248 0 min 0,000 mm 0,0 UV-I 0 W/m 16,7 C 21,3 C 3,8 km/h 100,00 %
25.06.2022 22:42 21,3 C 75 % 1011,0 hPa 0,0 l/m 2,0 km/h W-SW 248 0 min 0,000 mm 0,0 UV-I 0 W/m 16,7 C 21,3 C 3,8 km/h 95,83 %
25.06.2022 22:41 21,3 C 75 % 1011,0 hPa 0,0 l/m 1,7 km/h W-SW 248 0 min 0,000 mm 0,0 UV-I 0 W/m 16,7 C 21,3 C 3,8 km/h 96,15 %
25.06.2022 22:40 21,3 C 75 % 1011,1 hPa 0,0 l/m 0,8 km/h W-SW 248 0 min 0,000 mm 0,0 UV-I 0 W/m 16,7 C 21,3 C 3,8 km/h 100,00 %
25.06.2022 22:39 21,4 C 74 % 1011,1 hPa 0,0 l/m 0,5 km/h W-SW 248 0 min 0,000 mm 0,0 UV-I 0 W/m 16,6 C 21,4 C 1,9 km/h 100,00 %
25.06.2022 22:38 21,4 C 74 % 1011,0 hPa 0,0 l/m 1,1 km/h W-SW 248 0 min 0,000 mm 0,0 UV-I 0 W/m 16,6 C 21,4 C 3,8 km/h 100,00 %
25.06.2022 22:37 21,4 C 74 % 1011,0 hPa 0,0 l/m 2,7 km/h W-SW 248 0 min 0,000 mm 0,0 UV-I 0 W/m 16,6 C 21,4 C 9,6 km/h 100,00 %
25.06.2022 22:36 21,5 C 74 % 1011,0 hPa 0,0 l/m 1,2 km/h S-SW 200 0 min 0,000 mm 0,0 UV-I 0 W/m 16,7 C 21,5 C 3,8 km/h 100,00 %
25.06.2022 22:35 21,5 C 74 % 1011,0 hPa 0,0 l/m 1,4 km/h S-SW 200 0 min 0,000 mm 0,0 UV-I 0 W/m 16,7 C 21,5 C 3,8 km/h 100,00 %
25.06.2022 22:34 21,5 C 74 % 1011,0 hPa 0,0 l/m 0,6 km/h S-SW 200 0 min 0,000 mm 0,0 UV-I 0 W/m 16,7 C 21,5 C 3,8 km/h 100,00 %
25.06.2022 22:33 21,6 C 74 % 1011,0 hPa 0,0 l/m 0,6 km/h S-SW 200 0 min 0,000 mm 0,0 UV-I 0 W/m 16,8 C 21,6 C 3,8 km/h 100,00 %
25.06.2022 22:32 21,6 C 73 % 1010,9 hPa 0,0 l/m 0,5 km/h S-SW 200 0 min 0,000 mm 0,0 UV-I 0 W/m 16,5 C 21,6 C 1,9 km/h 100,00 %
25.06.2022 22:31 21,6 C 73 % 1010,9 hPa 0,0 l/m 0,6 km/h S-SW 200 0 min 0,000 mm 0,0 UV-I 0 W/m 16,5 C 21,6 C 3,8 km/h 100,00 %
25.06.2022 22:30 21,6 C 73 % 1010,9 hPa 0,0 l/m 0,2 km/h S-SW 200 0 min 0,000 mm 0,0 UV-I 0 W/m 16,5 C 21,6 C 1,9 km/h 100,00 %
25.06.2022 22:29 21,7 C 73 % 1010,9 hPa 0,0 l/m 0,1 km/h S-SW 200 0 min 0,000 mm 0,0 UV-I 0 W/m 16,6 C 21,7 C 1,9 km/h 95,65 %
25.06.2022 22:28 21,7 C 72 % 1010,9 hPa 0,0 l/m 1,2 km/h S-SW 200 0 min 0,000 mm 0,0 UV-I 0 W/m 16,4 C 21,7 C 3,8 km/h 95,83 %
25.06.2022 22:27 21,7 C 72 % 1011,0 hPa 0,0 l/m 1,5 km/h S-SW 200 0 min 0,000 mm 0,0 UV-I 0 W/m 16,4 C 21,7 C 3,8 km/h 100,00 %
25.06.2022 22:26 21,7 C 72 % 1011,0 hPa 0,0 l/m 1,6 km/h S-SW 200 0 min 0,000 mm 0,0 UV-I 0 W/m 16,4 C 21,7 C 3,8 km/h 97,67 %
25.06.2022 22:25 21,7 C 72 % 1010,9 hPa 0,0 l/m 4,7 km/h S-SW 200 0 min 0,000 mm 0,0 UV-I 0 W/m 16,4 C 21,7 C 7,7 km/h 98,77 %
25.06.2022 22:24 21,8 C 71 % 1011,0 hPa 0,0 l/m 0,6 km/h S-SW 194 0 min 0,000 mm 0,0 UV-I 0 W/m 16,3 C 21,8 C 1,9 km/h 96,30 %
25.06.2022 22:23 21,8 C 71 % 1011,0 hPa 0,0 l/m 2,8 km/h S-SW 194 0 min 0,000 mm 0,0 UV-I 0 W/m 16,3 C 21,8 C 5,7 km/h 100,00 %
25.06.2022 22:22 21,8 C 71 % 1011,0 hPa 0,0 l/m 4,9 km/h S-SW 194 0 min 0,000 mm 0,0 UV-I 0 W/m 16,3 C 21,8 C 7,7 km/h 100,00 %
25.06.2022 22:21 21,8 C 70 % 1010,9 hPa 0,0 l/m 5,2 km/h S 180 0 min 0,000 mm 0,0 UV-I 0 W/m 16,1 C 21,8 C 7,7 km/h 100,00 %
25.06.2022 22:20 21,9 C 71 % 1010,9 hPa 0,0 l/m 3,2 km/h S-SO 159 0 min 0,000 mm 0,0 UV-I 0 W/m 16,4 C 21,9 C 7,7 km/h 100,00 %
25.06.2022 22:19 21,9 C 71 % 1010,9 hPa 0,0 l/m 2,0 km/h S-SO 159 0 min 0,000 mm 0,0 UV-I 0 W/m 16,4 C 21,9 C 3,8 km/h 100,00 %
25.06.2022 22:18 21,9 C 71 % 1010,9 hPa 0,0 l/m 0,2 km/h S-SO 159 0 min 0,000 mm 0,0 UV-I 0 W/m 16,4 C 21,9 C 1,9 km/h 96,15 %
25.06.2022 22:17 21,9 C 71 % 1010,9 hPa 0,0 l/m 0,0 km/h S-SO 159 0 min 0,000 mm 0,0 UV-I 0 W/m 16,4 C 21,9 C 0,0 km/h 100,00 %
25.06.2022 22:15 21,9 C 70 % 1010,8 hPa 0,0 l/m 0,0 km/h S-SO 159 0 min 0,000 mm 0,0 UV-I 0 W/m 16,2 C 21,9 C 0,0 km/h 98,76 %
25.06.2022 22:14 21,9 C 70 % 1010,9 hPa 0,0 l/m 0,0 km/h S-SO 159 0 min 0,000 mm 0,0 UV-I 0 W/m 16,2 C 21,9 C 0,0 km/h 100,00 %
25.06.2022 22:13 22,0 C 70 % 1010,9 hPa 0,0 l/m 0,0 km/h S-SO 159 0 min 0,000 mm 0,0 UV-I 0 W/m 16,3 C 22,0 C 0,0 km/h 100,00 %
25.06.2022 22:12 22,0 C 70 % 1010,9 hPa 0,0 l/m 0,0 km/h S-SO 159 0 min 0,000 mm 0,0 UV-I 0 W/m 16,3 C 22,0 C 0,0 km/h 100,00 %
25.06.2022 22:11 22,1 C 70 % 1010,9 hPa 0,0 l/m 0,0 km/h S-SO 159 0 min 0,000 mm 0,0 UV-I 0 W/m 16,4 C 22,1 C 0,0 km/h 100,00 %
25.06.2022 22:10 22,1 C 70 % 1010,9 hPa 0,0 l/m 0,0 km/h S-SO 159 0 min 0,000 mm 0,0 UV-I 0 W/m 16,4 C 22,1 C 0,0 km/h 100,00 %
25.06.2022 22:09 22,1 C 70 % 1010,9 hPa 0,0 l/m 0,0 km/h S-SO 159 0 min 0,000 mm 0,0 UV-I 0 W/m 16,4 C 22,1 C 0,0 km/h 100,00 %
25.06.2022 22:08 22,2 C 70 % 1010,9 hPa 0,0 l/m 0,0 km/h S-SO 159 0 min 0,000 mm 0,0 UV-I 0 W/m 16,5 C 22,2 C 0,0 km/h 100,00 %
25.06.2022 22:07 22,2 C 70 % 1010,8 hPa 0,0 l/m 0,0 km/h S-SO 159 0 min 0,000 mm 0,0 UV-I 0 W/m 16,5 C 22,2 C 0,0 km/h 100,00 %
25.06.2022 22:06 22,3 C 71 % 1010,8 hPa 0,0 l/m 0,0 km/h S-SO 159 0 min 0,000 mm 0,0 UV-I 0 W/m 16,8 C 22,3 C 0,0 km/h 100,00 %
25.06.2022 22:04 22,4 C 71 % 1010,8 hPa 0,0 l/m 0,0 km/h S-SO 159 0 min 0,000 mm 0,0 UV-I 0 W/m 16,9 C 22,4 C 0,0 km/h 100,00 %
25.06.2022 22:03 22,4 C 71 % 1010,8 hPa 0,0 l/m 0,0 km/h S-SO 159 0 min 0,000 mm 0,0 UV-I 0 W/m 16,9 C 22,4 C 0,0 km/h 100,00 %
25.06.2022 22:02 22,4 C 70 % 1010,8 hPa 0,0 l/m 0,0 km/h S-SO 159 0 min 0,000 mm 0,0 UV-I 0 W/m 16,7 C 22,4 C 0,0 km/h 94,74 %
25.06.2022 22:01 22,5 C 69 % 1010,8 hPa 0,0 l/m 0,0 km/h S-SO 159 0 min 0,000 mm 0,0 UV-I 0 W/m 16,5 C 22,5 C 0,0 km/h 100,00 %
25.06.2022 22:00 22,5 C 69 % 1010,8 hPa 0,0 l/m 0,0 km/h S-SO 159 0 min 0,026 mm 0,0 UV-I 0 W/m 16,5 C 22,5 C 0,0 km/h 95,83 %
25.06.2022 21:59 22,6 C 69 % 1010,8 hPa 0,0 l/m 0,0 km/h S-SO 159 0 min 0,000 mm 0,0 UV-I 0 W/m 16,6 C 22,6 C 0,0 km/h 100,00 %
25.06.2022 21:58 22,6 C 68 % 1010,8 hPa 0,0 l/m 0,0 km/h S-SO 159 0 min 0,000 mm 0,0 UV-I 0 W/m 16,4 C 22,6 C 0,0 km/h 93,33 %
25.06.2022 21:57 22,7 C 68 % 1010,7 hPa 0,0 l/m 0,0 km/h S-SO 159 0 min 0,000 mm 0,0 UV-I 0 W/m 16,5 C 22,7 C 0,0 km/h 96,15 %
25.06.2022 21:56 22,7 C 68 % 1010,7 hPa 0,0 l/m 0,0 km/h S-SO 159 0 min 0,000 mm 0,0 UV-I 0 W/m 16,5 C 22,7 C 0,0 km/h 95,83 %
25.06.2022 21:55 22,7 C 68 % 1010,7 hPa 0,0 l/m 0,0 km/h S-SO 159 0 min 0,000 mm 0,0 UV-I 0 W/m 16,5 C 22,7 C 0,0 km/h 96,15 %
25.06.2022 21:54 22,7 C 68 % 1010,7 hPa 0,0 l/m 0,0 km/h S-SO 159 0 min 0,000 mm 0,0 UV-I 0 W/m 16,5 C 22,7 C 0,0 km/h 100,00 %
25.06.2022 21:53 22,8 C 68 % 1010,8 hPa 0,0 l/m 0,0 km/h S-SO 159 0 min 0,000 mm 0,0 UV-I 0 W/m 16,6 C 22,8 C 0,0 km/h 95,65 %
25.06.2022 21:52 22,8 C 68 % 1010,7 hPa 0,0 l/m 0,0 km/h S-SO 159 0 min 0,000 mm 0,0 UV-I 0 W/m 16,6 C 22,8 C 0,0 km/h 100,00 %
25.06.2022 21:51 22,8 C 68 % 1010,7 hPa 0,0 l/m 0,0 km/h S-SO 159 0 min 0,000 mm 0,0 UV-I 0 W/m 16,6 C 22,8 C 0,0 km/h 96,15 %
25.06.2022 21:50 22,8 C 68 % 1010,8 hPa 0,0 l/m 0,0 km/h S-SO 159 0 min 0,000 mm 0,0 UV-I 0 W/m 16,6 C 22,8 C 0,0 km/h 100,00 %
25.06.2022 21:49 22,8 C 68 % 1010,7 hPa 0,0 l/m 0,0 km/h S-SO 159 0 min 0,000 mm 0,0 UV-I 0 W/m 16,6 C 22,8 C 0,0 km/h 93,33 %
25.06.2022 21:48 22,9 C 67 % 1010,7 hPa 0,0 l/m 0,0 km/h S-SO 159 0 min 0,000 mm 0,0 UV-I 0 W/m 16,4 C 22,9 C 0,0 km/h 100,00 %
25.06.2022 21:47 22,9 C 67 % 1010,7 hPa 0,0 l/m 0,0 km/h S-SO 159 0 min 0,000 mm 0,0 UV-I 0 W/m 16,4 C 22,9 C 0,0 km/h 95,83 %
25.06.2022 21:46 23,0 C 67 % 1010,7 hPa 0,0 l/m 0,0 km/h S-SO 159 0 min 0,000 mm 0,0 UV-I 0 W/m 16,5 C 23,0 C 0,0 km/h 95,65 %
25.06.2022 21:45 23,0 C 67 % 1010,7 hPa 0,0 l/m 0,0 km/h S-SO 159 0 min 0,000 mm 0,0 UV-I 0 W/m 16,5 C 23,0 C 0,0 km/h 100,00 %
25.06.2022 21:44 23,0 C 65 % 1010,7 hPa 0,0 l/m 0,0 km/h S-SO 159 0 min 0,000 mm 0,0 UV-I 0 W/m 16,1 C 23,0 C 0,0 km/h 96,15 %
25.06.2022 21:43 23,0 C 65 % 1010,6 hPa 0,0 l/m 0,0 km/h S-SO 159 0 min 0,000 mm 0,0 UV-I 0 W/m 16,1 C 23,0 C 0,0 km/h 100,00 %
25.06.2022 21:42 23,1 C 66 % 1010,7 hPa 0,0 l/m 0,0 km/h S-SO 159 0 min 0,000 mm 0,0 UV-I 0 W/m 16,4 C 23,1 C 0,0 km/h 95,65 %
25.06.2022 21:41 23,1 C 66 % 1010,7 hPa 0,0 l/m 0,0 km/h S-SO 159 0 min 0,000 mm 0,0 UV-I 0 W/m 16,4 C 23,1 C 0,0 km/h 100,00 %
25.06.2022 21:40 23,2 C 65 % 1010,7 hPa 0,0 l/m 0,0 km/h S-SO 159 0 min 0,000 mm 0,0 UV-I 3 W/m 16,2 C 23,2 C 0,0 km/h 96,15 %
25.06.2022 21:39 23,2 C 65 % 1010,7 hPa 0,0 l/m 0,0 km/h S-SO 159 0 min 0,000 mm 0,0 UV-I 5 W/m 16,2 C 23,2 C 0,0 km/h 91,67 %
25.06.2022 21:38 23,2 C 64 % 1010,7 hPa 0,0 l/m 0,0 km/h S-SO 159 0 min 0,000 mm 0,0 UV-I 5 W/m 16,0 C 23,2 C 0,0 km/h 100,00 %
25.06.2022 21:37 23,2 C 64 % 1010,7 hPa 0,0 l/m 0,0 km/h S-SO 159 0 min 0,000 mm 0,0 UV-I 5 W/m 16,0 C 23,2 C 0,0 km/h 100,00 %
25.06.2022 21:36 23,2 C 64 % 1010,7 hPa 0,0 l/m 0,0 km/h S-SO 159 0 min 0,000 mm 0,0 UV-I 6 W/m 16,0 C 23,2 C 0,0 km/h 96,00 %
25.06.2022 21:34 23,3 C 65 % 1010,6 hPa 0,0 l/m 0,0 km/h S-SO 159 0 min 0,000 mm 0,0 UV-I 7 W/m 16,3 C 23,3 C 0,0 km/h 95,65 %
25.06.2022 21:33 23,3 C 64 % 1010,6 hPa 0,0 l/m 0,0 km/h S-SO 159 0 min 0,000 mm 0,0 UV-I 7 W/m 16,1 C 23,3 C 0,0 km/h 96,00 %
25.06.2022 21:32 23,4 C 65 % 1010,6 hPa 0,0 l/m 0,0 km/h S-SO 159 0 min 0,000 mm 0,0 UV-I 7 W/m 16,4 C 23,4 C 0,0 km/h 100,00 %
25.06.2022 21:31 23,4 C 64 % 1010,7 hPa 0,0 l/m 0,0 km/h S-SO 159 0 min 0,000 mm 0,0 UV-I 7 W/m 16,2 C 23,4 C 0,0 km/h 96,30 %
25.06.2022 21:30 23,4 C 64 % 1010,7 hPa 0,0 l/m 0,0 km/h S-SO 159 0 min 0,000 mm 0,0 UV-I 9 W/m 16,2 C 23,4 C 0,0 km/h 96,15 %
25.06.2022 21:29 23,4 C 64 % 1010,6 hPa 0,0 l/m 0,0 km/h S-SO 159 0 min 0,000 mm 0,0 UV-I 9 W/m 16,2 C 23,4 C 0,0 km/h 100,00 %
25.06.2022 21:28 23,5 C 64 % 1010,6 hPa 0,0 l/m 0,0 km/h S-SO 159 0 min 0,000 mm 0,0 UV-I 9 W/m 16,3 C 23,5 C 0,0 km/h 95,65 %
25.06.2022 21:27 23,6 C 64 % 1010,6 hPa 0,0 l/m 0,0 km/h S-SO 159 0 min 0,000 mm 0,0 UV-I 11 W/m 16,4 C 23,6 C 0,0 km/h 100,00 %
25.06.2022 21:26 23,6 C 64 % 1010,7 hPa 0,0 l/m 0,0 km/h S-SO 159 0 min 0,000 mm 0,0 UV-I 11 W/m 16,4 C 23,6 C 0,0 km/h 92,86 %
25.06.2022 21:25 23,7 C 64 % 1010,7 hPa 0,0 l/m 0,0 km/h S-SO 159 0 min 0,000 mm 0,0 UV-I 11 W/m 16,5 C 23,7 C 0,0 km/h 100,00 %
25.06.2022 21:24 23,7 C 64 % 1010,6 hPa 0,0 l/m 0,0 km/h S-SO 159 0 min 0,000 mm 0,0 UV-I 11 W/m 16,5 C 23,7 C 0,0 km/h 91,67 %
25.06.2022 21:23 23,8 C 63 % 1010,6 hPa 0,0 l/m 0,0 km/h S-SO 159 0 min 0,000 mm 0,0 UV-I 12 W/m 16,3 C 23,8 C 0,0 km/h 100,00 %
25.06.2022 21:22 23,8 C 63 % 1010,6 hPa 0,0 l/m 0,0 km/h S-SO 159 0 min 0,000 mm 0,0 UV-I 12 W/m 16,3 C 23,8 C 0,0 km/h 96,30 %
25.06.2022 21:21 23,9 C 63 % 1010,6 hPa 0,0 l/m 0,0 km/h S-SO 159 0 min 0,000 mm 0,0 UV-I 14 W/m 16,4 C 23,9 C 0,0 km/h 91,30 %
25.06.2022 21:20 23,9 C 62 % 1010,5 hPa 0,0 l/m 0,0 km/h S-SO 159 0 min 0,000 mm 0,0 UV-I 14 W/m 16,2 C 23,9 C 0,0 km/h 100,00 %
25.06.2022 21:19 23,9 C 63 % 1010,5 hPa 0,0 l/m 0,0 km/h S-SO 159 0 min 0,000 mm 0,0 UV-I 14 W/m 16,4 C 23,9 C 0,0 km/h 96,15 %
25.06.2022 21:18 23,9 C 61 % 1010,5 hPa 0,0 l/m 0,0 km/h S-SO 159 0 min 0,000 mm 0,0 UV-I 14 W/m 15,9 C 23,9 C 0,0 km/h 100,00 %
25.06.2022 21:17 23,9 C 60 % 1010,5 hPa 0,0 l/m 0,0 km/h S-SO 159 0 min 0,000 mm 0,0 UV-I 15 W/m 15,7 C 23,9 C 0,0 km/h 95,65 %
25.06.2022 21:16 23,9 C 61 % 1010,5 hPa 0,0 l/m 0,0 km/h S-SO 159 0 min 0,000 mm 0,0 UV-I 16 W/m 15,9 C 23,9 C 0,0 km/h 100,00 %
25.06.2022 21:15 23,9 C 59 % 1010,5 hPa 0,0 l/m 0,0 km/h S-SO 159 0 min 0,000 mm 0,0 UV-I 16 W/m 15,4 C 23,9 C 0,0 km/h 95,65 %
25.06.2022 21:14 23,9 C 59 % 1010,4 hPa 0,0 l/m 0,0 km/h S-SO 159 0 min 0,000 mm 0,0 UV-I 16 W/m 15,4 C 23,9 C 0,0 km/h 100,00 %
25.06.2022 21:13 23,9 C 59 % 1010,4 hPa 0,0 l/m 0,0 km/h S-SO 159 0 min 0,000 mm 0,0 UV-I 17 W/m 15,4 C 23,9 C 0,0 km/h 95,65 %
25.06.2022 21:12 23,9 C 59 % 1010,4 hPa 0,0 l/m 0,0 km/h S-SO 159 0 min 0,000 mm 0,0 UV-I 18 W/m 15,4 C 23,9 C 0,0 km/h 95,83 %
25.06.2022 21:11 23,9 C 59 % 1010,4 hPa 0,0 l/m 0,0 km/h S-SO 159 0 min 0,000 mm 0,0 UV-I 18 W/m 15,4 C 23,9 C 0,0 km/h 86,96 %
25.06.2022 21:10 24,0 C 59 % 1010,5 hPa 0,0 l/m 0,0 km/h S-SO 159 0 min 0,000 mm 0,0 UV-I 19 W/m 15,5 C 24,0 C 0,0 km/h 96,30 %
25.06.2022 21:09 24,0 C 60 % 1010,4 hPa 0,0 l/m 0,0 km/h S-SO 159 0 min 0,000 mm 0,0 UV-I 19 W/m 15,7 C 24,0 C 0,0 km/h 100,00 %
25.06.2022 21:08 23,9 C 60 % 1010,4 hPa 0,0 l/m 0,0 km/h S-SO 159 0 min 0,000 mm 0,0 UV-I 21 W/m 15,7 C 23,9 C 0,0 km/h 95,83 %
25.06.2022 21:07 24,0 C 59 % 1010,4 hPa 0,0 l/m 0,0 km/h S-SO 159 0 min 0,000 mm 0,0 UV-I 21 W/m 15,5 C 24,0 C 0,0 km/h 100,00 %
25.06.2022 21:06 24,0 C 59 % 1010,5 hPa 0,0 l/m 0,0 km/h S-SO 159 0 min 0,000 mm 0,0 UV-I 21 W/m 15,5 C 24,0 C 0,0 km/h 96,30 %
25.06.2022 21:05 24,0 C 59 % 1010,4 hPa 0,0 l/m 0,0 km/h S-SO 159 0 min 0,000 mm 0,0 UV-I 22 W/m 15,5 C 24,0 C 0,0 km/h 100,00 %
25.06.2022 21:04 24,0 C 59 % 1010,5 hPa 0,0 l/m 0,0 km/h S-SO 159 0 min 0,000 mm 0,0 UV-I 23 W/m 15,5 C 24,0 C 0,0 km/h 95,65 %
25.06.2022 21:03 24,0 C 58 % 1010,5 hPa 0,0 l/m 0,0 km/h S-SO 159 0 min 0,000 mm 0,0 UV-I 23 W/m 15,2 C 24,0 C 0,0 km/h 100,00 %
25.06.2022 21:02 24,1 C 58 % 1010,5 hPa 0,0 l/m 0,0 km/h S-SO 159 0 min 0,000 mm 0,0 UV-I 23 W/m 15,3 C 24,1 C 0,0 km/h 95,65 %
25.06.2022 21:01 24,1 C 58 % 1010,4 hPa 0,0 l/m 0,0 km/h S-SO 159 0 min 0,050 mm 0,0 UV-I 23 W/m 15,3 C 24,1 C 0,0 km/h 95,83 %
25.06.2022 21:00 24,1 C 59 % 1010,5 hPa 0,0 l/m 0,0 km/h S-SO 159 0 min 0,000 mm 0,0 UV-I 23 W/m 15,6 C 24,1 C 0,0 km/h 100,00 %
_ Min-Zeit 04:57 16:05 21:01 - 21:00 - - - - - - 15:50 01:26 21:00 21:11
Minimum _ 16,6 C 57 % 1010,4 hPa - 0,0 km/h - - - - - - 13,0 C 14,1 C 0,0 km/h 86,96 %
_ Max-Zeit 21:00 04:09 14:44 01:39 01:21 - - 11:08 12:01 12:12 12:12 02:58 21:00 01:06 21:00
Maximum _ 24,1 C 97 % 1016,6 hPa 1,4 l/m 17,7 km/h
SW
- - 2 min 0,356 mm 5,2 UV-I 1004 W/m 17,1 C 24,1 C 26,8 km/h
W-SW
100,00 %
Durchschnitt _ 19,9 C 77 % 1013,7 hPa #13,8 l/m 3,4 km/h SW - #6:19 h #2,667 mm 1,8 UV-I 294 W/m 15,4 C 19,7 C 6,0 km/h 99,00 %